GFSCGP_prec_radar_000.txt.gz
Reflectivity
-20 -20 -20 -20 -20 -20 -20 -20 -20 -20 -20 -20 -20 -20 -20 -20 -20 -20 -20 -20 -20 -20 -20 -20 -20 20 -20 -20 -20 -20 -20 -20 -5 -20 -20 -20 -20 -19 -20 -20 -20 -20 -20 -20
-20 -20 -20 -20 -20 -20 -20 -20 -20 -20 -20 -20 -20 -20 -20 -20 -20 -20 -20 -20 -20 -20 -20 -20 -5 -20 -20 -20 -20 -20 24 -20 -20 -20 -20 -20 -2 -20 -20 -20 -20 -20 -20 -18
-20 -20 -20 -20 -20 -20 -20 -20 -20 -20 -20 -20 -20 -20 -20 -20 -20 -20 -20 -20 -20 -20 -20 -20 -20 -1 -20 -20 -20 -20 -20 -20 -20 -20 -20 -20 -20 -20 -20 -20 16 -14 -15 0
-20 -20 -20 -20 -20 -20 -20 -20 -20 -20 -20 -20 -20 -7 3 -20 -20 -20 -20 -20 -20 -20 -20 -20 -20 -20 -20 -20 -20 -20 -20 -20 -20 1 -20 -20 -20 -20 -14 -16 -20 -20 -20 -20
-20 -20 -20 -20 -20 -20 -20 -20 -20 -20 -20 -20 -20 -20 1 -14 -19 -20 -20 -20 -20 -20 -20 -20 -20 -20 -20 -20 -20 -20 -20 -20 -20 -20 -20 -20 -20 -20 -20 -20 -20 -20 -20 -20
-20 -20 -20 -20 -20 -20 -20 -20 -20 -20 -20 -20 -20 -20 6 24 13 -9 -20 -20 -20 -20 -20 -20 -20 -20 -20 -20 -20 -20 -20 -20 -20 -20 -20 -20 -20 -20 -20 -20 -20 -20 -20 -20
-20 -20 -20 -20 -20 -20 -20 -20 -20 -13 -2 -20 -19 -20 -20 -20 -15 -20 -20 -20 -20 -20 -20 -20 -20 -20 -20 -20 -20 -20 -20 -20 -20 -20 -20 -20 -20 -20 -20 -20 -20 -20 -20 -20
-20 -19 -20 -20 -20 -20 -20 -20 -20 -19 -20 -8 -18 -20 -20 -20 -20 -20 -20 -20 -20 -20 -20 -20 -20 -20 -20 -20 -20 -20 -20 -20 -20 -20 -20 -20 -20 -20 -20 -20 -20 -20 -20 -20
-20 -20 -20 -20 -20 -20 -20 -20 -20 -20 -20 -20 -20 5 -18 -20 -20 -20 -20 -20 -20 -20 -18 -20 5 22 -20 -20 -20 -20 -20 -18 -18 -20 -20 -20 -20 -20 -20 -20 -20 -20 -20 -20
-20 -20 -20 -20 -20 -20 -20 -20 -20 -20 -20 -20 -20 -15 3 -2 19 1 -20 -20 -20 -20 14 11 18 -20 -20 -20 -20 -20 -20 -20 -20 -2 -20 -13 20 -16 -20 -20 -20 -20 -20 -20
-20 -20 -20 -20 -20 -20 -20 -20 -20 -20 -20 -20 -20 -20 -20 -20 -20 -20 -20 -20 -20 -20 -20 -17 3 -20 -20 -20 -20 -20 -20 -20 -20 -20 -19 8 -20 -20 -20 -20 -20 -20 -20 -20
-20 -20 -20 -20 -20 -20 -20 -20 -20 -20 -20 -20 -20 -20 -20 -20 -20 -20 -20 -19 -20 -20 -20 -20 -20 -20 -20 -20 -20 -20 -20 -20 -20 -20 -20 -20 -20 -20 -20 -20 -20 -20 -20 -20
-20 -20 -20 -20 -20 -20 -20 -20 -20 -20 -20 -20 -20 -20 -16 -9 14 19 19 -2 -20 -20 -20 -20 -20 -20 -20 -20 -20 -20 -20 -20 -20 -20 -20 -20 -20 -20 -20 -20 -20 -20 -20 -20
-20 -20 -20 -20 -20 -20 -20 -20 -20 -20 -20 -20 -20 -20 -20 14 23 -19 -20 -20 -20 -20 -20 -20 -20 -20 -20 -20 -20 -20 -20 -20 -20 -8 -10 -20 -20 -20 -20 -20 -20 -20 -20 -20
-20 -20 -20 -20 -20 -20 -20 -20 -20 -20 -20 -20 -20 -20 -7 -17 -20 -20 -20 -20 -20 -20 -20 -20 -20 -20 -20 -20 -20 -20 -20 -20 -20 -17 15 -20 -20 -20 -20 -20 -20 -20 -20 -20
-20 -20 -20 -20 -20 -20 -20 -20 -20 -20 -20 -20 -20 -20 17 -4 -20 -20 -20 -20 -20 -20 -20 -20 -20 -20 -20 -20 -20 -20 -20 -20 -20 -20 -20 -20 14 19 12 -8 -20 -20 -20 -20
-20 -20 -20 -20 -20 -20 -20 -20 -20 -20 -20 -20 -20 -17 -12 -20 -20 -20 -20 -20 -20 -20 -20 -20 -20 -20 -20 -20 -20 -20 -20 -20 -20 -20 -20 -20 22 19 8 -2 -20 -20 -20 -20
-20 -20 -20 -20 -20 -20 -20 -20 -20 -20 -20 -20 -17 -15 -20 -20 -20 -20 -20 -20 -20 -20 -20 -20 -20 -20 -20 -20 -20 -20 -20 -20 -20 -20 -3 -2 -13 -18 -8 -20 -20 -19 -20 -20
-20 -20 -20 -20 -20 -20 -20 -20 -20 -20 -20 -20 -20 -20 -20 -20 -20 -20 -15 -20 -20 -20 -20 -20 -20 -20 -20 -20 -20 -20 -20 -20 -20 -20 -20 11 10 24 9 -20 -20 -20 -20 -20
-20 -20 -20 -20 -20 -20 -20 -20 -20 -20 -20 -20 -20 -20 -20 -20 -19 -12 -20 -20 -20 -20 -20 -20 -20 -20 -20 -20 -20 -20 -20 -20 -20 -20 -20 -1 7 10 -18 -20 -20 -20 -20 -20
-20 -20 -20 -7 -7 -19 -20 -20 -20 -20 -8 -20 -20 -20 -20 -20 -20 -20 -20 -20 -20 -20 -20 -20 -20 -20 -20 -20 -20 -20 -20 -20 -20 -20 -20 -14 24 11 -20 -20 -20 -20 -20 -20
-20 -20 -20 -8 -20 -14 -20 -20 -20 -8 -1 -20 -20 -20 -20 -20 -20 -20 -20 -20 -20 -20 -20 -20 -20 -20 -20 -20 -20 -20 -20 -20 -20 -20 -20 -20 -20 -20 -20 -20 -20 -20 -20 -20
-20 -20 -18 -20 -20 -20 -15 -20 -20 -20 -20 -20 7 -20 -20 -20 -19 -20 -20 -20 -20 -20 -20 -20 -20 -20 -20 -20 -20 -20 -20 -20 -20 -20 -7 2 -20 -20 -20 -20 -20 -20 -20 -20
-20 -20 -20 -16 -20 -20 -18 11 -20 -20 -20 -8 4 -20 -15 -20 -20 -20 -20 -20 -20 -20 -20 -20 -20 -20 -20 -20 -20 -20 -20 -20 -20 -20 -20 -20 -20 -20 -20 -20 -20 -20 -20 -20
-20 -20 -20 -20 -20 -20 -10 -20 -20 -20 -13 -1 -10 5 -20 -20 -20 -20 -20 -20 -20 -20 -20 -20 -20 -20 -20 -20 -20 -20 -20 -20 -20 -20 -20 -20 -20 -20 -20 -20 -20 -20 -20 -20
-14 -20 -20 -8 -20 -2 -12 -20 -20 -20 -20 -8 -1 -20 -20 -20 -20 -20 -20 -20 -20 -20 -20 -20 -20 -20 -20 -20 -20 -20 -20 -20 -20 -20 -20 -20 -20 -20 -20 -17 -20 -20 -20 -20

GFSCGP_prec_radar_003.txt.gz
Reflectivity
-20 -20 -20 -20 -20 -20 -20 -20 -20 -20 -20 -20 -20 -20 -20 -20 -20 -20 -20 -20 -20 -20 -20 -20 -20 -20 -20 -20 -20 -20 -20 -20 -20 -20 -20 8 -20 -20 -20 -20 -20 -20 -20 -20
-20 -20 -20 -20 -20 -20 -20 -20 -20 -20 -20 -20 -20 -20 -20 -20 -20 -20 -20 -20 -20 -20 -20 -20 -20 -20 15 -20 -20 -7 11 -20 -1 4 -20 -20 -20 -20 -20 -20 -20 -20 -20 -20
-20 -20 -20 -20 -20 -20 -20 -20 -20 -20 -20 -20 -20 -20 -20 -20 -20 -20 -20 -20 -20 -20 -20 -20 6 -20 -20 -20 -20 -20 -20 -20 -7 -5 -20 -20 -20 -20 -20 -20 -20 -20 -20 -20
-20 -20 -20 -20 -20 -20 -20 -20 -20 -20 -20 -20 -20 -20 -20 -20 -20 -20 -20 -20 -20 -20 -20 -20 -20 -20 -20 -20 -20 -20 -20 -20 -20 -20 -20 -20 -20 -20 -20 -20 -20 -20 -20 -20
-20 -20 -20 -20 -20 -20 -20 -20 -20 -20 -20 -20 -20 -20 -0 -3 -4 -20 -20 -20 -20 -20 -20 -20 -20 -20 -20 -20 -20 -20 -20 -20 -20 -20 -20 -20 -20 -20 -20 -20 -20 -20 -20 -20
-20 -20 -20 -20 -20 -20 -20 -20 -20 -20 -20 -20 -20 -20 -14 -18 -17 -20 -20 -20 -20 -20 -20 -20 -20 -20 -20 -20 -20 -20 -20 -20 -20 -20 -20 -20 -20 -20 -20 -20 -20 -20 -20 -20
-20 -20 -20 -20 -20 -20 -20 -20 -20 -20 7 -20 -15 -18 -15 -20 -20 -20 -20 -20 -20 -20 -20 -20 -20 -20 -20 -20 -20 -20 -20 -20 -20 -20 -20 -20 -20 -20 -20 -20 -20 -20 -20 -20
-20 -20 -20 -20 -20 -20 -20 -20 -20 -20 -20 -20 -20 -6 -20 -20 -20 -20 -20 -20 -20 -20 -20 -20 -20 -20 -20 -20 -20 -20 -20 -20 -20 -20 -20 -20 -20 -20 -20 -20 6 -19 -20 -20
-20 -20 -20 -20 -20 -20 -20 -20 -20 -20 -20 -20 -20 -20 -20 -20 -17 -2 15 -16 -20 -20 -20 -20 -20 -20 -10 -20 -20 -20 -20 -20 -20 -20 -20 -20 -20 -17 -20 17 11 -20 -20 -20
-20 -20 -20 -20 -20 -20 -20 -20 -20 -20 -20 -20 -20 -20 -20 -20 -16 -12 -20 -20 -20 -20 -20 -20 -20 -20 -20 -20 -20 -20 -20 -20 -20 -20 2 -13 4 21 19 10 -20 -20 -20 -20
-20 -20 -20 -20 -20 -20 -20 -20 -20 -20 -20 -20 -20 -20 -20 -20 -20 -20 -20 -20 -20 -20 -20 -20 -20 -20 -20 -20 -20 -20 -20 -20 -20 -20 -20 -18 -16 -18 -20 -20 -20 -20 -20 -20
-20 -20 -20 -20 -20 -20 -20 -20 -20 -20 -20 -20 -20 -20 -20 -20 -20 -20 -20 -20 -20 -20 -20 -20 -20 -20 -20 -20 -20 -20 -20 -20 -20 -20 -20 -20 -20 -20 -20 -20 -20 -20 -20 -20
-20 -20 -20 -20 -20 -20 -20 -20 -20 -20 -20 -20 -20 -20 -20 -20 -20 -10 -10 -20 -20 -20 -20 -20 -20 -20 -20 -20 -20 -20 -20 -20 -20 -20 -20 -20 -20 -18 25 8 -17 -17 0 -20
-20 -20 -20 -20 -20 -20 -20 -20 -20 -20 -20 -20 -20 -20 -20 -20 -20 -20 -20 -20 -20 -20 -20 -20 -20 -20 -20 -20 -20 -20 -20 -20 -20 -20 -20 -20 -20 -20 -11 -20 -19 9 18 -9
-20 -20 -20 -20 -20 -20 -20 -20 -20 -20 -20 -20 -20 -20 -20 -20 -20 -5 -20 -20 -20 -20 -20 -20 -20 -20 -20 -20 -20 -20 -20 -20 -20 -20 -20 -20 -16 -20 -20 15 14 26 0 -11
-20 -10 -20 -20 -20 -20 -20 -20 -20 -20 -20 -20 -20 -20 -20 -20 -20 -20 -20 -20 -20 -20 -20 -20 -20 -20 -20 -20 -20 -20 -20 -20 -20 -20 -20 -20 -20 19 19 -20 33 13 -20 -20
-18 -20 -20 -20 -20 -20 -20 -20 -20 -20 -20 -20 -20 -20 -20 -20 -20 -20 -20 -20 -20 -20 -20 -20 -20 -20 -20 -20 -20 -20 -20 -20 -20 -20 -20 -20 -20 -20 -20 19 28 8 -11 -20
-20 -20 -20 -20 -20 -20 -20 -20 -20 -20 -20 -20 -20 -20 -20 -20 -20 -20 -20 -20 -20 -20 -20 -20 -20 -20 -20 -20 -20 -20 -20 -20 -20 -20 -20 -20 -20 -20 -20 4 19 -17 -20 -20
-20 -20 -20 -20 -20 -20 -20 -20 -20 -20 -20 -20 -20 -20 -20 -20 -20 -20 -20 -20 -20 -20 -20 -20 -20 -20 -20 -20 -20 -20 -20 -20 -20 -20 -20 -20 -20 -20 -20 11 -5 -20 -20 -20
-20 -20 -20 -20 -20 -20 -20 -20 -20 -20 -20 -20 -20 -20 -20 -20 -20 -20 -20 -20 -20 -20 -20 -20 -20 -20 -20 -20 -20 -20 -20 -20 -20 -20 -20 -20 -20 -20 -3 20 -20 -20 -20 -20
-20 -20 -20 -20 -20 -20 -20 -20 -20 -20 -20 -20 -20 -20 -20 -20 -20 -20 -20 -20 -20 -20 -20 -20 -20 -20 -20 -20 -20 -20 -20 -20 -20 -20 -20 -20 -20 -20 -20 -20 -20 -20 -20 -20
-20 -20 -20 -20 -20 -20 -20 -20 -20 -20 -20 -20 -20 -20 -20 -20 -20 -20 -20 -20 -20 -20 -20 -20 -20 -20 -20 -20 -20 -20 -20 -20 -20 -20 -20 -20 -20 -20 -20 -19 -19 -20 -20 -20
-20 -20 -20 -20 -20 -20 -20 -20 -20 -20 -20 -20 -20 -20 -20 -20 -16 -20 -20 -20 -20 -20 -20 -20 -20 -20 -20 -20 -20 -20 -20 -20 -20 -20 -20 -20 -20 -20 -20 -20 -20 -20 -20 -20
-20 -20 -20 -20 -20 -20 -20 -20 -20 -20 -20 -20 -20 -20 -20 -18 -20 -20 -20 -20 -20 -20 -20 -20 -20 -20 -20 -20 -20 -20 -20 -20 -20 -20 -20 -20 -20 -20 -20 -20 -20 -20 -20 -20
-17 -19 -20 -20 -20 -20 -20 -20 -20 -20 -20 -6 -18 -20 11 -18 -19 -20 -20 -20 -20 -20 -20 -20 -20 -20 -20 -20 -20 -20 -20 -20 -20 -20 -20 -20 -20 -20 -20 -20 -20 -20 -20 -20
-11 -17 -17 -12 -20 -20 -20 -20 -20 -20 -20 -20 -1 -18 -19 -20 -20 -20 -20 -20 -20 -20 -20 -20 -20 -20 -20 -20 -20 -20 -20 -20 -20 -20 -20 -20 -20 -20 -20 -20 -20 -20 -20 -20

GFSCGP_prec_radar_006.txt.gz
Reflectivity
-20 -20 -20 -20 -20 -20 -20 -20 -20 -20 -20 -20 -20 -20 -20 -20 -20 -20 -20 -20 -20 -20 -20 -20 -20 -20 -20 -20 -20 -20 -20 12 -10 -20 17 16 -20 -20 -20 -20 -20 -20 -20 -20
-20 -20 -20 -20 -20 -20 -19 -20 -20 -20 -20 -20 -20 -20 -20 -20 -20 -20 -20 -20 -20 -20 -20 -20 -20 14 -20 -20 -20 18 4 -20 -20 9 8 -15 -20 -20 -20 -16 -20 -20 -20 -20
-20 -20 -20 -20 -20 -20 -20 -20 -20 -20 -20 -20 -20 -20 -20 -20 -20 -20 -20 -20 -20 -16 -20 -20 -20 -20 -20 -20 -20 -20 -20 -20 -20 -20 -6 -20 -20 -20 -20 -20 -20 -20 -20 -20
-20 -20 -20 -20 -20 -20 -20 -20 -20 -20 -20 -20 -20 -20 -20 -20 -20 -20 -20 -20 -7 13 -0 -19 -20 -20 -20 -20 -20 -20 -20 -20 -20 -20 -20 -20 -20 -20 -20 -20 -20 -20 -20 -20
-20 -20 -20 -20 -20 -20 -20 -20 -20 -20 -20 -20 -20 -20 -20 -20 -20 -20 -20 -20 -20 -20 -20 -20 -17 -20 -20 -20 -20 -20 -20 -20 -20 -20 -20 -20 -20 -20 -20 -20 -20 -20 -20 -20
-20 -20 -20 -20 -20 -20 -20 -20 -20 -20 -20 -20 -20 -20 -20 -20 -20 -20 -20 -20 -20 -20 -20 -20 -20 -20 -20 -20 -20 -20 -20 -20 -20 -20 -20 -20 -20 -20 -20 -20 -20 -20 -20 -20
-20 -20 -20 -20 -20 -20 -20 -20 -20 -20 -20 -20 -20 -20 -20 -20 -20 -20 -20 -20 -20 -20 -20 -20 -20 -20 -20 -20 -20 -20 -20 -20 -20 -20 -20 -20 -20 -20 -20 -20 -20 6 16 18
-20 -20 -20 -20 -20 -20 -20 -20 -20 -20 -20 -20 -20 -20 -20 -20 -20 -20 -20 -20 -20 -2 -20 -20 -20 -20 -20 -20 -20 -20 -20 -20 -20 -20 -20 -20 -20 -20 -20 -14 -10 28 5 12
-20 -20 -20 -20 -20 -20 -20 -20 -20 -20 -20 -20 -20 -20 -20 -20 -20 -20 -1 18 -5 -20 -20 -20 -20 -20 -20 -20 -20 -20 -20 -20 -20 -20 -20 -20 -15 -20 -20 -5 -20 -20 -20 -20
-20 -20 -20 -20 -20 -20 -20 -20 -20 -20 -20 -20 -20 -20 -20 -20 -20 -20 -20 -20 -20 -20 -20 -20 -20 -20 -20 -20 -20 -20 -20 -20 -20 -20 -20 -20 -20 -20 -20 -20 -20 -15 -20 -20
-20 -20 -20 -20 -20 -20 -20 -20 -20 -20 -20 -20 -20 -20 -20 -20 -20 -20 -20 -20 -20 -20 -20 -20 -20 -20 -20 -20 -20 -20 -20 -20 -20 -20 -20 -20 -20 -20 -20 -20 -20 -20 -16 32
-20 -20 -20 -20 -20 -20 -20 -20 -20 -20 -20 -20 -20 -20 -20 -20 -20 -20 -20 -20 -20 1 -20 -20 -20 -20 -20 -20 -20 -20 -20 -20 -20 -20 -20 -20 -20 -20 -20 -20 -20 -20 -20 -20
-20 -20 -20 -20 -20 -20 -20 -20 -20 -20 -20 -20 -20 -20 -20 -20 -20 -20 -20 -20 -20 -20 -20 -20 -20 -20 -20 -20 -20 -20 -20 -20 -20 -20 -20 -20 -20 -20 -20 3 -20 -19 -20 -15
-20 -20 -20 -20 -20 -20 -20 -20 -20 -20 -20 -20 -20 -20 -20 -20 -20 -20 -20 -20 -20 -20 -20 -20 -20 -20 -20 -20 -20 -20 -20 -20 -20 -20 -20 -20 -20 -20 -20 -20 -13 15 29 -3
-20 -20 -20 -20 -20 -20 -20 -20 -20 -20 -20 -20 -20 -20 -20 -20 -20 -20 -20 -20 -20 -20 -20 -20 -20 -20 -20 -20 -20 -20 -20 -20 -20 -20 -20 -20 -20 -20 -20 -20 -20 -20 -20 -19
-20 -20 -20 -20 -20 -20 -20 -20 -20 -20 -20 -20 -20 -20 -20 -20 -20 -20 -20 -20 -20 -20 -20 -20 -20 -20 -20 -20 -20 -20 -20 -20 -20 -20 -20 -20 -20 -20 -20 -20 -20 -20 -19 -20
-20 -20 -20 -20 -20 -20 -20 -20 -20 -20 -20 -20 -20 -20 -20 -20 -20 -20 -20 -20 -20 -20 -20 -20 -20 -20 -20 -20 -20 -20 -20 -20 -20 -20 -20 -20 -20 -20 -20 -20 -20 -18 -7 -20
-20 -20 -20 -20 -20 -20 -20 -20 -20 -20 -20 -20 -20 -20 -20 -20 -20 -20 -20 -20 -20 -20 -20 -20 -20 -20 -20 -20 -20 -20 -20 -20 -20 -20 -20 -20 -20 -20 -20 -20 -20 23 -14 -20
-20 -20 -20 -20 -20 -20 -20 -20 -20 -20 -20 -20 -20 -20 -20 -20 -20 -20 -20 -20 -20 -20 -20 -20 -20 -20 -20 -20 -20 -20 -20 -20 -20 -20 -20 -20 -20 -20 -20 -20 -20 -20 -20 -20
-20 -20 -20 -20 -20 -20 -20 -20 -20 -20 -20 -20 -20 -20 -20 -20 -20 -20 -20 -20 -20 -20 -20 -20 -20 -20 -20 -20 -20 -20 -20 -20 -20 -20 -20 -20 -20 -20 -20 -20 -20 -20 -20 -20
-20 -20 -20 -20 -20 -20 -20 -20 -20 -20 -20 -20 -20 -20 -20 -20 -20 -20 -20 -20 -20 -20 -20 -20 -20 -20 -20 -20 -20 -20 -20 -20 -20 -20 -20 -20 -20 -20 -20 -20 -20 -20 -20 -10
-20 -20 -20 -20 -20 -20 -20 -20 -20 -20 -20 -20 -20 -20 -20 -20 -20 -20 -20 -20 -20 -20 -20 -20 -20 -20 -20 -20 -20 -20 -20 -20 -20 -20 -20 -20 -20 -20 -20 -20 -20 -20 -20 -20
-20 -20 -20 -20 -20 -20 -20 -20 -20 -20 -20 -20 -20 -20 -20 -20 -20 -20 -20 -20 -20 -20 -20 -20 -20 -20 -20 -20 -20 -20 -20 -20 -20 -20 -20 -20 -20 -20 -20 -20 -20 -20 -20 -20
-20 -20 -20 -20 -20 -20 -20 -20 -20 -20 -20 -20 -20 -20 -20 -20 -20 -20 -20 -20 -20 -20 -20 -20 -20 -20 -20 -20 -20 -20 -20 -20 -20 -20 -20 -20 -20 -20 -20 -20 -20 -20 -20 -20
-20 -20 -20 -20 -20 -20 -20 -20 -20 -20 -20 -20 -20 -20 -20 -20 -20 -20 -20 -20 -20 -20 -20 -20 -20 -20 -20 -20 -20 -20 -20 -20 -20 -20 -20 -20 -20 -20 -20 -20 -20 -20 -20 -20
-16 -20 -20 -20 -20 -20 -20 -20 -20 -20 -20 -20 -20 -20 -20 -20 -20 -20 -20 -20 -20 -20 -20 -20 -20 -20 -20 -20 -20 -20 -20 -20 -20 -20 -15 -14 -20 -20 -20 -20 -20 -20 -20 -20

GFSCGP_prec_radar_009.txt.gz
Reflectivity
-20 -20 -20 -20 -20 -20 -20 -20 -20 -20 -20 -20 -20 -20 -20 -20 -20 -20 -20 -20 -20 -20 -20 -20 -20 -20 -20 -20 17 28 31 26 23 20 20 19 -14 19 -20 -20 -20 -20 -14 3
-20 -20 -20 -20 -20 -20 -20 -20 -20 -20 -20 -20 -20 -20 -20 -20 -20 -20 -20 -20 -20 -20 -20 -20 -20 -20 -20 -20 28 -8 9 11 8 6 -12 9 16 -20 -20 -20 4 -19 -20 -20
-20 -20 -20 -20 -20 -20 -20 -20 -20 -20 -20 -20 -20 -20 -20 -20 -20 -20 -20 -20 -20 -20 -20 -12 -10 -20 -20 -10 -20 -20 -20 -20 -8 17 -20 -20 -20 -20 -20 -20 -20 -20 -20 -20
-20 -20 -20 -20 -20 -20 -20 -20 -20 -20 -20 -20 -20 -20 -20 -20 -20 -20 -20 -20 -20 -9 -11 -20 -20 -20 -20 -20 -20 -20 -20 -20 -20 -20 -20 -20 -20 -20 -20 -20 -20 -20 -20 -20
-20 -20 -20 -20 -20 -20 -20 -20 -20 -20 -20 -20 -20 -20 -20 -20 -20 -20 -20 -20 -20 1 -20 -20 -20 -20 -20 -20 -20 -20 -20 -20 -20 -20 -20 -20 -20 -20 -20 -20 -20 -20 -20 -20
-20 -20 -20 -20 -20 -20 -20 -20 -20 -20 -20 -20 -20 -20 -20 -20 -20 -20 -20 -20 -20 13 -20 -20 -20 2 0 -20 -20 -20 -20 -20 -20 -20 -20 -20 -20 -20 -20 -20 -20 -20 -20 -20
-20 -20 -20 -20 -20 -20 -20 -20 -20 -20 -20 -20 -20 -20 -20 -20 -20 -20 -20 -20 -20 -20 -20 -5 11 -19 -20 -20 -20 -20 -20 -20 -20 -20 -20 -20 -20 -20 -20 -20 -20 -20 -20 -20
-20 -20 -20 -20 -20 -20 -20 -20 -20 -20 -20 -20 -20 -20 -20 -20 -20 -20 -20 -20 -20 2 9 -6 -18 -20 -20 -20 -20 -20 -20 -20 -20 -20 -20 -20 -20 -20 -20 -20 -20 -20 -20 -20
-20 -20 -20 -20 -20 -20 -20 -20 -20 -20 -20 -20 -20 -20 -20 -20 -20 -20 -20 -20 -20 -19 -20 -20 -20 -20 -20 -20 -20 -20 -20 -20 -20 -20 -20 -20 -20 -20 -20 -20 -20 -20 -20 -20
-20 -20 -20 -20 -20 -20 -20 -20 -20 -20 -20 -20 -20 -20 -20 -20 -20 -20 -20 -20 -20 -20 -20 -20 -20 -20 -20 -20 -20 -20 -20 -20 -20 -20 -20 -20 -20 -20 -20 -20 -20 -20 -20 -20
-20 -20 -20 -20 -20 -20 -20 -20 -20 -20 -20 -20 -20 -20 -20 -20 -20 -20 -20 -20 -20 -20 -20 -20 -20 -20 -20 -4 -20 -20 -20 -20 -20 -20 -20 -20 -20 -20 -20 -20 -20 -20 -20 -19
-20 -20 -20 -20 -20 -20 -20 -20 -20 -20 -20 -20 -20 -20 -20 -20 -20 -20 -20 -20 -20 -20 -20 -20 -1 -15 21 -11 -20 -19 -20 -20 -20 -20 -20 -20 -20 -20 -20 -20 -20 -20 -20 -18
-20 -20 -20 -20 -20 -20 -20 -20 -20 -20 -20 -20 -20 -20 -20 -20 -20 -20 -20 -20 -20 -20 -20 -20 -20 -20 -20 -20 -4 -20 -20 -20 -20 -20 -20 -20 -20 -20 -20 -20 -20 -20 -20 -20
-20 -20 -20 -20 -20 -20 -20 -20 -20 -20 -20 -20 -20 -20 -20 -20 -20 -20 -20 -20 -20 -20 -20 -20 -20 -20 -20 -5 -0 -20 -20 -20 -20 -20 -20 -20 -20 -20 -20 -20 -20 -20 -20 -20
-20 -20 -20 -20 -20 -20 -20 -20 -20 -20 -20 -20 -20 -20 -20 -20 -20 -20 -20 -20 -20 -20 -20 -20 -20 -20 7 5 -20 -20 -20 -20 -20 -20 -20 -20 -20 -20 -20 -20 -20 -20 -20 -16
-20 -20 -20 -20 -20 -20 -20 -20 -20 -20 -20 -20 -20 -20 -20 -20 -20 -20 -20 -20 -20 -20 -20 -20 4 11 -20 -20 -20 -20 -20 -20 -20 -20 -20 -20 -20 -20 -20 -20 -20 -20 -18 -17
-20 -20 -20 -20 -20 -20 -20 -20 -20 -20 -20 -20 -20 -20 -20 -20 -20 -20 -20 -20 -20 -20 -20 -20 -20 -20 -20 -20 -20 -20 -20 -20 -20 -20 -20 -20 -20 -20 -20 -20 -20 -20 -20 -19
-20 -20 -20 -20 -20 -20 -20 -20 -20 -20 -20 -20 -20 -20 -20 -20 -20 -20 -20 -20 -20 -20 -20 -20 -20 -20 -20 -20 -20 -20 -20 -20 -20 -20 -20 -20 -20 -20 -20 -20 -20 -20 -20 -20
-20 -20 -20 -20 -20 -20 -20 -20 -20 -20 -20 -20 -20 -20 -20 -20 -20 -20 -20 -20 -20 -20 -20 -20 -20 -20 -20 -20 -20 -20 -20 -20 -20 -20 -20 -20 -20 -20 -20 -20 -20 -20 -20 -20
-20 -20 -20 -20 -20 -20 -20 -20 -20 -20 -20 -20 -20 -20 -20 -20 -20 -20 -20 -20 -20 -20 -20 -20 -20 -20 -20 -20 -20 -20 -20 -20 -20 -20 -20 -20 -20 -20 -20 -20 -20 -20 -20 -20
-20 -20 -20 -20 -20 -20 -20 -20 -20 -20 -20 -20 -20 -20 -20 -20 -20 -20 -20 -20 -20 -20 -20 -20 -20 -20 -20 -20 -20 -20 -20 -20 -20 -20 -20 -20 -20 -20 -20 -20 -20 -20 -20 -20
-20 -20 -20 -20 -20 -20 -20 -20 -20 -20 -20 -20 -20 -20 -20 -20 -20 -20 -20 -20 -20 -20 -20 -20 -20 -20 -20 -20 -20 -20 -20 -20 -20 -20 -20 -20 -20 -20 -20 -20 -20 -20 -20 -20
-20 -20 -20 -20 -20 -20 -20 -20 -20 -20 -20 -20 -20 -20 -20 -20 -20 -20 -20 -20 -20 -20 -20 -20 -20 -20 -20 -20 -20 -20 -20 -20 -20 -20 -20 -20 -20 -20 -20 -20 -20 -20 -20 -20
-20 -20 -20 -20 -20 -20 -20 -20 -20 -20 -20 -20 -20 -20 -20 -20 -20 -20 -20 -20 -19 -20 -20 -20 -20 -20 -20 -20 -20 -20 -20 -20 -20 -20 -20 -20 -19 -20 -20 -20 -20 -20 -20 -20
-20 -20 -20 -20 -20 -20 -20 -20 -20 -20 -20 -20 -20 -20 -20 -20 -20 -20 -20 -20 -20 -20 -20 -20 -20 -20 -20 -20 -20 -20 -20 -20 -20 -20 -20 -20 -20 -20 -20 -20 -20 -20 -20 -20
-20 -20 -20 -20 -20 -20 -20 -20 -20 -20 -20 -20 -20 -20 -20 -19 10 2 -18 -20 -20 -20 -20 -20 -20 -20 -20 -20 -20 -20 -20 -20 -20 -20 -20 -19 8 -20 -20 -20 -20 -20 -20 -20

GFSCGP_prec_radar_012.txt.gz
Reflectivity
-20 -20 -20 -6 -20 -20 -20 -20 -20 -20 -20 -20 -20 -20 -20 -20 -20 -20 -20 -20 -20 -20 -20 6 20 19 14 -20 -20 20 -6 29 25 -20 5 -20 -20 13 -20 -20 -20 -20 -20 -20
-20 -20 -20 -20 -20 -20 -20 -20 -20 -20 -20 -20 -20 -20 -20 -20 -20 -20 -20 -20 -20 -20 -20 -20 -20 -20 -20 -20 -10 28 -20 -20 -20 -20 -20 -20 -20 -20 -20 -20 -20 -20 -20 -20
-20 -20 -20 -20 -20 -20 -20 -20 -20 -20 -20 -20 -20 -20 -20 -20 -20 -20 -20 -20 -20 -20 -20 -20 -20 -20 -1 0 -15 -20 -20 -20 -20 -20 -20 -20 -20 -20 -20 -20 -20 -20 -20 -20
-20 -20 -20 -20 -20 -20 -20 -20 -20 -20 -20 -20 -20 -20 -20 -20 -20 -20 -20 -20 -20 -20 -20 -20 -20 -20 -20 -20 -20 -20 -20 -20 -20 -20 -20 -20 -20 -20 -20 -20 -20 -20 -20 -20
-20 -20 -20 -20 -20 -20 -20 -20 -20 -20 -20 -20 -20 -20 -20 -20 -20 -20 -20 -20 -20 -20 -20 -12 6 -20 -20 -20 2 -20 -20 -20 -20 -20 -20 -20 -20 -20 -20 -20 -20 -20 -20 -20
-20 -20 -20 -20 -20 -20 -20 -20 -20 -20 -20 -20 -20 -20 -20 -20 -20 -20 -20 -20 -20 -20 -20 -20 -20 -20 -7 -5 -20 -20 -20 -20 -20 -20 -20 -20 -20 -20 -20 -20 -20 -20 -20 -20
-20 -20 -20 -20 -20 -20 -20 -20 -20 -20 -20 -20 -20 -20 -20 -20 -20 -20 -20 -20 -20 -20 -20 -20 -20 -6 -8 -18 -20 -20 -20 -20 -20 -20 -20 -20 -20 -20 -20 -20 -20 -20 -20 -20
-20 -20 -20 -20 -20 -20 -20 -20 -20 -20 -20 -20 -20 -20 -20 -20 -20 -20 -20 -20 -20 -20 -20 -20 -17 -20 -20 -20 -20 -20 -20 -20 -20 -20 -20 -20 -20 -20 -20 -20 -20 -20 -20 -20
-20 -20 -20 -20 -20 -20 -20 -20 -20 -20 -20 -20 -20 -20 -20 -20 -20 -20 -20 -20 -20 -20 -20 -20 -20 -20 -20 -20 -20 -20 -20 -20 -20 -20 -20 -20 -20 -20 -20 -20 -20 -20 -20 -20
-20 -20 -20 -20 -20 -20 -20 -20 -20 -20 -20 -20 -20 -20 -20 -20 -20 -20 -20 -20 -20 -20 -20 -20 -20 -20 -20 -20 -20 -20 -6 -18 -20 -20 -20 -20 -20 -20 -20 -20 -20 -20 -20 -20
-20 -20 -20 -20 -20 -20 -20 -20 -20 -20 -20 -20 -20 -20 -20 -20 -20 -20 -20 -20 -20 -20 -20 -20 -20 -20 -20 -20 -12 24 -16 -20 -20 -20 -20 -20 -20 -20 -20 -20 -20 -20 -20 -20
-20 -20 -20 -20 -20 -20 -20 -20 -20 -20 -20 -20 -20 -20 -20 -20 -20 -20 -20 -20 -20 -20 -20 -20 -20 -20 -15 18 19 -20 -20 4 7 -20 -20 -20 -20 -20 -20 -20 -20 -20 -20 -20
-20 -20 -20 -20 -20 -20 -20 -20 -20 -20 -20 -20 -20 -20 -20 -20 -20 -20 -20 -20 -20 -20 -20 -20 -20 -19 -11 -20 -20 -13 14 6 -20 -20 -20 -20 -20 -20 -20 -20 -20 -20 -20 -20
-20 -20 -20 -20 -20 -20 -20 -20 -20 -20 -20 -20 -20 -20 -20 -20 -20 -20 -20 -20 -20 -20 -20 -20 -20 -19 -20 -20 7 14 -13 -20 -20 -20 -20 -20 -20 -20 -20 -20 -20 -20 -20 -20
-20 -20 -20 -20 -20 -20 -20 -20 -20 -20 -20 -20 -20 -20 -20 -20 -20 -20 -20 -20 -20 -20 -20 -20 -20 -20 -19 19 13 -20 -20 -20 -20 -20 -20 -20 -20 -20 -20 -20 -20 -20 -20 -4
-20 -20 -20 -20 -20 -20 -20 -20 -20 -20 -20 -20 -20 -20 -20 -20 -20 -20 -20 -20 -20 -20 -20 -20 -20 -8 21 -16 -20 -20 -20 -20 -20 -20 -20 -20 -20 -20 -20 -20 -20 -20 -20 -20
-20 -20 -20 -20 -20 -20 -20 -20 -20 -20 -20 -20 -20 -20 -20 -20 -20 -20 -20 -20 -20 -20 -20 -20 -12 -19 -20 -20 -20 -20 -20 -20 -20 -20 -20 -20 -20 -20 -20 -20 -20 -20 -20 -20
-20 -20 -20 -20 -20 -20 -20 -20 -20 -20 -20 -20 -20 -20 -20 -20 -20 -20 -20 -20 -20 -20 -20 -20 -20 -20 -20 -20 -20 -20 -20 -20 -20 -20 -20 -20 -20 -20 -20 -20 -20 -20 -20 -20
-20 -20 -20 -20 -20 -20 -20 -20 -20 -20 -20 -20 -20 -20 -20 -20 -20 -20 -20 -20 -20 -20 -20 -20 -20 -20 -20 -20 -20 -20 -20 -20 -20 -20 -20 -20 -20 -20 -20 -20 -20 -20 -20 -20
-20 -20 -20 -20 -20 -20 -20 -20 -20 -20 -20 -20 -20 -20 -20 -20 -20 -20 -20 -20 -20 -20 -20 -20 -20 -20 -20 -20 -20 -20 -20 -20 -20 -20 -20 -20 -20 -20 -20 -20 -20 -20 -20 -20
-20 -20 -20 -20 -20 -20 -20 -20 -20 -20 -20 -20 -20 -20 -20 -20 -20 -20 -20 -20 -20 -20 -20 -20 -20 -20 -20 -20 -20 -20 -20 -20 -20 -20 -20 -20 -20 -20 -20 -20 -20 -20 -20 -20
-20 -20 -20 -20 -20 -20 -20 -20 -20 -20 -20 -20 -20 -20 -20 -20 -20 -20 -20 -20 -15 -18 -20 -20 -20 -20 -20 -20 -20 -20 -20 -20 -20 -20 -20 -20 -20 -20 -20 -20 -20 -20 -20 -20
-20 -20 -20 -20 -20 -20 -20 -20 -20 -20 -20 -20 -20 -20 -20 -20 -20 -20 -20 -20 -20 -20 -16 -20 -20 -20 -20 -20 -20 -20 -20 -20 -20 -20 -20 -20 -20 -20 -20 -20 -20 -20 -20 -20
-20 -20 -20 -20 -20 -20 -20 -20 -20 -20 -20 -20 -20 -20 -20 -20 -20 -9 -18 -17 -19 -13 -13 -6 -20 -20 -20 -20 -20 -20 -20 -20 -20 -20 -20 -20 -20 -20 -20 -20 -20 -20 -20 -20
-20 -20 -20 -20 -20 -20 -20 -20 -20 -20 -20 -20 -20 -20 -20 -20 -10 13 -19 -18 -20 -2 -20 -20 -20 -20 -20 -20 -20 -20 -20 -20 -20 -20 -20 -20 -20 -20 -20 -20 -20 -20 -20 -20
-20 -20 -20 -20 -20 -20 -20 -20 -20 -20 -20 -20 -20 -20 -20 -13 -4 16 23 8 14 3 -20 -20 -20 -20 -20 -20 -20 -20 -20 -20 -20 -20 -20 -16 -19 -20 -19 -20 -20 -20 -20 -20

GFSCGP_prec_radar_015.txt.gz
Reflectivity
-5 -11 -15 -20 -20 -20 -20 -20 -20 -20 -20 -20 -20 -20 -20 -20 -20 -20 -20 -20 -20 -20 -20 -20 -20 -20 -20 -20 -20 -20 -20 -20 -20 -20 -20 -20 -20 -20 -20 -20 -20 -20 -20 -20
-20 -17 -20 -20 -20 -20 -20 -20 -20 -20 -20 -20 -20 -20 -20 -20 -20 -20 -20 -20 -20 -20 -20 -20 -20 -20 -20 -8 10 -20 -17 -20 -20 -20 -20 -20 -20 -20 -20 -20 -20 -20 -20 -20
-15 -20 -20 -20 -20 -20 -20 -20 -20 -20 -20 -20 -20 -20 -20 -20 -20 -20 -20 -20 -20 -20 -20 -20 -20 -20 -9 -20 -20 -20 -20 -20 -20 -20 -20 -20 -20 -20 -20 -20 -20 -20 -20 -20
-20 -20 -20 -20 -20 -20 -20 -20 -20 -20 -20 -20 -20 -20 -20 -20 -20 -20 -20 -20 -20 -20 -20 -20 -20 -20 -20 -20 -20 -20 -20 -20 -20 -20 -20 -20 -20 -20 -20 -20 -20 -20 -20 -20
-20 -20 -20 -20 -20 -20 -20 -20 -20 -20 -20 -20 -20 -20 -20 -20 -20 -20 -20 -20 -20 -20 -20 -20 -20 -20 -20 -17 -20 -20 -12 -20 -20 -20 -20 -20 -20 -20 -20 -20 -20 -20 -20 -20
-20 -20 -20 -20 -20 -20 -20 -20 -20 -20 -20 -20 -20 -20 -20 -20 -20 -20 -20 -20 -20 -20 -20 -20 -20 -20 -20 -17 -20 -20 -20 -20 -20 -20 -20 -20 -20 -20 -20 -20 -20 -20 -20 -20
-20 -20 -20 -20 -20 -20 -20 -20 -20 -20 -20 -20 -20 -20 -20 -20 -20 -20 -20 -20 -20 -20 -20 -20 -20 -20 -20 -20 -20 -20 -20 -20 -20 -20 -20 -20 -20 -20 -20 -20 -20 -20 -20 -20
-20 -20 -20 -20 -20 -20 -20 -20 -20 -20 -20 -20 -20 -20 -20 -20 -20 -20 -20 -20 -20 -20 -20 -20 -20 -20 -20 -20 -20 -20 -20 -20 -20 -20 -20 -20 -20 -20 -20 -20 -20 -20 -20 -20
-20 -20 -20 -20 -20 -20 -20 -20 -20 -20 -20 -20 -20 -20 -20 -20 -20 -20 -20 -20 -20 -20 -20 -20 -20 -20 -20 -20 -20 -20 -20 -20 -20 -20 -20 -20 -20 -20 -20 -20 -20 -20 -20 -20
-20 -20 -20 -20 -20 -20 -20 -20 -20 -20 -20 -20 -20 -20 -20 -20 -20 -20 -20 -20 -20 -20 -20 -20 -20 -20 -20 -20 -20 -20 -20 -16 -11 -20 -20 -20 -20 -20 -20 -20 -20 -20 -20 -20
-20 -20 -20 -20 -20 -20 -20 -20 -20 -20 -20 -20 -20 -20 -20 -20 -20 -20 -20 -20 -20 -20 -20 -20 -20 -20 -20 -20 -20 -20 -10 22 -20 -19 -16 -20 -20 -20 -20 -20 -20 -20 -20 -20
-20 -20 -20 -20 -20 -20 -20 -20 -20 -20 -20 -20 -20 -20 -20 -20 -20 -20 -20 -20 -20 -20 -20 -20 -20 -20 -20 -20 -20 -18 19 -20 -10 11 -10 -20 -20 -20 -20 -20 -20 -20 -20 -20
-20 -20 -20 -20 -20 -20 -20 -20 -20 -20 -20 -20 -20 -20 -20 -20 -20 -20 -20 -20 -20 -20 -20 -20 -20 -20 -20 -10 2 -1 -18 11 4 -20 -20 -20 -20 -20 -20 -20 -20 -20 -20 -20
-20 -20 -20 -20 -20 -20 -20 -20 -20 -20 -20 -20 -20 -20 -20 -20 -20 -20 -20 -20 -20 -20 -20 -20 -20 -20 -8 -5 -19 6 10 1 -20 -20 -20 -20 -20 -20 -20 -20 -20 -20 -20 -20
-20 -20 -20 -20 -20 -20 -20 -20 -20 -20 -20 -20 -20 -20 -20 -20 -20 -20 -20 -20 -20 -20 -20 -20 -20 -15 -19 0 22 -20 -20 -20 -20 -20 -20 -20 -20 -20 -20 -20 -20 -20 -20 -20
-20 -20 -20 -20 -20 -20 -20 -20 -20 -20 -20 -20 -20 -20 -20 -20 -20 -20 -20 -20 -20 -20 -20 -20 -20 -20 21 -15 -20 -20 -20 -20 -20 -20 -20 -20 -20 -20 -20 -20 -20 -20 -20 -20
-20 -20 -20 -20 -20 -20 -20 -20 -20 -20 -20 -20 -20 -20 -20 -20 -20 -20 -20 -20 -20 -20 -20 -20 -20 -18 -20 -20 -20 -20 -20 -20 -20 -20 -20 -20 -20 -20 -20 -20 -20 -20 -20 -20
-20 -20 -20 -20 -20 -20 -20 -20 -20 -20 -20 -20 -20 -20 -20 -20 -20 -20 -20 -20 -20 -20 -20 -20 -20 -20 -20 -20 -20 -20 -20 -20 -20 -20 -20 -20 -20 -20 -20 -20 -20 -20 -20 -20
-20 -20 -20 -20 -20 -20 -20 -20 -20 -20 -20 -20 -20 -20 -20 -20 -20 -20 -20 -20 -20 -20 -20 -20 -20 -20 -20 -20 -20 -20 -20 -20 -20 -20 -20 -20 -20 -20 -20 -20 -20 -20 -20 -20
-20 -20 -20 -20 -20 -20 -20 -20 -20 -20 -20 -20 -20 -20 -20 -20 -20 -20 -20 -20 -20 -20 -20 -20 -20 -18 -19 -20 -20 -20 -20 -20 -20 -20 -20 -20 -20 -20 -20 -20 -20 -20 -20 -20
-20 -20 -20 -20 -20 -20 -20 -20 -20 -20 -20 -20 -20 -20 -20 -20 -20 -20 -20 -20 -20 -20 -20 -20 9 7 -20 -20 -20 -20 -20 -20 -20 -20 -20 -20 -20 -20 -20 -20 -20 -20 -20 -20
-20 -20 -20 -20 -20 -20 -20 -20 -20 -20 -20 -20 -20 -20 -20 -20 -20 -20 -20 -20 -20 -20 -20 -20 -20 -20 -20 -20 -20 -20 -20 -20 -20 -20 -20 -20 -20 -20 -20 -20 -20 -20 -20 -20
-20 -20 -20 -20 -20 -20 -20 -20 -20 -20 -20 -20 -20 -20 -20 -20 -20 -20 -20 -20 -20 -3 -20 10 -15 -20 -20 -20 -20 -20 -20 -20 -20 -20 -20 -20 -20 -20 -20 -20 -20 -20 -20 -20
-20 -20 -20 -20 -20 -20 -20 -20 -20 -20 -20 -20 -20 -20 -20 -20 -20 -20 -20 -20 -17 -17 -6 -2 11 -20 -20 -20 -20 -20 -20 -20 -20 -20 -20 -20 -20 -20 -20 -20 -20 -20 -20 -20
-20 -20 -20 -20 -20 -20 -20 -20 -20 -20 -20 -20 -20 -20 -20 -20 -20 -20 -20 -20 -19 -20 21 20 -20 -20 -20 -20 -20 -20 -20 -20 -20 -20 -20 -20 -20 -20 -17 -20 -20 -20 -20 -20
-20 -20 -20 -20 -20 -20 -20 -20 -20 -20 -20 -20 -20 -20 -20 -20 -20 -20 -20 -8 -13 33 25 -8 -17 -20 -17 -15 -20 -20 -20 -20 -20 -20 -20 -20 -20 -20 1 -13 -20 -20 -20 -20

GFSCGP_prec_radar_018.txt.gz
Reflectivity
-13 -11 -17 -1 -20 -20 -20 -20 -20 -20 -20 -20 -20 -20 -20 -20 -20 -20 -20 -20 -20 -20 -20 -20 -20 -20 -20 -20 -20 -20 -11 -20 -20 -20 -20 -20 -20 -20 -20 -20 -20 -20 -20 -20
-14 7 -20 -20 -20 -20 -20 -20 -20 -20 -20 -20 -20 -20 -20 -20 -20 -20 -20 -20 -20 -20 -20 -20 -20 -20 -20 -20 -20 -14 -20 -20 -20 -20 -20 -20 -20 -20 -20 -20 -20 -20 -20 -20
10 -3 -2 -1 -20 -20 -20 -20 -20 -20 -20 -20 -20 -20 -20 -20 -20 -20 -20 -20 -20 -20 -20 -20 -20 -20 -16 -13 -20 -20 -20 -20 -20 -20 -20 -20 -20 -20 -20 -20 -20 -20 -20 -20
-7 -20 -19 -20 -20 -20 -20 -20 -20 -20 -20 -20 -20 -20 -20 -20 -20 -20 -20 -20 -20 -20 -20 -20 -20 -20 -20 -20 -20 -20 -20 -20 -20 -20 -20 -20 -20 -20 -20 -20 -20 -20 -20 -20
-20 -16 -20 -20 -20 -20 -20 -20 -20 -20 -20 -20 -20 -20 -20 -20 -20 -20 -20 -20 -20 -20 -20 -20 -20 -20 -20 -20 -20 -20 -20 -20 -20 -20 -20 -20 -20 -20 -20 -20 -20 -20 -20 -20
-20 -17 -20 -20 -20 -20 -20 -20 -20 -20 -20 -20 -20 -20 -20 -20 -20 -20 -20 -20 -20 -20 -20 -20 -20 -20 -20 -20 -20 -20 -20 -20 -20 -20 -20 -20 -20 -20 -20 -20 -20 -20 -20 -20
-20 -20 -20 -20 -20 -20 -20 -20 -20 -20 -20 -20 -20 -20 -20 -20 -20 -20 -20 -20 -20 -20 -20 -20 -20 -20 -20 -20 -20 -20 -20 -20 -20 -20 -20 -20 -20 -20 -20 -20 -20 -20 -20 -20
-20 -20 -20 -20 -20 -20 -20 -20 -20 -20 -20 -20 -20 -20 -20 -20 -20 -20 -20 -20 -20 -20 -20 -20 -20 -20 -20 -20 -20 -20 -20 -20 -20 -20 -20 -20 -14 -19 -10 -20 -20 -20 -20 -20
-20 -20 -20 -20 -20 -20 -20 -20 -20 -20 -20 -20 -20 -20 -20 -20 -20 -20 -20 -20 -20 -20 -20 -20 -20 -20 -20 -20 -20 -20 -20 -20 -20 -20 -19 31 -19 -20 -20 -20 -20 -20 -20 -20
-20 -20 -20 -20 -20 -20 -20 -20 -20 -20 -20 -20 -20 -20 -20 -20 -20 -20 -20 -20 -20 -20 -20 -20 -20 -20 -20 -20 -20 -20 -20 -20 -20 -15 29 -2 -20 -20 -20 -20 -20 -20 -20 -20
-20 -20 -20 -20 -20 -20 -20 -20 -20 -20 -20 -20 -20 -20 -20 -20 -20 -20 -20 -20 -20 -20 -20 -20 -20 -20 -20 -20 -20 -20 -20 -20 -20 16 -20 -20 -20 -20 -20 -20 -20 -20 -20 -20
-20 -20 -20 -20 -20 -20 -20 -20 -20 -20 -20 -20 -20 -20 -20 -20 -20 -20 -20 -20 -20 -20 -20 -20 -20 -20 -20 -20 -20 -20 -20 -20 -14 -3 -19 -20 -20 -20 -20 -20 -20 -20 -20 -20
-20 -20 -20 -20 -20 -20 -20 -20 -20 -20 -20 -20 -9 -20 -20 -20 -20 -20 -20 -20 -20 -20 -20 -20 -20 -20 -20 -20 -20 -20 -20 -12 26 -17 -20 -20 -20 -20 -20 -20 -20 -20 -20 -20
-20 -20 -20 -20 -20 -20 -20 -20 -20 -20 -20 -20 -20 -20 -20 -20 -20 -20 -20 -20 -20 -20 -20 -20 -20 -20 -20 -20 -20 -20 -10 20 -19 -20 -20 -20 -20 -20 -20 -20 -20 -20 -20 -20
-20 -20 -20 -20 -20 -20 -20 -20 -20 -20 -20 -20 -20 -20 -20 -20 -20 -20 -20 -20 -20 -20 -20 -20 -20 -20 -20 -20 -20 -17 13 -20 -20 -20 -20 -20 -20 -20 -20 -20 -20 -20 -20 -20
-20 -20 -20 -20 -20 -20 -20 -20 -20 -20 -20 -20 -20 -20 -20 -20 -20 -20 -20 -20 -20 -20 -20 -20 -20 -20 -20 -20 -20 17 -20 -20 -20 -20 -20 -20 -20 -20 -20 -20 -20 -20 -20 -20
-20 -20 -20 -20 -20 -20 -20 -20 -20 -20 -20 -20 -20 -20 -20 -20 -20 -20 -20 -20 -20 -20 -20 -20 -20 -20 -20 -20 -11 -20 -20 -20 -20 -20 -20 -20 -20 -20 -20 -20 -20 -20 -20 -20
-20 -20 -20 -20 -20 -11 -20 -20 -20 -20 -20 -20 -20 -20 -20 -20 -20 -20 -20 -20 -20 -20 -20 -20 -20 -20 -20 -20 -6 -12 -20 -20 -20 -20 -20 -20 -20 -20 -20 -20 -20 -20 -20 -20
-20 -20 -20 -13 -20 -20 -20 -20 -20 -20 -20 -20 -20 -20 -20 -20 -20 -20 -20 -20 -20 -20 -20 -20 -20 -20 -20 -20 -20 -19 8 -14 -20 -20 -20 -20 -20 -20 -20 -20 -20 -20 -20 -20
-20 -20 -20 -20 -17 -20 -20 -20 -20 -20 -20 -20 -20 -20 -20 -20 -20 -20 -20 -20 -20 -20 -20 -20 -20 -20 -20 -20 -5 12 -20 -20 -20 -20 -20 -20 -20 -20 -20 -20 -20 -20 -20 -20
-20 -20 13 -20 2 -20 -20 -20 -20 -20 -20 -20 -20 -20 -20 -20 -20 -20 -20 -20 -20 -20 -20 -20 -20 -20 -20 -7 3 2 -20 -20 -20 -20 -20 -20 -20 -20 -20 -20 -20 -20 -20 -20
-20 -20 -20 -20 8 -20 -20 -20 -5 -20 -20 -20 -20 -20 -20 -20 -20 -20 -20 -20 -20 -20 -20 -20 -20 -20 -7 -19 20 -10 -13 -6 -0 -20 -20 -20 -20 -20 -20 -20 -20 -0 -20 -20
-20 -20 -20 -20 -20 -20 -20 -20 -20 -20 -20 -20 -20 -20 -20 -20 -20 -20 -20 -20 -20 -20 -20 -20 -20 -4 12 18 -20 -3 3 -1 -19 -20 -20 -20 -20 -20 -20 -20 -4 2 -20 -20
-20 -20 -20 -20 -20 -20 -20 -20 -20 -20 -20 -20 -20 -20 -20 -20 -20 -20 -20 -20 -20 -20 -20 2 -16 27 30 2 -17 7 9 -5 -16 -3 -14 -20 -20 -20 -20 -20 -20 0 -18 -20
-20 -20 -20 -20 -20 -20 -20 -20 -20 -20 -20 -20 -20 -20 -20 -20 -20 -20 -20 -20 -20 -20 -18 3 31 15 4 13 10 7 8 -2 -1 -10 -20 -20 -20 -20 -20 -20 -11 -11 -20 -13
-20 -20 -20 -20 -20 -20 -20 -20 -20 -20 -20 -20 -20 -20 -20 -20 -20 -20 -20 -20 -20 -20 12 29 23 19 15 11 7 6 4 10 -13 -20 -19 -20 -20 -13 -11 -8 -1 -20 -20 -20

GFSCGP_prec_radar_021.txt.gz
Reflectivity
-20 -6 -7 8 5 1 -4 5 -20 -20 -20 -20 -20 -20 -20 -20 -20 -20 -20 -20 -20 -20 -20 -20 -20 -20 -20 -20 -20 -20 33 13 11 -1 -20 -20 -20 -20 -20 -20 -20 -20 -20 -20
5 -9 12 -4 -15 -20 -20 -12 -9 -20 -20 -20 -20 -20 -20 -20 -20 -20 -20 -20 -20 -20 -20 -20 -20 -20 -20 -20 -20 -3 -0 2 -20 -20 -20 -20 -20 -20 -20 -20 -20 -20 -20 -20
-6 15 -20 -7 -16 -12 -20 -13 8 -20 -20 -20 -6 5 -20 -20 -20 -20 -20 -20 -20 -20 -20 -20 -20 -20 -20 -20 -20 -11 -20 -20 -20 -20 -20 -20 -20 -20 -20 -20 -20 -20 -20 -20
9 7 -16 -20 -20 -8 -12 -16 -3 -20 -20 -20 -20 3 20 -20 -20 -20 -20 -20 -20 -20 -20 -20 -20 -20 -20 -20 -20 -20 -20 -20 -20 -20 -20 -20 -20 -20 -20 -20 -20 -20 -20 -20
10 -17 -10 -1 17 -20 25 -4 -20 -20 -7 30 3 -20 -1 15 -20 -20 -20 -20 -20 -20 -20 -20 -20 -20 -20 -20 -20 -20 -20 -20 -20 -20 -20 -20 -20 -20 -20 -20 -20 -20 -20 -20
23 -20 -20 -0 -20 -20 -20 -20 -20 -20 -20 -20 -19 19 11 6 -17 -20 -20 -20 -20 -20 -20 -20 -20 -20 -20 -20 -20 -20 -20 -20 -20 -20 -20 -20 -20 -20 -20 -20 -20 -20 -20 -20
-16 -20 -13 -20 -20 -20 -20 -20 -16 0 11 -20 3 -20 -20 15 6 -20 -20 -20 -20 -20 -20 -20 -20 -20 -20 -20 -20 -20 -20 -20 -20 -20 -20 -20 -20 -20 -20 24 -13 -20 -20 -20
-18 -9 -20 -20 -20 -18 -20 -19 -2 -14 -20 -20 -19 -20 -20 -20 -20 -20 -20 -20 -20 -20 -20 -20 -20 -20 -20 -20 -20 -20 -20 -20 -20 -20 -20 -20 -20 -20 26 -16 -20 -20 -20 -20
7 21 -15 -20 -20 -20 -20 -20 -20 -20 -20 -20 -20 -20 -20 -20 -20 -20 -20 -20 -20 -20 -20 -20 -20 -20 -20 -20 -20 -20 -20 -20 -20 -20 -20 -20 -20 10 -20 -20 -20 -20 -20 -20
-20 -20 -20 -20 -20 -20 -20 -20 -20 -20 -20 -20 -20 -20 -20 -20 -20 -20 -20 -20 -20 -20 -20 -20 -20 -20 -20 -20 -20 -20 -20 -20 -20 -20 -20 -20 -10 -10 -14 -19 -20 -20 -20 -20
-20 -20 -20 -20 -20 -20 -20 -20 -20 -20 -20 -20 -20 -20 -20 -20 -20 -20 -20 -20 -20 -20 -20 -20 -20 -20 -20 -20 -20 -20 -20 -20 -20 -20 -20 -17 -20 -6 -20 -20 -20 -20 -20 -20
-20 -20 -20 -20 -20 -20 -20 -20 -20 -20 -20 -20 -20 -20 -20 -20 -20 -20 -20 -20 -20 -20 -20 -20 -20 -20 -20 -20 -20 -20 -20 -20 -20 -20 -20 -20 2 -20 -20 -20 -20 -20 -20 -20
-20 -20 -20 -20 -20 -20 -20 -20 -20 -20 -20 -20 -20 -20 -20 -20 -20 -20 -20 -20 -20 -20 -20 -20 -20 -20 -20 -20 -20 -20 -20 -20 -20 -20 -16 -4 -20 -20 -20 -20 -20 -20 -20 -20
-20 -20 -20 -20 -1 -20 -20 -20 -20 -20 -20 -20 -20 -20 -20 -20 -20 -20 -20 -20 -20 -20 -20 -20 -20 -20 -20 -20 -20 -20 -20 -20 -20 -17 -4 -20 -20 -20 -20 -20 -20 -20 -20 -20
-20 -20 -20 -20 -20 -20 -20 -20 -20 -20 -20 -20 -20 -20 -20 -20 -20 -20 -20 -20 -20 -20 -20 -20 -20 -20 -20 -20 -20 -20 -20 -20 -17 -18 -20 -20 -20 -20 -20 -20 -20 -20 -20 -20
-20 -20 -20 -20 -20 -20 -20 -20 -20 -20 -20 -20 -20 -20 -20 -20 -20 -20 -20 -20 -20 -20 -20 -20 -20 -20 -20 -20 -20 -20 -20 -20 -20 -20 -20 -20 -20 -20 -20 -20 -20 -20 -20 -20
-20 -20 -20 -20 -20 -20 -20 -20 -20 -20 -20 -20 -20 -20 -20 -20 -20 -20 -20 -20 -20 -20 -20 -20 -20 -20 -20 -20 -20 -20 -20 -20 -9 -20 -10 -18 -7 -10 -20 -20 -20 -20 -20 -20
-20 -20 -20 -20 -20 -20 -20 -20 -20 -20 -20 -20 -20 -20 -20 -20 -20 -20 -20 -20 -20 -20 -20 -20 -20 -20 -20 -20 -20 -20 -20 -19 -20 -16 -1 10 -20 -20 -20 -20 -20 -20 -20 -20
-20 -20 -20 -16 -20 -20 -20 -20 -20 -20 -20 -20 -20 -20 -20 -20 -20 -20 -20 -20 -20 -20 -20 -20 -20 -20 -20 -20 -20 -20 -20 -20 -18 -6 -10 -20 -20 -6 -5 -20 -20 -20 -20 -20
-20 -20 -20 -20 -20 -20 -20 -20 -20 -20 -20 -20 -20 -20 -20 -20 -20 -20 -20 -20 -20 -20 -20 -20 -20 -20 -20 -20 -20 -20 -19 27 19 -13 -18 5 6 -8 -7 -18 -20 -20 -20 -20
-20 -20 -4 -20 -9 -20 -20 -20 -20 -20 -20 -20 -20 -20 -20 -20 -20 -20 -20 -20 -20 -20 -20 -20 -20 -20 -20 -20 -19 -19 -17 -2 16 17 6 9 7 5 -4 -11 -20 -6 -20 -20
-20 -20 -20 -20 -9 -20 -20 -20 -20 -20 -20 -20 -20 -20 -20 -20 -20 -20 -20 -20 -20 -20 -20 -20 -20 -20 -20 -12 -4 9 23 12 11 16 18 12 8 2 -15 -5 8 -6 -20 -2
-20 -20 -20 -20 -20 -20 -20 -20 -20 -20 -20 -20 -20 -20 -20 -20 -20 -20 -20 -20 -20 -20 -20 -20 -20 -20 -20 4 25 31 18 13 11 15 13 12 4 -6 8 4 -4 -20 -20 -20
-20 -20 -20 -20 -20 -20 -20 -20 -20 -20 -20 -20 -20 -20 -20 -20 -20 -20 -20 -20 -20 -20 -20 -20 -20 -20 -12 20 10 8 8 25 17 15 7 1 6 4 1 5 -1 -11 -3 2
-20 -20 -20 -20 -20 -20 -20 -20 -20 -20 -20 -20 -20 -20 -20 -20 -20 -20 -20 -20 -20 -20 -20 -20 -20 5 18 15 13 15 17 13 10 5 8 6 5 1 -0 -18 -20 -17 -20 2
-20 -20 -20 -20 -20 -20 -20 -20 -20 -20 -20 -20 -20 -20 -20 -20 -20 -20 -20 -20 -20 -19 -20 -3 4 2 18 23 15 11 12 10 14 7 4 6 2 -14 -17 -10 -20 -20 -20 -20

GFSCGP_prec_radar_024.txt.gz
Reflectivity
-20 -20 -20 -15 12 3 -5 -20 10 -4 -20 -20 -20 -20 -20 -20 -20 -20 22 -20 -20 -20 -20 -20 -20 -20 -20 -20 -20 -20 -20 29 -20 -17 -20 -20 -20 -20 -20 -20 -20 -20 -20 -20
-20 -18 3 -6 -18 -13 13 -1 7 -20 -20 -20 -20 -20 -20 -20 -20 -20 -20 -20 -20 -20 -20 -20 -20 -20 -20 -20 -20 -4 -14 8 -20 -20 -18 -19 -20 -20 -20 -20 -20 -20 -20 -20
-19 6 -10 -19 -20 -20 -10 10 -14 -11 -20 -20 -20 -20 -20 -20 -20 -20 -20 -20 -20 -20 -20 -20 -20 -20 -20 -20 -20 -20 -20 -15 -20 -20 -17 -20 -20 -20 -20 -20 -20 -20 -20 -20
-8 11 -20 -1 -8 8 2 -18 -19 -7 -11 -20 -18 13 8 25 -14 -20 -20 -20 -20 -20 -20 -20 -20 -20 -20 -20 18 -20 -20 -20 -20 -20 -20 -20 -20 -20 -20 -20 -20 -20 -20 -20
14 -2 -19 -20 -20 -8 12 -15 -20 -20 -20 -20 -2 -8 -4 4 -3 -19 -20 -20 -20 -20 -20 -20 -20 -20 10 -20 -20 7 -20 -20 -20 -20 -20 -20 -20 -20 -20 -20 -20 -20 -19 -20
-6 -20 17 18 9 -17 -19 -20 -20 -20 -20 -19 11 20 -18 -14 5 21 9 -20 -20 -20 -20 -20 -13 -20 -20 -20 -20 -20 -20 -20 -20 -20 -20 -20 -20 -20 -20 -20 -20 -20 -3 -20
-20 -20 -17 -18 -20 -20 -20 -20 -20 4 -20 -20 -18 2 10 1 15 7 32 -11 -20 -20 -20 -20 -20 -20 -20 -20 -20 -20 -20 -20 -20 -20 -20 -20 -20 -20 -20 -20 -20 -17 -16 -20
-20 -20 -19 -20 -20 -11 6 -20 -20 24 12 -2 2 -13 -20 -20 -20 -20 -18 -20 -20 -20 -20 -20 -20 -20 -20 -20 -20 -20 -20 -20 -20 -20 -20 -20 -20 -20 -20 -20 -20 -18 -10 -20
-18 -10 33 -20 -20 -20 -19 -20 -15 7 -19 -20 -20 -20 -20 -20 -20 -20 -20 -20 -20 -20 -20 -20 -20 -20 -20 -20 -20 -20 -20 -20 -20 -20 -20 -20 -20 -20 -20 -20 -20 -20 -20 -20
21 36 17 -10 -20 -20 -20 -20 -20 -20 -20 -20 -20 -18 8 -19 -20 -20 -20 -20 -20 -20 -20 -20 -20 -20 -20 -20 -20 -20 -20 -20 -20 -20 -20 -20 -20 -20 -13 -20 -20 -20 -19 -20
-16 12 3 -20 -20 -20 -20 -20 -20 -20 -20 -20 -20 -19 -20 -20 -20 -20 -20 -20 -20 -20 -20 -20 -20 -20 -20 -20 -20 -20 -20 -20 -20 -20 -20 -20 -20 -18 -18 -20 -20 -20 -20 -20
-20 -20 -20 -20 -20 -20 -20 -20 -20 -20 -20 -20 -20 -20 -20 -20 -20 -20 -20 -20 -20 -20 -20 -20 -20 -20 -20 -20 -20 -20 -20 -20 -20 -20 -20 -20 -20 -4 -20 -20 -20 -20 -20 -20
-20 -20 -20 -20 -20 -20 -20 -20 -20 -20 -20 -20 -20 -20 -20 -20 -20 -20 -20 -20 -20 -20 -20 -20 -20 -20 -20 -20 -20 -20 -20 -20 -20 -20 -20 -20 -20 -7 2 -20 -20 -20 -20 -20
-20 -20 -20 -20 -20 -20 -4 -20 -20 -20 -20 -20 -20 -20 -20 -20 -20 -20 -20 -20 -20 -20 -20 -20 -20 -20 -20 -20 -20 -20 -20 -20 -20 -20 -20 -20 -19 -7 -20 -20 -20 -20 -18 -20
-20 -20 -20 -20 -20 -3 -20 -20 -20 -20 -20 -20 -20 -20 -20 -20 -20 -20 -20 -20 -20 -20 -20 -20 -20 3 -20 -20 -20 -20 -20 -20 -20 -20 -20 -20 -15 -18 10 -20 -20 -17 -20 -20
-20 -20 -20 -20 -20 -20 -20 -20 -20 -20 -20 -20 -20 -20 -20 -20 -20 -20 -20 -20 -20 -20 -20 -20 -20 -20 -19 -20 -20 -20 -20 -20 -20 -20 -20 -15 2 13 -19 11 -20 -20 -20 -20
-20 -20 -20 -20 -20 -20 -20 -20 -20 -20 -20 -20 -20 -20 -20 -20 -20 -20 -20 -20 -20 -20 -20 -20 -20 -20 6 -20 -20 -20 -20 -20 -20 -20 -17 -9 11 -19 17 -6 -20 -15 -8 -17
-20 -20 -20 -20 -20 -20 -20 -20 -20 -20 -20 -20 -20 -20 -20 -20 -20 -20 -20 -20 -20 -20 -20 -20 -20 -20 -20 -20 -20 -20 -20 -20 -20 -16 7 2 3 1 13 2 9 10 7 1
-20 -20 -20 -20 -20 -20 -20 -20 -20 -20 -20 -20 -20 -20 -20 -20 -20 -20 -20 -20 -20 -20 -20 -20 -20 -20 -20 -20 -20 -20 -20 -20 -19 5 -16 25 20 13 -2 9 17 15 10 5
-20 -20 -20 -20 -20 -20 -20 -20 -20 -20 -20 -20 -20 -20 -20 -20 -20 -20 -20 -20 -20 -20 -20 -20 -20 -20 -20 -20 -20 -20 -20 -20 -20 -16 14 -3 15 19 20 15 17 12 9 8
-20 -20 -20 -20 -20 -20 -20 -20 -20 -20 -20 -20 -20 -20 -20 -20 -20 -20 -20 -20 -20 -20 -20 -20 -20 -20 -20 -20 -20 -20 -20 -19 13 23 19 15 16 21 16 12 12 1 -3 3
-20 -20 -20 -20 -20 -20 -20 -20 -20 -20 -20 -20 -20 -20 -20 -20 -20 -20 -20 -20 -20 -20 -20 -20 -20 -20 -20 -20 -20 -20 -7 26 18 4 21 18 15 16 10 8 5 -4 1 6
-20 -20 -20 -20 -20 -20 -20 -20 -20 -20 -20 -20 -20 -20 -20 -20 -20 -20 -20 -20 -20 -20 -20 -20 -20 -20 -20 -20 -20 13 -6 -15 18 23 18 11 8 6 7 -1 2 1 -12 -20
-20 -20 -20 -20 -20 -20 -20 -20 -20 -20 -20 -20 -20 -20 -20 -20 -20 -20 -20 -20 -20 -20 -20 -20 -20 -20 -20 -18 -6 20 19 4 -5 -3 -6 2 4 -17 -19 -20 -20 -20 -20 -20
-20 -20 -20 -20 -20 -20 -20 -20 -20 -20 -20 -20 -20 -20 -20 -20 -20 -20 -20 -20 -20 -20 -20 -20 -20 -10 -8 16 10 -1 -10 -9 2 10 3 -20 -16 -20 -20 -20 -20 -20 -20 -20
-20 -20 -20 -20 -20 -20 -20 -20 -20 -20 -20 -20 -20 -20 -20 -20 -20 -20 -20 -20 -20 -20 -17 -20 -20 -20 -20 -20 -20 -20 -18 -18 -18 -20 -20 -20 -20 -20 -20 -20 -20 -20 -20 -20

GFSCGP_prec_radar_027.txt.gz
Reflectivity
-20 -20 -20 -20 18 -20 -20 -20 -20 -20 -20 -20 -20 -17 -20 -20 -20 -20 -20 26 -19 -20 -20 -20 -20 -20 -20 -20 -20 -20 -20 -20 -20 -20 -20 -20 -20 -20 -20 -20 -20 -20 -20 -20
-20 -20 -20 -19 3 -2 -17 -14 -15 -20 -20 -20 -13 -16 -20 -20 -20 -20 -20 -20 -20 -20 -20 -20 -20 -20 -20 -20 -20 -20 -20 -20 -20 -20 -20 -20 -20 -20 -20 -20 -20 -20 -20 -20
-20 -20 -13 9 -20 -20 -7 -20 -8 -18 -20 -20 -20 -20 -20 -20 -20 -20 -20 -20 -20 -20 -20 -20 -20 -20 -20 -20 -20 -17 -14 -20 -20 -20 -20 -20 -20 -20 -20 -20 -20 -20 -20 -20
-20 -20 -20 -20 -20 -16 -19 -8 -20 -20 -14 -20 -20 -20 -20 -20 -15 -16 -20 -20 -20 -20 -20 -20 -20 -20 -20 -20 -20 -18 -20 -20 -20 -20 -20 -20 -20 -20 -20 -20 -20 -20 -20 -20
-20 -5 -20 -20 -20 -20 -20 -20 -20 -20 -20 -2 -20 -20 -20 -0 8 5 -20 -20 -20 -20 -20 -20 -20 -20 -20 -20 -20 -20 12 -20 -20 -20 -20 -20 -20 -20 -20 -20 -20 -20 -20 -20
-20 -20 -20 -20 -20 -20 -20 -20 -20 -3 -20 -20 -20 -20 -2 1 -1 -20 -12 -9 -19 -20 -20 -20 -20 -20 -20 -20 5 -20 -20 -20 -20 -20 -20 -20 -20 -20 -20 -20 -20 -20 -20 -20
-20 -20 -18 8 -8 -20 -12 -20 -20 -20 -20 -20 -20 -20 7 -20 -20 -20 14 -18 -19 -20 -20 -20 -20 -20 -20 -20 -16 -15 -20 -20 -20 -20 -20 -20 -20 -20 -20 -20 -20 -20 -12 -20
-20 -20 -20 -20 -20 -20 -20 -20 -20 -20 -20 -20 1 -2 -10 -20 -20 -20 -20 -18 -20 -20 -20 -20 -20 -20 -20 -20 -20 -11 -20 -20 -20 -20 -20 -20 -20 -20 -20 -20 -20 -20 -20 -20
-20 -20 -19 -19 -20 -20 -20 -20 -20 -20 -20 -1 -20 1 -20 -20 -20 -20 -20 -20 -20 -20 -20 -20 -20 -20 -20 -20 -20 -20 -20 -20 -20 -20 -20 -20 -20 -20 -20 -19 -12 -16 -20 -20
-20 -20 -17 12 1 -20 -20 -20 -10 -20 -20 -20 -20 -20 -20 -20 -20 -20 -20 -20 -20 -20 -20 -20 -20 -20 -20 -20 -20 -20 -20 -20 -20 -20 -20 -20 -20 -20 -20 -20 -20 -16 4 -19
-20 -20 8 6 -17 -20 -20 -20 -20 -20 -20 -20 -20 -20 -20 -20 -20 -20 -20 -20 -20 -20 -20 -20 -20 -20 -20 -20 -20 -20 -20 -20 -20 -20 -20 -20 -20 -20 -20 -17 -20 1 -17 23
-20 -20 -20 -16 -20 -20 -20 -20 10 -20 -20 -20 -20 -20 -20 -20 -20 -20 -20 -20 -20 -20 -20 -20 -20 -20 -20 -20 -20 -20 -20 -20 -20 -20 -20 -20 -20 -20 -9 -16 -18 -18 -19 -20
-20 -20 -20 -20 -20 -20 -20 -20 -20 -20 -20 -20 -20 -20 -20 -20 -20 -20 -20 -20 -20 -20 -20 -20 -20 -20 -20 -20 -20 -20 -20 -20 -20 -20 -20 -20 -20 -9 -13 -20 -16 -16 -9 -20
-20 -20 -20 -20 -20 -20 -20 -20 -20 -20 -20 -20 -20 -20 -20 -20 -20 -20 -20 -20 -20 -20 -20 -20 -20 -20 -20 -20 -20 -20 -20 -20 -20 -20 -20 -20 -20 -19 -19 -10 -20 -11 -20 -16
-20 -20 -20 -20 -20 -20 -20 -20 -5 -20 -20 -20 -20 -20 -20 -20 -20 -20 -20 -20 -20 -20 -20 -20 -20 -20 -20 -20 -14 -20 -18 -20 -20 -20 -20 -20 -20 -20 -20 -5 -7 -12 -20 -15
-20 -20 -20 -20 -20 -20 -20 -20 -20 -20 -20 -20 -20 -20 -20 -20 -20 -20 -20 -20 -20 -20 -20 -20 -20 -20 -12 -20 -0 -20 -20 -20 -20 -20 -20 -20 -18 -20 -20 -20 -20 12 -12 -20
-20 -20 -20 -20 -20 -20 -20 -20 -20 -20 -20 -20 -20 -20 -20 -20 -20 -20 -20 -20 -20 -20 -20 -20 -20 -20 -20 -5 -20 -20 -20 -20 -20 -20 -20 -20 -20 -20 -20 -3 15 12 -4 7
-20 -20 -20 -20 -20 -20 -20 -20 -20 -20 -20 -20 -20 -20 -20 -20 -20 -20 -20 -20 -20 -20 -20 -20 -20 -20 -20 -20 -20 -20 -20 -20 -20 -20 -20 -20 -18 -20 -16 11 16 18 15 9
11 -20 -20 -20 -20 -20 -20 -20 -20 -20 -20 -20 -20 -20 -20 -20 -20 -20 -20 -20 -20 -20 -20 -20 -20 -20 -20 -20 -20 -20 -20 -20 -20 -20 -20 -19 -20 12 22 19 8 17 17 11
-20 -20 -20 -20 -20 -20 -20 -20 -20 -20 -20 -20 -20 -20 -20 -20 -20 -20 -20 -20 -20 -20 -20 -20 -20 -20 -20 -20 -20 -20 -20 -20 -20 -19 -19 -20 12 23 17 12 5 4 -8 -3
-20 -20 -20 -20 -20 -20 -20 -20 -20 -20 -20 -20 -20 -20 -20 -20 -20 -20 -20 -20 -20 -20 -20 -20 -20 -20 -20 -20 -20 -11 3 3 -12 -16 6 36 30 18 11 -5 -6 5 -9 -20
-20 -20 -20 -20 -20 -20 -20 -20 -20 -20 -20 -20 -20 -20 -20 -20 -20 -20 -20 -20 -20 -20 -20 -20 -20 -20 -20 -19 3 11 8 15 30 32 32 20 16 -8 -11 -14 -19 -20 -20 -20
-20 -20 -20 -20 -20 -20 -20 -20 -20 -20 -20 -20 -20 -20 -20 -20 -20 -20 -20 -20 -20 -20 -20 -20 -20 -20 -20 -19 -18 8 19 24 10 -18 -20 -20 -20 -20 -20 -20 -20 -20 -20 -20
-20 -20 -20 -20 -20 -20 -20 -20 -20 -20 -20 -20 -20 -20 -20 -20 -20 -20 -20 -20 -20 -20 -20 -20 -20 -20 -20 -20 -20 -20 -20 -20 -20 -20 -20 -20 -20 -20 -20 -20 -20 -20 -20 -20
-20 -20 -20 -20 -20 -20 -20 -20 -20 -20 -20 -20 -20 -20 -20 -20 -20 -20 -20 -20 -20 -20 -2 -20 -20 -20 -20 -20 -20 -20 -20 -20 -20 -20 -20 -20 -20 -20 -20 -20 -20 -20 -20 -20
-20 -20 -20 -20 -20 -20 -20 -20 -20 -20 -20 -20 -20 -20 -20 -20 -20 -20 -20 -20 -20 -20 -20 -20 -20 -20 -20 -20 -20 -20 -20 -20 -20 -20 -20 -20 -20 -20 -20 -20 -20 -20 -20 -20

GFSCGP_prec_radar_030.txt.gz
Reflectivity
-20 -20 -20 -20 -20 -7 -3 -6 -20 -12 -20 -20 -20 -20 -20 -20 -20 -20 -20 -20 -20 -20 -20 -20 -20 -20 -20 -20 -20 -20 -20 -20 -20 -20 -20 -20 -20 -20 -20 -20 -20 -20 -20 -20
-20 -20 -20 -20 9 -18 -18 -20 -20 -20 -20 -20 -20 -16 -20 -20 -20 -20 -20 -20 -20 -20 -20 -20 -20 -20 -20 -20 -20 -20 -7 -20 -20 -20 -20 -20 -20 -20 -20 -20 -20 -20 -20 -20
-20 -20 -20 -19 4 -20 -20 -20 -20 -20 -20 -20 -20 -20 -20 -20 -20 -20 -20 -20 -20 -20 -20 -20 -20 -20 -20 -20 -20 -20 -20 -20 -20 -20 -20 -20 -20 -20 -20 -20 -20 -20 -20 -20
-20 -20 -20 -20 -20 -20 -20 -20 -20 -20 -20 -20 -20 -20 -20 -20 -20 -20 -20 -18 -20 -20 -20 -20 -20 -20 -20 -20 -20 -20 21 -15 -20 -19 -20 -20 -20 -20 -20 -20 -20 -20 -20 -20
-20 -20 -20 -20 -20 -20 -20 -20 -20 -20 -20 -20 -20 -20 -20 -20 -20 -20 -20 -20 -20 -20 -20 -20 -20 -20 -20 -20 -20 -20 -19 -17 -20 21 19 -20 -20 -20 -20 -20 -20 -20 -20 -20
-20 -20 -20 -20 -20 -20 -20 -20 -20 -20 -20 -20 -20 -20 -20 -20 -20 -20 -20 -20 -20 -20 -15 -17 -20 -20 -20 -20 -20 36 -20 -20 -20 -20 -20 -20 -20 -20 -20 -20 -20 -20 -20 -20
-20 -20 -20 -20 -20 -20 -20 -20 -20 -20 -20 -20 -20 -20 -20 -20 -20 -20 -20 -20 -20 -20 -20 -20 -20 -20 -20 -20 -19 -14 -20 -20 -20 -20 1 -20 -20 -20 -20 -10 -20 -15 -20 -17
-20 -20 -20 -20 -20 -20 -20 -20 -20 -20 -20 -20 -20 -20 -20 -20 -20 -20 -20 -20 -20 -20 -20 -20 -20 -20 -20 -20 -20 27 20 -20 -20 -20 -20 -20 -20 -20 -20 -20 -20 -14 17 6
-20 -20 -20 -20 -20 -20 -20 -20 -20 -20 -20 -20 -20 -20 -20 -20 -20 -20 -20 -20 -20 -20 -20 -20 -20 -20 -20 2 -20 -20 -20 -20 -20 -20 -20 -20 -20 -20 -20 -9 20 20 13 19
-20 -20 -20 -20 -20 -20 -20 -20 -20 -20 -20 -20 -20 -20 -20 -20 -20 -20 -20 -20 -20 -20 -20 -20 -20 -20 -20 -20 -20 8 -20 -20 -20 -1 4 -20 -20 -20 -20 -20 4 14 20 -12
-10 -20 -20 -20 -20 1 -16 -20 -20 -20 -20 -20 -20 -20 -20 -20 -20 -20 -20 -20 -20 -20 -20 -20 -20 -20 -20 -20 -20 -20 -20 -20 7 8 -20 -20 -20 -9 6 18 17 -14 5 14
-20 -20 -20 -20 -20 -20 -20 -20 -20 -20 -20 -20 -20 -20 -20 -20 -20 -20 -20 -20 -20 -20 -20 -20 -20 -20 -20 -20 -20 -20 -20 -20 -20 -20 -20 -20 -20 -20 -20 -15 -20 -20 -20 -17
-20 -20 -20 -20 -20 -20 -20 -20 -20 -20 -20 -20 -20 -20 -20 -20 -20 -20 -20 -20 -20 -20 -20 -20 -20 -20 -20 -20 -20 -20 -20 -20 -20 -20 -14 -20 -20 -20 -20 -20 -20 -20 -20 -20
-20 -20 -20 -20 -20 -20 -20 -20 -20 -20 -20 -20 -20 -20 -20 -20 -20 -20 -20 -20 -20 -20 -20 -20 -3 -20 -20 -20 -20 -20 -6 -20 -6 -6 -20 -20 -20 -20 -20 -20 -20 -20 -20 -20
-20 -20 -20 -20 -20 -20 -20 -20 -20 -20 -20 -20 -20 -20 -20 -20 -20 -20 -20 -20 -20 -20 -20 -20 -11 -20 -20 -20 -20 -14 1 8 8 6 -20 -17 -19 -20 -20 -20 -20 -20 -20 -20
-20 -20 -20 -20 -20 -20 -20 -20 -20 -20 -20 -20 -20 -20 -20 -20 -20 -20 -20 -20 -20 -20 -20 -20 -20 -20 -20 -20 -20 -19 -20 13 -15 -20 -20 -20 -10 -17 -20 -20 -20 -20 -19 -14
-20 -20 -20 -20 -20 -20 -20 -20 -20 -20 -20 -20 -20 -20 -20 -20 -20 -20 -20 -20 -20 -20 -20 -20 -20 -20 -20 -20 -20 -20 -20 -20 -20 -12 -20 -20 -20 -20 -19 -17 -18 -19 22 21
-20 -20 -20 -20 -20 -20 -20 -20 -20 -20 -20 -20 -20 -20 -20 -20 -20 -20 -20 -20 -20 -20 -20 -20 -20 -20 -20 -20 -20 -20 -14 -0 -20 -20 -17 -20 -20 -20 -20 -13 17 29 26 25
-18 9 -20 -20 -20 -20 -20 -20 -20 -20 -20 -20 -20 -20 -20 -20 -20 -20 -20 -20 -20 -20 -20 -20 -20 -20 -20 -20 -20 -20 -15 -20 -20 -20 -20 -20 -3 -13 -16 18 31 31 10 11
-20 -20 -20 -20 -20 -20 -20 -20 -20 -20 -20 -20 -20 -20 -20 -20 -20 -20 -20 -20 -20 -20 -20 -20 -20 -20 -20 -20 -20 -20 -20 -20 -20 -20 -19 11 36 31 34 34 10 2 -5 -20
-20 -20 -20 -20 -20 -20 -20 -20 -20 -20 -20 -20 -20 -20 -20 -20 -20 -20 -20 -20 -20 -20 -20 -20 -20 -20 -20 -20 -20 -20 -20 -5 22 19 27 13 20 29 18 14 0 -20 -20 -20
-20 -20 -20 -20 -20 -20 -20 -20 -20 -20 -20 -20 -20 -20 -20 -20 -20 -20 -20 -20 -20 -20 -20 -20 -20 -20 -20 -20 -20 -19 -9 7 -7 12 27 27 9 -5 -18 -20 -20 -20 -20 -20
-20 -20 -20 -20 -20 -20 -20 -20 -20 -20 -20 -20 -20 -20 -20 -20 -20 -20 -20 -20 -20 -20 -20 -20 -20 -20 -20 -20 -20 -17 -18 -20 -18 -19 -20 -20 -20 -20 -20 -20 -20 -20 -20 -20
-20 -20 -20 -20 -20 -20 -20 -20 -20 -20 -20 -20 -20 -20 -20 -20 -20 -20 -20 -20 -20 -20 -20 -20 -20 -17 -13 -17 -20 -20 -20 -20 -20 -20 -20 -20 -20 -20 -20 -20 -20 -20 -20 -20
-20 -20 -20 -20 -20 -20 -20 -20 -20 -20 -20 -20 -20 -20 -20 -20 -20 -20 -20 -20 -20 -20 -20 -20 -20 -9 -7 -20 -20 -20 -20 -20 -20 -20 -20 -20 -20 -20 -20 -20 -20 -20 -20 -20
-20 -20 -20 -20 -20 -20 -20 -20 -20 -20 -20 -20 -20 -20 -20 -20 -20 -20 -20 -20 -20 -20 -20 -20 -20 -20 -20 -20 -20 -20 -20 -20 -20 -20 -20 -20 -20 -20 -20 -20 -20 -20 -20 -20

GFSCGP_prec_radar_033.txt.gz
Reflectivity
-20 -20 -20 -20 -20 -20 -20 -20 -20 -20 -20 -20 -20 -12 -20 -20 -20 -20 -20 -20 -20 -20 -20 -20 -20 -20 -20 -20 -20 -20 -20 -20 -20 -20 -20 -20 -20 -20 -20 -20 -20 -20 -20 -20
-20 -20 -20 -20 -20 -13 -20 -20 -20 -20 -20 -20 -20 -20 -20 -20 -20 -20 -20 -20 -20 -20 -20 -20 -20 -20 -20 -20 -20 -20 -20 -20 -20 -20 -20 -20 -20 -20 -20 -20 -20 -20 -20 -20
-20 -20 -20 -20 -20 -5 -20 -20 -20 -20 -20 -20 -20 -20 -20 -20 -20 -20 -20 -20 -20 -20 -20 -20 -20 -20 -20 -20 -20 -20 -20 -20 -20 -20 -20 -20 -20 -20 -20 -20 -20 -20 -20 -20
-20 -20 -20 -20 -20 -20 -20 -20 -20 -20 -20 -20 -20 -20 -20 -20 -20 -20 -20 -20 -20 -20 -20 -20 -20 -20 -20 -20 -20 -20 -20 -20 -20 -20 -20 -20 -7 12 -20 -20 -20 -20 -20 -20
-20 -20 -20 -20 -20 -20 -20 -20 -20 -20 -20 -20 -20 -20 -20 -20 -20 -20 -20 -20 26 -20 -20 -20 -20 -20 -20 -20 28 -20 -19 21 -9 -20 -19 28 -20 -20 -20 -20 -20 -20 -20 -20
-20 -20 -20 -20 -20 -20 -20 -20 -20 -20 -20 -20 -20 -20 -20 -20 -20 -20 -20 -20 -20 -20 -20 -20 -20 -20 -20 -20 -8 23 25 -11 -12 -2 4 30 22 -20 -20 -20 -20 -20 -20 -20
-20 -20 -20 -20 -20 -20 -20 -20 -20 -20 -20 -20 -20 -20 -20 -20 -20 -20 -20 -20 -20 -20 -20 -20 -20 -18 -19 -20 -20 -20 -12 5 23 -17 -20 -20 -2 -20 -20 -20 -20 -20 -20 -20
-20 -20 -20 -20 -20 -20 -20 -20 -20 -20 -20 -20 -20 -20 -20 -20 -20 -20 -20 -20 -20 -20 -20 -20 -20 -20 26 4 -8 37 3 -7 -18 -20 -20 -20 -20 -20 -4 6 -20 -20 -19 -13
-20 -20 -20 -20 -20 -20 -20 -20 -20 -20 -20 -20 -20 -20 -20 -20 -20 -20 -20 -20 -20 -20 -20 -20 -20 -20 -20 -20 -20 -10 -19 -20 -15 -20 -20 -20 -13 -14 -3 20 -9 -8 -16 12
-20 -20 -20 -20 -20 -20 -20 -20 -20 -20 -20 -20 -20 -20 -20 -20 -20 -20 -20 -20 -20 -20 -20 -20 -20 -20 -20 -20 4 -18 -20 -20 -20 -20 -20 -20 -20 -20 -20 -20 -20 -17 16 21
-20 -20 -20 -20 -20 -20 -20 -20 -20 -20 -20 -20 -20 -20 -20 -20 -20 -20 -20 -20 -20 -20 -20 -20 -20 -20 -20 -20 -20 -20 -20 -20 -20 -20 -20 -20 -20 9 -20 -20 -20 -9 -11 -13
-20 -20 -20 -20 -20 -20 -20 -20 -20 -20 -20 -20 -20 -20 -20 -20 -20 -20 -20 -20 -20 -20 -20 -20 -20 -20 -20 -20 -20 -20 -20 -20 16 4 -20 17 -15 -20 -20 -20 -17 -20 -20 -20
-20 -20 -20 -20 -20 -20 -20 -20 -20 -20 -20 -20 -20 -20 -20 -20 -20 -20 -20 -20 -20 -20 -20 -20 -20 -20 -20 -20 -20 -20 -20 23 17 17 -15 -9 -15 -13 -16 -20 -4 -20 -20 -20
-20 -20 -20 -20 -20 -12 -20 -20 -20 -20 -20 -20 -20 -20 -20 -20 -20 -20 -20 -20 -20 -20 -20 -20 -20 -20 -20 -20 -14 -4 14 12 23 -19 -20 -14 -18 -20 -20 -11 -7 -20 -20 -20
-20 -20 -20 -20 -20 -20 -20 -20 -20 -20 -20 -20 -20 -20 -20 -20 -20 -20 -20 -20 -20 -20 -20 -20 -20 -20 -20 19 -12 19 3 16 14 -20 -20 6 -20 -20 -20 -20 -20 -20 -19 -20
-20 -20 -20 -20 -20 -20 -20 -20 -20 -20 -20 -20 -20 -20 -20 -20 -20 -20 -20 -20 -20 -20 -20 -20 -20 -20 -20 1 -20 -20 -8 -20 -13 -20 -3 -20 -20 -5 -11 -5 -20 -20 -19 -12
-20 -20 -20 -20 -20 -20 -20 -20 -20 -20 -20 -20 -20 -20 -20 -20 -20 -20 -20 -20 -20 -20 -20 -20 -20 -20 -20 -20 -20 -20 -20 -20 -20 -20 -16 -0 -7 -18 -1 12 -3 -6 -3 26
-20 -20 -20 -20 -20 -20 -20 -20 -20 -20 -20 -20 -20 -20 -20 -20 -20 -20 -20 -20 -20 -20 -20 -20 -20 -20 -20 -20 -20 -20 -20 -20 -20 -20 2 -3 -8 -16 -20 -19 -20 23 29 26
-20 -20 -20 -20 -20 -20 -20 -20 -20 -20 -20 -20 -20 -20 -20 -20 -20 -20 -20 -20 -20 -20 -20 -20 -20 -20 -20 -20 -20 -20 -20 -20 -20 -18 5 -20 -14 -20 -13 8 28 24 19 8
-20 -20 -20 -20 -20 -20 -20 -20 -20 -20 -20 -20 -20 -20 -20 -20 -20 -20 -20 -20 -20 -20 -20 -20 -20 -20 -20 -20 -20 -20 -20 -20 -20 -20 -6 7 10 19 38 25 26 30 10 -1
-20 -20 -20 -20 -20 -20 -20 -20 -20 -20 -20 -20 -20 -20 -20 -20 -20 -20 -20 -20 -20 -20 -20 -20 -20 -20 -20 -20 -20 -20 -20 -20 -20 -20 2 11 22 27 26 19 -1 -6 -20 -20
-20 -20 -20 -20 -20 -20 -20 -20 -20 -20 -20 -20 -20 -20 -20 -20 -20 -20 -20 -20 -20 -20 -20 -20 -20 -20 -20 -20 -20 -20 -20 -20 -6 18 23 19 0 -19 -20 -20 -20 -20 -20 -20
-20 -20 -20 -20 -20 -20 -20 -20 -20 -20 -20 -20 -20 -20 -20 -20 -20 -20 -20 -20 -20 -20 -20 -20 -20 -20 -20 -20 -20 -20 -20 -20 -20 -20 -20 -20 -20 -20 -20 -20 -20 -20 -20 -20
-20 -20 -20 -20 -20 -20 -20 -20 -20 -20 -20 -20 -20 -20 -20 -20 -20 -20 -20 -20 -20 -20 -20 -20 -20 -20 -20 -20 -19 -20 -20 -20 -20 -20 -20 -20 -20 -20 -20 -20 -20 -20 -20 -20
-20 -20 -20 -20 -20 -20 -20 -20 -20 -20 -20 -20 -20 -20 -20 -20 -20 -20 -20 -20 -20 -20 -20 -20 -20 -20 -20 -20 -20 -20 -20 -20 -20 -20 -20 -20 -20 -20 -20 -20 -20 -20 -20 -20
-20 -20 -20 -20 -20 -20 -20 -20 -20 -20 -20 -20 -20 -20 -20 -20 -20 -20 -20 -20 -20 -20 -20 -20 -20 -20 -20 -20 -20 -20 -20 -20 -20 -20 -20 -20 -20 -20 -20 -20 -20 -20 -20 -20

GFSCGP_prec_radar_036.txt.gz
Reflectivity
-20 -20 -20 -20 -20 -20 -20 -20 -20 -20 -20 -20 -20 -20 -20 -20 -20 -20 -20 -20 -20 -20 -20 -20 -20 -20 -20 -20 -20 -20 -20 -20 -20 -20 -20 -20 -20 32 -20 -4 -20 -20 -20 -20
-20 -20 -20 -20 -20 -20 -20 -20 -20 -20 -20 -20 -20 -20 -20 -20 -20 -20 -20 -20 -20 -20 -20 -20 -20 -20 -20 -20 -20 -20 -20 -20 -20 -20 -20 -20 -20 -20 -20 -20 -20 -20 -20 -20
-20 -20 -20 -20 -20 -20 -20 -20 -20 -20 -20 -20 -20 -20 -20 -20 -20 -20 -20 -20 -20 -20 -20 -20 -20 -20 -20 -20 -20 -20 -20 -20 -20 -20 -20 -20 -20 -20 -20 -20 -20 -20 -20 -20
-20 -20 -20 -20 -20 -20 -20 -20 -20 -20 -20 -20 -20 -20 -20 -20 -20 -20 -20 -20 -20 -20 -20 -20 -20 -20 -20 -20 -20 -20 -20 -20 -20 -20 -20 -20 -20 -20 -20 -20 -20 -20 -20 -20
-20 -20 -20 -20 -20 -20 -20 -20 -20 -20 -20 -20 -20 -20 -20 -20 -20 -20 -20 -20 -20 -20 -20 -20 -20 -20 -20 -20 -20 -20 -20 -20 -20 -20 -20 -20 -17 18 24 -20 -20 -20 -20 -20
-20 -20 -20 -20 -20 -20 -20 -20 -20 -20 -20 -20 -20 -20 -20 -20 -20 -20 -20 -20 -20 -20 -20 -20 -20 -20 -20 -20 -20 -20 -20 -20 -20 -20 -20 -20 -20 -20 -4 12 15 -12 -20 -20
-20 -20 -20 -20 -20 -20 -20 -20 -20 -20 -20 -20 -20 -20 -20 -20 -20 -20 -20 -20 -20 -20 -20 -20 -20 -20 -20 -20 -20 -20 14 26 14 28 -18 -20 -20 7 3 -20 10 10 -1 -9
-20 -20 -20 -20 -20 -20 -20 -20 -20 -20 -20 -20 -20 -20 -20 -20 -20 -20 -20 -20 -20 -20 -20 -20 -20 -20 -20 -20 -20 -20 -19 39 22 -11 -12 23 -20 -20 24 7 -13 14 15 16
-20 -20 -20 -20 -20 -20 -20 -20 -20 -20 -20 -20 -20 -20 -20 -20 -20 -20 -20 -20 -20 -20 -20 -20 -20 -20 -20 -20 -20 -20 -20 9 -5 -16 22 9 -20 18 -2 12 15 -20 -20 -20
-20 -20 -20 -20 -20 -20 -20 -20 -20 -20 -20 -20 -20 -20 -20 -20 -20 -20 -20 -20 -20 -20 -20 -20 -20 -20 -20 -20 -20 -20 25 -7 -20 4 18 -9 -20 -20 -4 -20 -3 -15 -20 -20
-20 -20 -20 -20 -20 -20 -20 -20 -20 -20 -20 -20 -20 -20 -20 -20 -20 -20 -20 -20 -20 -20 -20 -20 -20 -20 -20 -20 -20 -20 -20 -20 8 -7 -20 -20 22 13 19 24 19 12 -7 -20
-20 -20 -20 -20 -20 -20 -20 -20 -20 -20 -20 -20 -20 -20 -20 -20 -20 -20 -20 -20 -20 -20 -20 -20 -20 -20 -20 -20 -20 -20 -20 -20 -20 24 23 24 22 23 -3 12 -20 -20 -20 8
-20 -20 -20 -20 -20 -20 -20 -20 -20 -20 -20 -20 -20 -20 -20 -20 -20 -20 -20 -20 -20 -20 -20 -20 -20 -20 -20 -20 -20 -20 -7 22 -20 22 22 23 -20 -20 -20 -20 -20 -20 -20 1
-20 -20 -20 -20 -20 -20 -20 -20 -20 -20 -20 -20 -20 -20 -20 -20 -20 -20 -20 -20 -20 -20 -20 -20 -20 -20 -20 -20 6 -20 -2 -20 -20 20 -13 -20 17 -20 -20 -20 -20 -19 0 -12
-20 -20 -20 -20 -20 -20 -20 -20 -20 -20 -20 -20 -20 -20 -20 -20 -20 -20 -20 -20 -20 -20 -20 -20 -20 -20 -20 -20 15 -20 -20 -20 12 -20 -20 -16 -20 -20 -20 -20 -20 -20 -9 -17
-20 -20 -20 -20 -20 -20 -20 -20 -20 -20 -20 -20 -20 -20 -20 -20 -20 -20 -20 -20 -20 -20 -20 -20 -20 -20 -20 -20 -20 -20 -20 -20 -20 -20 -20 -20 -20 -20 4 4 -20 -12 -20 -20
-20 -20 -20 -20 -20 -20 -20 -20 -20 -20 -20 -20 -20 -20 -20 -20 -20 -20 -20 -20 -20 -20 -20 -20 -20 -20 -20 -20 -20 -20 -20 -20 -20 -20 -20 -20 -13 -16 -16 -20 -18 -16 14 13
-20 -20 -20 -20 -20 -20 -20 -20 -20 -20 -20 -20 -20 -20 -20 -20 -20 -20 -20 -20 -20 -20 -20 -20 -20 -20 -20 -20 -20 -20 -20 -20 -20 -20 -20 -20 -18 -5 13 -7 3 27 24 28
-20 -20 -20 -20 -20 -20 -20 -20 -20 -20 -20 -20 -20 -20 -20 -20 -20 -20 -20 -20 -20 -20 -20 -20 -20 -20 -20 -20 -20 -20 -20 -20 -20 -20 -20 -20 -20 -9 -9 13 32 25 28 14
-20 -20 -20 -20 -20 -20 -20 -20 -20 -20 -20 -20 -20 -20 -20 -20 -20 -20 -20 -20 -20 -20 -20 -20 -20 -20 -20 -20 -20 -20 -20 -20 -20 -20 -20 -20 2 -8 -20 4 9 11 15 10
-20 -20 -20 -20 -20 -20 -20 -20 -20 -20 -20 -20 -20 -20 -20 -20 -20 -20 -20 -20 -20 -20 -20 -20 -20 -20 -20 -20 -20 -20 -20 -20 -20 -20 -20 -20 -15 15 20 14 -8 -20 -20 -20
-20 -20 -20 -20 -20 -20 -20 -20 -20 -20 -20 -20 -20 -20 -20 -20 -20 -20 -20 -20 -20 -20 -20 -20 -20 -20 -20 -20 -20 -20 -20 -20 -20 -5 -3 -16 -17 -20 -20 -20 -20 -20 -20 -20
-20 -20 -20 -20 -20 -20 -20 -20 -20 -20 -20 -20 -20 -20 -20 -20 -20 -20 -20 -20 -20 -20 -20 -20 -20 -20 -20 -20 -20 -20 -20 -19 -20 -20 -20 -20 -20 -20 -20 -20 -20 -20 -20 -20
-20 -20 -20 -20 -20 -20 -20 -20 -20 -20 -20 -20 -20 -20 -20 -20 -20 -20 -20 -20 -20 -20 -20 -20 -20 -20 -20 -20 -20 -20 -20 -20 -20 -20 -20 -20 -20 -20 -20 -20 -20 -20 -20 -20
-20 -20 -20 -20 -20 -20 -20 -20 -20 -20 -20 -20 -20 -20 -20 -20 -20 -20 -20 -20 -20 -20 -20 -20 -20 -20 -20 -20 -20 -20 -20 -20 -20 -20 -20 -20 -20 -20 -20 -20 -20 -20 -20 -20
-20 -20 -20 -20 -20 -20 -20 -20 -20 -20 -20 -20 -20 -20 -20 -20 -20 -20 -20 -20 -20 -20 -20 -20 -20 -20 -20 -20 -20 -20 -20 -20 -20 -20 -20 -20 -20 -20 -20 -20 -20 -20 -20 -20

GFSCGP_prec_radar_039.txt.gz
Reflectivity
-20 -20 -20 -20 -20 -20 -20 -20 -20 -20 -20 -20 -20 -20 -20 -20 -13 -20 -20 -20 -20 -20 -20 -20 -20 -20 -20 -20 -20 -20 -20 -20 -20 -20 -20 -20 -20 -20 -20 13 -17 -20 -20 -20
-20 -20 -20 -20 -20 -20 -20 -20 -20 -20 -20 -20 -20 -20 -20 -20 -20 -20 -20 -20 -20 -20 -20 -20 -20 -20 -20 -20 -20 -20 -20 -20 -20 -20 -20 -20 -20 -20 -20 -20 -20 -20 -20 -20
-20 -20 -20 -20 -20 -20 -20 -20 -20 -20 -20 -20 -20 -20 -20 -20 -20 -20 -20 -20 -20 -20 -20 -20 -20 -20 -20 -20 -20 -20 -20 -20 -20 -20 -20 -20 -20 -20 16 21 2 -20 -20 -20
-20 -20 -20 -20 -20 -20 -20 -20 -20 -20 -20 -20 -20 -20 -20 -20 -20 -20 -20 -20 -20 -20 -20 -20 -20 -20 -20 -20 -20 -20 -20 -20 -20 -20 -20 -20 -20 -20 -2 -12 -20 -20 -20 -20
-20 -20 -20 -20 -20 -20 -20 -20 -20 -20 -20 -20 -20 -20 -20 -20 -20 -20 -20 -20 -20 -20 -20 -20 -20 -20 -20 -20 -20 -20 -20 -20 -20 -20 -20 -18 -20 28 25 18 -18 -20 -20 -20
-20 -20 -20 -20 -20 -20 -20 -20 -20 -20 -20 -20 -20 -20 -20 -20 -20 -20 -20 -20 -20 -20 -20 -20 -20 -20 -20 -20 -20 -20 -20 -20 -20 7 -3 -20 -20 -20 -8 -16 -20 -20 4 -15
-20 -20 -20 -20 -20 -20 -20 -20 -20 -20 -20 -20 -20 -20 -20 -20 -20 -20 -20 -20 -20 -20 -20 -20 -20 -20 -20 -20 -20 -20 -20 -20 -13 17 19 5 2 -17 -20 -20 -20 3 4 16
-20 -20 -20 -20 -20 -20 -20 -20 -20 -20 -20 -20 -20 -20 -20 -20 -20 -20 -20 -20 -20 -20 -20 -20 -20 -20 -20 -20 -20 -20 -20 -20 29 38 16 28 -9 -20 -20 20 24 -15 -20 -19
-20 -20 -20 -20 -20 -20 -20 -20 -20 -20 -20 -20 -20 -20 -20 -20 -20 -20 -20 -20 -20 -20 -20 -20 -20 -20 -20 -20 -20 -20 -20 -20 -6 31 22 -16 17 -20 -18 -20 -20 21 -20 -19
-20 -20 -20 -20 -20 -20 -20 -20 -20 -20 -20 -20 -20 -20 -20 -20 -20 -20 -20 -20 -20 -20 -20 -20 -20 -20 -20 -20 -20 -20 -20 -20 -20 -11 13 6 6 -20 -5 -20 19 14 -3 -5
-20 -20 -20 -20 -20 -20 -20 -20 -20 -20 -20 -20 -20 -20 -20 -20 -20 -20 -20 -20 -20 -20 -20 -20 -20 -20 -20 -20 -20 -20 -20 -20 -20 -20 -20 -20 -20 -16 -3 24 23 17 17 10
-20 -20 -20 -20 -20 -20 -20 -20 -20 -20 -20 -20 -20 -20 -20 -20 -20 -20 -20 -20 -20 -20 -20 -20 -20 -20 -20 -20 -20 -20 -20 -20 -20 -20 -10 11 24 -18 -20 13 21 16 9 -20
-20 -20 -20 -20 -20 -20 -20 -20 -20 -20 -20 -20 -20 -20 -20 -20 -20 -20 -20 -20 -20 -20 -20 -20 -20 -20 -20 -20 -20 -20 -20 -20 -19 -18 -7 -16 -20 19 22 24 18 1 -5 -20
-20 -20 -20 -20 -20 -20 -20 -20 -20 -20 -20 -20 -20 -20 -20 -20 -20 -20 -20 -20 -20 -20 -20 -20 -20 -20 -20 -20 -20 -20 -0 5 -12 -15 -20 -20 2 19 -0 19 -19 -17 -17 16
-20 -20 -20 -20 -20 -20 -20 -20 -20 -20 -20 -20 -20 -20 -20 -20 -20 -20 -20 -20 -20 -20 -20 -20 -20 -20 -20 -20 -20 -20 -20 -20 -20 -20 -17 -16 -20 -20 -14 -13 -20 -19 -6 -10
-20 -20 -20 -20 -20 -20 -20 -20 -20 -20 -20 -20 -20 -20 -20 -20 -20 -20 -20 -20 -20 -20 -20 -20 -20 -20 -20 -20 -20 -20 -20 -20 -20 -20 -20 -20 -20 -20 -20 6 -20 -16 13 27
-20 -20 -20 -20 -20 -20 -20 -20 -20 -20 -20 -20 -20 -20 -20 -20 -20 -20 -20 -20 -20 -20 -20 -20 -20 -20 -20 -20 -20 -20 -20 -20 -20 -20 -20 -20 -20 -20 -20 -20 -17 -11 14 29
-20 -20 -20 -20 -20 -20 -20 -20 -20 -20 -20 -20 -20 -20 -20 -20 -20 -20 -20 -20 -20 -20 -20 -20 -20 -20 -20 -20 -20 -20 -20 -20 -20 -20 -20 -20 -20 -20 -20 -20 -15 2 7 -19
-20 -20 -20 -20 -20 -20 -20 -20 -20 -20 -20 -20 -20 -20 -20 -20 -20 -20 -20 -20 -20 -20 -20 -20 -20 -20 -20 -20 -20 -20 -20 -20 -20 -20 -20 -20 -20 -20 -20 -20 -8 -4 -17 -19
-20 -20 -20 -20 -20 -20 -20 -20 -20 -20 -20 -20 -20 -20 -20 -20 -20 -20 -20 -20 -20 -20 -20 -20 -20 -20 -20 -20 -20 -20 -20 -20 -20 -20 -20 -20 -20 -20 -20 -20 -20 -17 -17 -20
-20 -20 -20 -20 -20 -20 -20 -20 -20 -20 -20 -20 -20 -20 -20 -20 -20 -20 -20 -20 -20 -20 -20 -20 -20 -20 -20 -20 -20 -20 -20 -20 -20 -20 -20 -20 -20 -20 -19 -18 -20 -20 -20 -20
-20 -20 -20 -20 -20 -20 -20 -20 -20 -20 -20 -20 -20 -20 -20 -20 -20 -20 -20 -20 -20 -20 -20 -20 -20 -20 -20 -20 -20 -20 -20 -20 -20 -20 -20 -20 -20 -20 -20 -20 -20 -20 -20 -20
-20 -20 -20 -20 -20 -20 -20 -20 -20 -20 -20 -20 -20 -20 -20 -20 -20 -20 -20 -20 -20 -20 -20 -20 -20 -20 -20 -20 -20 -20 -20 -20 -20 -20 -20 -20 -20 -20 -20 -20 -20 -20 -20 -20
5 4 -19 -20 -20 -20 -20 -20 -20 -20 -20 -20 -20 -20 -20 -20 -20 -20 -20 -20 -20 -20 -20 -20 -20 -20 -20 -20 -20 -20 -20 -20 -20 -20 -20 -20 -20 -20 -20 -20 -20 -20 -20 -20
2 9 -20 -20 -20 -20 -20 -20 -20 -20 -20 -20 -20 -20 -20 -20 -20 -20 -20 -20 -20 -20 -20 -20 -20 -20 -20 -20 -20 -20 -20 -20 -20 -20 -20 -20 -20 -20 -20 -20 -20 -20 -20 -20
-20 -20 -18 -20 -3 -20 -20 -20 -20 -20 -20 -20 -20 -20 -20 -20 -20 -20 -20 -20 -20 -20 -20 -20 -20 -20 -20 -20 -20 -20 -20 -20 -20 -20 -20 -20 -20 -20 -20 -20 -20 -20 -20 -20

GFSCGP_prec_radar_042.txt.gz
Reflectivity
-20 -20 -20 -20 -20 -20 -20 -20 -20 -20 -20 -20 -20 -20 -20 -20 -20 -20 -20 -20 -20 -20 -20 -20 -20 -20 -20 -20 -20 -20 -20 -20 -5 5 -20 -20 -20 -20 6 31 -18 -20 -20 -20
-20 -20 -20 -20 -20 -20 -20 -20 -20 -20 -20 -20 -20 -20 -20 -20 -20 -20 -20 -20 -20 -20 -20 -20 -20 -20 -20 -20 -20 -20 -20 -20 -1 6 -20 -20 -20 -20 -20 -10 2 -20 -20 -20
-20 -20 -20 -20 -20 -20 -20 -20 -20 -20 -20 -20 -20 -20 -20 -20 -20 -20 -20 -20 -20 -20 -20 -20 -20 -20 -20 -20 -20 -20 -20 -20 -20 -7 -20 -20 -20 -20 1 -9 -13 -18 -10 -11
-20 -20 -20 -20 -20 -20 -20 -20 -20 -20 -20 -20 -20 13 -20 -20 -20 -20 -20 -20 -20 -20 -20 -20 -20 -20 -20 -20 -20 -20 -20 -8 -20 -16 -20 -20 -20 -20 -20 -20 -20 -20 -20 6
-20 -20 -20 -20 -20 -20 -20 -20 -20 -20 -20 -20 -20 -20 -20 -20 -20 -20 -20 -20 -20 -20 -20 -20 -20 -20 -20 -20 -20 -20 -20 -20 -20 -20 -20 -20 -20 -20 -20 -20 -20 -20 15 18
-20 -20 -20 -20 -20 -20 -20 -20 -20 -20 -20 -20 -20 -20 -20 -20 -20 -20 -20 -20 -20 -20 -20 -20 -20 -20 -20 -20 -20 -20 -20 -20 -20 3 -11 -15 -14 -20 -17 -10 -20 -2 7 -8
-20 -20 -20 -20 -20 -20 -20 -20 -14 -20 -20 -20 -20 -20 -20 -20 -20 -20 -20 -20 -20 -20 -20 -20 -20 -20 -20 -20 -20 -20 -20 -20 -19 28 28 23 29 14 7 22 -12 -20 -5 6
-20 -20 -20 -20 -20 -20 -20 -20 -20 -19 -20 -20 -20 -20 -20 -20 -20 -20 -20 -20 -20 -20 -20 -20 -20 -20 -20 -20 -20 -20 -20 -20 18 -14 -20 26 9 23 29 22 24 18 -20 16
-20 -20 -20 -20 -20 -20 -20 -20 -20 -20 -20 -20 -20 -20 -20 -20 -20 -20 -20 -20 -20 -20 -20 -20 -20 -20 -20 -20 -20 -20 -20 -20 -20 -14 29 22 14 -5 -10 23 -19 -20 -20 -16
-20 -20 -20 -20 -20 -20 -20 -20 -20 -20 -20 -20 -20 -20 -20 -20 -20 -20 -20 -20 -20 -20 -20 -20 -20 -20 -20 -20 -20 -20 -20 -20 -20 -20 -9 13 -3 -20 -14 -20 -20 -20 -13 -20
-20 -20 -20 -20 -20 -20 -20 -20 -20 -20 -20 -20 -20 -20 -20 -20 -20 -20 -20 -20 -20 -20 -20 -20 -20 -20 -20 -20 -20 -20 -20 -20 -20 -20 -20 -20 -15 8 11 -20 -20 -18 -7 12
-20 -20 -20 -20 -20 -20 -20 -20 -20 -20 -20 -20 -20 -20 -20 -20 -20 -20 -20 -20 -20 -20 -20 -20 -20 -20 -20 -20 -20 -20 -20 -20 -20 -20 -20 -20 -20 -20 -1 -20 -19 -20 -0 -20
-20 -20 -20 -20 -20 -20 -20 -20 -20 -20 -20 -20 -20 -20 -20 -20 -20 -20 -20 -20 -20 -20 -20 -20 -20 -20 -20 -20 -20 -20 -20 -20 -20 -20 -20 -20 -20 -20 -20 -20 -20 16 -3 -7
-20 -20 -20 -20 -20 -20 -20 -20 -20 -20 -20 -20 -20 -20 -20 -20 -20 -20 -20 -20 -20 -20 -20 -20 -20 -20 -20 -20 -20 -20 -20 -20 -20 -20 -20 -20 -20 -20 -19 -20 -14 -20 -20 -14
-20 -20 -20 -20 -20 -20 -20 -20 -20 -20 -20 -20 -20 -20 -20 -20 -20 -20 -20 -20 -20 -20 -20 -20 -20 -20 -20 -20 -20 -20 -20 -20 -19 13 -20 -8 12 -10 -11 -20 -20 -20 -20 -20
-20 -20 -20 -20 -20 -20 -20 -20 -20 -20 -20 -20 -20 -20 -20 -20 -20 -20 -20 -20 -20 -20 -20 -20 -20 -20 -20 -20 -20 -20 -20 -20 -20 -19 -20 -20 -20 -20 -20 -20 -20 -20 -20 -20
-20 -20 -20 -20 -20 -20 -20 -20 -20 -20 -20 -20 -20 -20 -20 -20 -20 -20 -20 -20 -20 -20 -20 -20 -20 -20 -20 -20 -20 -20 -20 -20 -20 -20 -20 -20 -20 -20 -20 -20 -20 -20 3 -18
-20 -20 -20 -20 -20 -20 -20 -20 -20 -20 -20 -20 -20 -20 -20 -20 -20 -20 -20 -20 -20 -20 -20 -20 -20 -20 -20 -20 -20 -20 -20 -20 -20 -20 -20 -20 -20 -20 -20 -20 -20 -20 -20 -20
-20 -20 -20 -20 -20 -20 -20 -20 -20 -20 -20 -20 -20 -20 -20 -20 -20 -20 -20 -20 -20 -20 -20 -20 -20 -20 -20 -20 -20 -20 -20 -20 -20 -20 -20 -20 -20 -20 -20 -20 -20 -17 -13 -20
-20 -20 -20 -20 -20 -20 -17 -20 -20 -20 -20 -20 -20 -20 -20 -20 -20 -20 -20 -20 -20 -20 -20 -20 -20 -20 -20 -20 -20 -20 -20 -20 -20 -20 -20 -20 -20 -20 -20 -9 -19 -20 -20 -20
-20 -20 -20 -20 -20 -20 -20 -20 -20 -20 -20 -20 -20 -20 -20 -20 -20 -20 -20 -20 -20 -20 -20 -20 -20 -20 -20 -20 -20 -20 -20 -20 -20 -20 -20 -16 -20 -20 -20 -20 -20 -20 -20 -20
-20 -20 -20 -20 -20 -20 -11 -20 -20 -20 -20 -20 -20 -20 -20 -20 -20 -20 -20 -20 -20 -20 -20 -20 -20 -20 -20 -20 -20 -20 -20 -20 -20 -20 -20 -20 -20 -20 -20 -20 -20 -20 -20 -20
-16 -18 -20 -20 -20 -20 -20 -20 -20 -20 -20 -20 -20 -20 -20 -20 -20 -20 -20 -20 -20 -20 -20 -20 -20 -20 -20 -20 -20 -20 -20 -20 -20 -20 -20 -20 -20 -20 -20 -20 -20 -20 -20 -20
-20 -1 -12 -17 -20 -20 -20 -20 -20 -20 -20 -20 -20 -20 -20 -20 -20 -20 -20 -20 -20 -20 -20 -20 -20 -20 -20 -20 -20 -20 -20 -20 -20 -20 -20 -20 -20 -20 -20 -20 -20 -20 -20 -20
-12 -3 -20 -20 -20 -20 -20 -20 -20 -20 -20 -20 -20 -20 -20 -20 -20 -20 -20 -20 -20 -20 -20 -20 -20 -20 -20 -20 -20 -20 -20 -20 -20 -20 -20 -20 -20 -20 -20 -20 -20 -20 -20 -20
-20 -20 -20 -20 -13 11 -2 -20 -20 -20 -20 -20 -20 -20 -20 -20 -20 -20 -20 -20 -20 -20 -20 -20 -20 -20 -20 -20 -20 -20 -20 -20 -20 -20 -20 -20 -20 -20 -20 -20 -20 -20 -20 -20

GFSCGP_prec_radar_045.txt.gz
Reflectivity
-20 -20 -20 -20 -20 -20 -20 -20 -20 -20 -20 -20 -20 -20 21 -13 -20 -20 -20 -20 -20 -8 12 5 -20 -20 -12 5 -20 -20 -20 -20 -20 -15 -20 -20 -20 -20 -20 -20 -20 -20 -20 -20
-20 -20 -20 -20 -20 -20 -20 -20 -20 -3 -20 -20 -20 9 -20 9 -20 -20 -20 -20 -20 -20 -20 -19 -18 -20 -16 -20 -20 -20 -20 -20 20 -10 -20 -20 -20 -20 -20 -20 -20 -3 -20 -20
-20 -20 -20 -20 -20 -20 -20 -20 8 -18 12 -20 -20 -20 -13 -20 -20 -20 -20 -20 -20 -20 -20 -20 -20 -20 -20 -20 -20 -20 -20 -20 -20 -20 -20 -20 -20 -20 -20 -20 -20 -7 -14 -20
-20 -20 -20 -20 -20 -20 -20 -20 -20 -20 -20 -7 5 9 11 8 -20 -20 -20 -20 -20 -20 -20 -20 -20 -20 -20 -20 -20 -20 -20 -20 -20 -20 -20 -20 -20 -20 -20 -20 -20 3 -2 -20
-20 -20 -20 -20 -20 -20 -20 -20 -20 -20 -20 0 -16 -20 -19 -20 -20 -20 -20 -20 -20 -20 -20 -20 -20 -20 -20 -20 -20 -20 -20 -20 -20 -20 -20 -20 -20 -20 -20 -20 -20 -15 -20 -20
-20 -20 -20 -20 -20 -20 -20 -20 -20 -20 -20 -19 -19 -16 27 15 -20 -20 -20 -20 -20 -20 -20 -20 -20 -20 -20 -20 -20 -20 -20 -20 -20 -20 -20 -20 -20 -18 -1 15 30 -20 -20 -20
-20 -20 -20 -20 -20 -20 -20 -20 -18 -13 -20 -20 15 -20 -20 24 -20 -20 -20 -20 -20 -20 -20 -20 -20 -20 -20 -20 -20 -20 -20 -20 -20 -20 25 -2 -17 -7 4 38 33 7 9 18
-20 -20 -20 -20 -20 -20 -20 -20 -20 22 -9 -17 3 -20 -2 -20 -20 -20 -20 -20 -20 -20 -20 -20 -20 -20 -20 -20 -20 -20 -20 -20 -20 4 17 20 -19 -20 14 6 40 28 23 17
-20 -20 -20 -20 -20 -20 -20 -20 -20 -20 -20 -19 -14 -20 -20 -20 -20 -20 -20 -20 -20 -20 -20 -20 -20 -20 -20 -20 -20 -20 -20 -20 -20 -20 -12 41 15 -20 -20 1 -18 -7 -17 6
-20 -20 -20 -20 -20 -20 -8 -16 -20 -20 -20 -6 -19 -13 -1 -7 -20 -20 -20 -20 -20 -20 -20 -20 -20 -20 -20 -20 -20 -20 -20 -20 -20 -20 -9 -20 -20 -20 -17 1 -20 -20 -14 -20
-20 -20 -20 -20 -20 -20 -20 -20 -20 -20 -20 -13 -20 -6 15 -18 -20 -20 -20 -20 -20 -20 -20 -20 -20 -20 -20 -20 -20 -20 -20 -20 -20 -20 -20 -20 -20 -20 -20 -2 26 -10 -12 -10
-20 -20 -11 -20 -20 -20 15 -20 -20 -20 -20 -20 -20 -20 -6 -20 -20 -20 -20 -20 -20 -20 -20 -20 -20 -20 -20 -20 -20 -20 -20 -20 -20 -20 -20 -17 -12 -20 -15 2 6 10 -3 -20
-20 -20 -20 -20 -20 -20 -20 -8 -20 -20 -20 -18 16 -20 1 -20 -20 -20 -20 -20 -20 -20 -20 -20 -20 -20 -20 -20 -20 -20 -20 -20 -20 -20 -9 1 -10 -8 3 6 14 18 12 13
-20 -20 -20 -20 -20 -20 -20 -20 -20 -20 -20 -20 -20 -20 -20 10 -9 -20 -20 -20 -20 -20 -20 -20 -20 -20 -20 -20 -20 -20 -20 -20 -20 -20 -20 -18 -20 -8 -13 -20 -0 -3 -5 12
-20 -20 -20 -20 -18 1 -4 -20 -20 -20 -20 -20 -20 -20 -20 9 -20 -20 -16 -20 -20 -20 -20 -20 -20 -20 -20 -20 -20 -20 -20 -20 -20 -20 -20 22 -20 -13 -7 -15 -18 -15 -6 -18
-20 -20 -20 -20 -20 -20 -20 -20 -20 -20 -20 -20 -20 -20 -20 -20 -20 -20 -20 -20 -20 -20 -20 -20 -20 -20 -20 -20 -20 -20 -20 -20 17 -20 -20 -20 -20 -20 -20 -20 -20 -20 -20 -20
-20 -20 -20 -20 -20 -20 -20 -20 -20 -20 -20 -20 -20 -20 -20 -20 -20 -20 -20 -20 -20 -20 -20 -20 -20 -20 -20 -20 -20 16 -20 22 -20 11 -20 -20 -20 -20 -20 -20 -20 -20 -20 -20
-20 -20 -20 -20 -20 -15 -19 -20 -20 -20 -20 -20 -20 -20 -20 -20 -20 -20 -20 -20 -20 -20 -20 -20 -20 -20 -20 -20 -20 -20 -20 -20 -20 -20 -20 -20 -20 -20 -20 -20 -20 -20 -20 -20
-8 -20 -20 -15 -20 -20 -20 -20 -20 -20 -20 -20 -20 -20 -20 -20 -20 -20 -20 -20 -20 -20 -20 -20 -20 -20 -20 -20 -20 -20 -20 -20 -20 -20 -20 -20 -20 -20 -20 -20 -20 -20 -20 -20
8 -6 18 -17 -20 -7 -16 -20 -20 -20 -20 -20 -20 -20 -20 -20 -20 -20 -20 -20 -20 -20 -20 -20 -20 -20 -20 -20 -20 -20 -20 -20 -20 -20 -20 -20 -20 -20 -20 -20 -20 -20 -20 -20
-5 -8 -20 24 -0 -20 -19 -20 -20 -20 -20 -20 -20 -20 -20 -20 -20 -20 -20 -20 -20 -20 -20 -20 -20 -20 -20 -20 -20 -20 -20 -20 -20 -20 -20 -20 -20 -20 -20 -20 -20 -20 -20 -20
6 -5 -17 6 2 -14 -19 -4 -17 -20 -20 -20 -20 -20 -20 -20 -20 -20 -20 -20 -20 -20 -20 -20 -20 -20 -20 -20 -20 -20 -20 -20 -20 -20 -20 -20 -20 -20 -20 -20 -20 -20 -20 -20
13 17 23 -20 -20 -20 -3 -5 -20 -20 -20 -20 -20 -20 -20 -20 -20 -20 -20 -20 -20 -20 -20 -20 -20 -20 -20 -20 -20 -20 -20 -20 -20 -20 -20 -20 -20 -20 -20 -20 -20 -20 -20 -20
-9 12 12 14 -13 -20 -2 4 -20 -20 -20 -20 -20 -20 -20 -20 -20 -20 -20 -20 -20 -20 -20 -20 -20 -20 -20 -20 -20 -20 -20 -20 -20 -20 -20 -20 -20 -20 -20 -20 -20 -20 -20 -20
12 -16 -20 -20 -20 -20 -20 -15 6 -18 -20 -20 -20 -20 -20 -20 -20 -20 -20 -20 -20 -20 -20 -20 -20 -20 -20 -20 -20 -20 -20 -20 -20 -20 -20 -20 -20 -20 -20 -20 -20 -20 -20 -20
-20 -20 -20 -20 -20 8 -8 20 15 -19 -20 -20 -20 -20 -20 -20 -20 -20 -20 -20 -20 -20 -20 -20 -20 -20 -20 -20 -20 -20 -20 -20 -20 -20 -20 -20 -20 -20 -20 -20 -20 -20 -20 -20

GFSCGP_prec_radar_048.txt.gz
Reflectivity
-20 -20 -20 -20 -13 -20 -20 -20 -12 16 -19 -20 -20 3 26 30 -0 -20 -20 -20 -20 -20 -20 -20 -20 -20 -20 -20 -20 -20 -16 0 -0 -20 -19 -9 -20 -20 -20 -20 -20 -20 -20 -20
-20 -20 -20 -20 -20 -20 -20 -20 -20 -19 -20 -20 -20 -20 -16 -8 -20 -20 -20 -20 -20 -20 -20 -1 -5 -20 -20 -20 -20 -20 -20 -12 -20 -20 -20 -20 -20 -20 -20 -20 -20 -20 4 -20
-20 -20 -4 -20 -20 -20 -20 -20 -8 -20 -17 -20 -20 -20 -6 -4 4 -20 -20 -20 -20 -20 -20 -18 -9 -17 -20 -20 -20 -20 -20 -20 -20 4 -6 2 -20 -20 -20 -20 -20 -20 -20 -20
-20 -20 -20 -20 -20 -20 -20 -20 -17 -20 -20 -20 -20 -20 -20 -19 4 -10 -20 -20 -20 -20 -20 -20 -20 -20 -20 -20 -20 -20 -20 -20 -20 -20 15 -20 -17 -20 -20 -20 -20 -20 -20 -20
9 -20 -20 -20 -20 -20 -20 -20 -20 -20 -20 -20 -11 -20 -5 -20 -20 14 -20 -20 -20 -20 -20 -20 -20 -20 -20 -20 -20 -20 -20 -20 -20 -20 19 16 19 -20 -20 -20 -17 -20 -20 -20
-10 -20 -20 -20 -20 -20 -20 -20 -20 -20 -20 -20 -20 -11 20 -11 19 9 3 -20 -20 -20 -20 -20 -20 -20 -20 -20 -20 -20 -20 -20 -20 -20 -20 -20 -9 -16 -20 -12 -1 7 34 -9
14 -17 -20 -20 -20 -20 -20 -20 -19 -5 -20 -20 -20 -20 7 -20 12 2 -20 -20 -20 -20 -20 -20 -20 -20 -20 -20 -20 -20 -20 -20 -20 -20 -19 -10 -1 17 8 9 -19 -17 34 46
3 -20 -18 -20 -20 -20 -20 -20 -20 16 -20 20 -20 -20 -2 -20 -20 -20 -20 -20 -18 -20 -20 -20 -20 -20 -20 -20 -20 -20 -20 -20 -20 -20 -19 3 -17 6 -0 13 -14 -15 -5 23
-6 6 -19 -20 -20 -20 -20 -20 -20 24 -8 5 -20 -0 -3 -19 -20 -20 -20 -20 -20 -20 -20 -20 -20 -20 -20 -20 -20 -20 -20 -20 -20 -20 -14 18 29 9 11 -16 -18 -20 -20 25
4 12 -19 -20 -20 -20 -20 -20 -20 -14 15 15 -20 -20 15 -2 -20 -20 -20 -20 -20 -20 -20 -20 -20 -20 -20 -20 -11 -20 -20 5 -20 -20 -20 -20 -12 20 -14 -11 -20 -20 -20 -5
-12 6 -10 -2 -20 -20 -20 -20 -20 -20 -20 -20 -20 -7 -7 27 -14 -20 -20 -20 -20 -20 -20 -20 -20 -18 11 25 21 6 -15 -20 -19 -20 -20 -20 -20 -13 -20 -20 -20 -10 -20 2
-20 -1 6 7 -20 -20 -20 -20 -20 -20 -20 15 -20 -19 -20 -15 -6 -20 -20 -20 -20 -20 -20 -20 -20 -20 -20 -20 -10 -14 -19 -20 -14 -8 29 -9 35 31 10 7 -18 32 5 3
-18 -3 7 -8 -19 -1 -20 -20 -20 -20 -20 -20 -20 -20 -20 -20 -20 -20 -20 -20 -20 -20 -20 -20 -20 -20 -20 -20 -20 -20 -20 -20 -3 -18 -11 -2 3 -7 -20 31 -10 24 16 10
5 -13 -20 -20 -11 -20 -20 -20 -20 -20 7 1 -13 -20 -20 -20 -4 -14 -20 -9 -20 -20 -20 -20 -20 -20 -20 -20 -20 -20 -20 -20 -20 5 -20 -20 -20 7 -3 -14 11 20 9 6
-16 -1 -20 -20 3 -7 -20 -20 -20 -17 -12 -20 -20 -20 -20 -18 22 -20 12 7 -20 -20 -20 -20 -20 -20 -20 -20 -20 -20 -20 -20 -18 -13 -18 -20 -17 -0 2 11 4 15 18 1
5 -20 -20 -20 3 -2 17 -17 -20 -20 -20 -20 -20 -20 -20 -13 10 -20 -20 -20 -20 -20 -20 -20 -20 -20 -20 -20 -20 -20 -20 6 -20 27 -20 -20 -20 -20 -11 16 17 -20 -20 -20
-20 -20 -20 -20 -2 -5 -7 -11 -20 -15 6 -17 -20 -20 -20 -20 -19 -20 -20 -20 -20 -20 -20 -20 -20 -20 -20 -20 -20 -20 -20 -20 -20 -20 -20 -20 -20 -20 -20 -20 -20 -20 -20 -20
-20 -20 -20 -20 1 3 -18 -20 -20 -20 -20 -20 -20 -20 -20 -20 -20 -20 -20 -20 -20 -20 -20 -20 -20 -20 -4 -12 -5 -20 -20 -7 -20 -20 -20 -20 -20 -20 -20 -20 -20 -20 -20 -20
-18 -19 -20 -20 -17 -18 -12 -20 -20 -20 -20 -20 -20 -20 -20 -20 -8 -20 -20 -20 -20 -20 -20 -20 -20 -20 -20 -20 -20 -20 -20 -20 -20 -20 -20 -20 -20 -20 -20 -20 -20 -20 -20 -20
11 -16 -20 10 -20 -5 3 -20 -20 -20 -20 -20 -20 -20 -20 -20 -20 -20 -20 -20 -20 -20 -20 -20 -20 -20 -20 -20 -20 -20 -20 -20 -20 -20 -20 -20 -20 -20 -20 -20 -20 -20 -20 -20
-20 19 13 -7 11 -17 6 7 -3 -20 -18 -18 -20 -19 -20 -20 -20 -20 -20 -20 -20 -20 -20 -20 -20 -20 -20 -20 -20 -20 -20 -20 -20 -20 -20 -20 -20 -20 -20 -20 -20 -20 -20 -20
-19 7 17 15 22 -20 -19 13 6 -15 -16 -19 -20 -15 -20 -20 -20 -20 -20 -20 -20 -20 -20 -20 -20 -20 -20 -20 -20 -20 -20 -20 -20 -20 -20 -20 -20 -20 -20 -20 -20 -20 -20 -20
-5 -16 21 22 -6 -20 0 13 14 8 -19 -20 -20 -19 -20 -20 -20 -20 -20 -20 -20 -20 -20 -20 -20 -20 -20 -20 -20 -20 -20 -20 -20 -20 -20 -20 -20 -20 -20 -20 -20 -20 -20 -20
-19 5 -0 6 2 -17 7 10 14 -7 -20 -20 -20 -13 -5 -20 -20 -20 -20 -20 -20 -20 -20 -20 -20 -20 -20 -20 -20 -20 -20 -20 -20 -20 -20 -20 -20 -20 -20 -20 -20 -20 -20 -20
-20 4 -19 -20 -0 24 8 22 12 11 -19 -20 -20 -7 -20 -20 -20 -20 -20 -20 -20 -20 -20 -20 -20 -20 -20 -20 -20 -20 -20 -20 -20 -20 -20 -20 -20 -20 -20 -20 -20 -20 -20 -20
-20 -20 -20 -20 -20 -3 12 27 35 18 -17 -20 -19 -20 -20 -20 -20 -20 -20 -20 -20 -20 -20 -20 -20 -20 -20 -20 -20 -20 -20 -20 -20 -20 -20 -20 -20 -20 -20 -20 -20 -20 -20 -20

GFSCGP_prec_radar_051.txt.gz
Reflectivity
-20 -20 -20 -20 -20 -20 -20 -20 -20 -6 -6 -11 -20 -20 -20 -20 -20 -20 -20 -20 -20 -20 -20 -20 -20 -20 -20 -20 -20 -20 -20 -20 -20 -20 -20 -20 -20 -20 -20 -20 -20 -20 -20 -20
-20 -20 -20 -20 -20 -20 -20 -20 -20 -11 -14 -20 -20 -20 -20 -20 -20 -9 -20 -20 -20 -20 -20 -20 -20 -18 -20 -20 -20 -20 -20 -20 -20 -19 -20 -20 -20 -20 -20 -20 -20 -20 -20 -20
-20 -20 -20 -20 -20 -20 -20 -20 -20 -20 -15 -20 -20 -20 -20 -20 -20 28 -9 -20 -20 -20 -20 -20 -20 -6 -20 -20 -20 -20 -20 -20 -20 -20 -20 -20 -20 -20 -20 -20 -20 -20 -20 -20
-20 -20 -20 -20 -20 -20 -20 -20 -20 -20 -20 -20 -20 -20 -20 -18 -20 -19 -18 -20 -20 -20 -20 -20 -20 -20 -4 -20 -20 -20 -20 -20 -20 -20 -20 -20 -20 -20 -20 -20 -20 -20 -11 -14
-16 -17 -20 -20 -20 -20 -20 -20 -20 -20 -20 -20 -20 -20 -20 -20 -20 -20 -6 -20 -20 -20 -20 -20 -20 -20 -20 -20 -20 -20 -20 -20 -20 -20 -20 -20 -20 -20 -20 -20 -20 -20 -20 -18
-20 -20 -20 -20 -20 -20 -20 -20 -20 -20 -20 -20 -20 -20 -20 -4 -5 -20 -12 -20 -20 -20 -20 -20 -20 -20 -20 -20 -20 -20 -20 -20 -20 -20 -20 -20 -20 -20 -20 -20 -20 -13 26 -12
-20 -20 -20 0 -20 -20 -20 -20 -20 -20 -20 -20 -20 -15 -20 -20 -20 -20 -20 -20 -20 -20 -20 -20 -20 -20 -20 -20 -20 -20 -20 -20 -20 -20 -20 -20 -20 -20 -10 -20 -20 9 -20 -20
-20 -20 -20 -20 -20 -20 -20 -20 -20 -20 -20 -20 -20 -20 -20 -20 -20 -20 -20 -20 -20 -20 -20 -20 -20 -20 -20 -20 -20 -20 -20 -20 -20 -20 3 -20 -20 -7 -20 -20 -20 -20 -20 -20
-20 -20 -20 -20 -20 -8 -20 -20 -20 -20 -20 -20 -20 -11 -20 -20 -20 -20 -20 -20 -20 -20 -20 -20 -20 -20 -20 -20 -20 -20 -20 -20 -20 -20 -20 -20 -20 -20 -20 -20 -20 -20 -20 -20
-20 -20 -15 -20 -20 -18 -19 -20 -20 -20 -7 -19 -20 -20 -20 -19 -12 -20 -20 -20 -20 -20 -20 -20 -20 -20 -20 -20 -20 -20 -20 -12 -20 -20 -20 -20 -20 -20 -20 2 -12 -20 -20 -20
-20 -20 -20 -20 -20 -15 -4 -20 -20 -15 -20 -20 -20 -20 -20 -20 -20 8 -20 -20 -20 -6 -20 -20 -20 -20 -20 -8 -10 -20 12 39 17 -9 -15 -20 -20 20 -12 7 2 -20 -20 -20
-20 -16 -20 -20 -20 -12 -3 -20 -20 -20 -20 -20 -20 -20 -20 -20 -20 -20 -20 -20 -20 -20 -20 -20 -20 -20 -20 2 -1 -5 16 24 19 8 -18 -17 -9 37 34 34 26 -20 6 -8
-15 14 -16 -20 -20 -17 -14 -17 -19 -20 -20 -13 -20 -16 -18 -7 -20 -20 -20 -20 -20 -20 -20 -20 -20 -20 -20 -20 -20 25 -8 -15 -7 -4 22 12 30 29 1 -3 -4 -20 -20 -20
11 -4 -20 -20 -20 -18 -0 4 -18 -20 -20 -16 -20 -20 -7 -15 1 -20 -20 -20 -20 -20 -20 -20 -20 -20 -20 -20 -20 -20 -20 -17 -6 -9 -6 15 18 -11 -20 -20 -6 -19 11 7
13 -5 -20 -20 -20 -20 -17 -20 -20 -20 -20 -20 -20 -20 -20 -20 -20 -20 -20 -20 -20 -20 -20 -20 -20 -20 -20 -20 -20 -20 -20 -6 28 21 -20 -20 -20 -20 -20 -5 14 20 8 13
-5 -20 -20 -20 -20 -20 -20 -20 -20 -20 -20 -20 -20 -20 -20 -20 -20 -20 -20 -20 -20 -20 -20 -20 -20 -20 -20 -20 -20 -20 -20 -20 -20 -20 -20 -20 -20 -20 -20 -20 17 5 2 5
-20 -20 -20 -20 -19 2 -18 -20 -20 -19 -20 -20 -20 -20 -20 -20 -20 7 -5 -20 -20 -20 -20 -20 -20 -20 -20 -20 -20 -20 -20 -20 -20 -20 -20 -20 -20 -20 -20 -16 -20 -20 -20 -13
-18 -20 -20 -20 -19 14 -5 -20 -20 -19 -10 -4 -9 -20 -20 -13 -8 -19 -20 -17 -20 -20 -20 -20 -20 -20 -20 -20 -20 -20 -20 -20 -20 -20 -5 11 -20 -20 7 -20 -20 -20 -20 -20
36 -16 -4 -20 -20 -1 -18 -20 -20 -20 -18 -4 -20 -20 -20 -20 -19 -16 -20 -20 -20 -20 -20 -20 -20 -20 -20 -20 -20 -20 -20 -20 -20 -20 -20 -20 -20 -20 -20 -20 -20 -20 -20 -20
32 -14 -11 -20 -14 -20 -20 -20 -18 -19 -20 -2 -18 -20 -20 -20 -20 -20 -20 -20 -20 -20 -20 -20 -20 -20 -20 -20 -20 -20 -20 -20 -20 -20 -20 -20 -20 -20 -20 -20 -20 -20 -20 -20
16 35 14 -20 -20 -20 -20 -16 15 14 -7 -7 12 -20 -20 -20 -20 -20 -20 -20 -20 -20 -20 -20 -20 -20 -20 -20 -20 -20 -20 -20 -20 -20 -20 -20 -20 -20 -20 -20 -20 -20 -20 -20
38 10 20 -11 10 -20 -20 -20 4 19 4 10 9 -18 -20 -20 -20 -20 -20 -20 -20 -20 -20 -20 -20 -20 -20 -20 -20 -20 -20 -20 -20 -20 -20 -20 -20 -20 -20 -20 -20 -20 -20 -20
27 21 -4 -20 -19 -20 -20 -20 -10 -2 15 -0 -8 -20 -20 -20 -20 -20 -20 -20 -20 -20 -20 -20 -20 -20 -20 -20 -20 -20 -20 -20 -20 -20 -20 -20 -20 -20 -20 -20 -20 -20 -20 -20
-1 -1 2 -20 -20 -20 4 -12 4 8 -6 -9 -20 -20 -20 -20 -20 -20 -6 -20 -20 -20 -20 -20 -20 -20 -20 -20 -20 -20 -20 -20 -20 -20 -20 -20 -20 -20 -20 -20 -20 -20 -20 -20
-20 -20 -20 -20 -20 12 8 6 -1 5 -5 3 -20 -20 -20 -20 -20 -20 -18 -20 -20 -20 -20 -20 -20 -20 -20 -20 -20 -20 -20 -20 -20 -20 -20 -20 -20 -20 -20 -20 -20 -20 -20 -20
-20 -20 -20 -20 -20 3 -0 5 -20 -9 7 12 -10 -20 -20 -20 -20 -20 -20 -20 -20 -20 -20 -20 -20 -20 -20 -20 -20 -20 -20 -20 -20 -20 -20 -20 -20 -20 -20 -20 -20 -18 -19 -6

GFSCGP_prec_radar_054.txt.gz
Reflectivity
-20 -20 -20 -20 -20 -20 -20 -20 -20 -20 -20 -20 -20 -20 -20 -20 -20 -20 -20 -20 -20 -20 -20 -20 -20 -20 -20 -20 -9 -20 -20 -17 14 14 -1 -20 -20 3 -11 -20 -20 -20 -20 -20
-20 -12 -20 -20 -20 -20 -20 -20 -20 -20 -20 -20 -20 -20 -20 -20 -20 -20 -20 -20 -20 -20 -20 -20 -20 -20 -20 -20 -20 -20 -11 -5 -20 -9 -12 -20 -20 -11 -20 -20 -20 -20 -20 -20
-20 -4 -20 -20 -20 -20 -20 -20 -20 -20 -20 -20 -20 -20 -20 -20 -20 -20 -20 -20 -20 -20 -20 -20 -20 -20 -20 -20 -20 -20 -20 -20 -20 -20 -20 -20 -20 -20 -20 -10 -15 -20 -20 -20
-20 -20 -20 -20 -20 -20 -20 -20 -20 -20 -20 -20 -20 -20 -20 -20 -20 -20 -20 -20 -20 -20 -20 -20 -20 -20 -20 -20 -20 -20 -20 -20 -20 -20 -20 -20 -20 -20 -20 -20 -20 -20 -20 -20
-20 -20 -20 -20 -20 -20 -20 -20 -20 -20 -20 -20 -20 -20 -20 -20 -20 -20 -20 -20 -20 -20 -20 -20 -20 -20 -20 -20 -20 -20 -20 -20 -20 -20 -20 -20 -20 -20 -20 -20 -20 -20 -20 -20
-20 -20 -20 -20 -20 -20 -20 -20 -20 -20 -20 -20 -20 -20 -20 -20 -20 -20 -20 -20 -20 -20 -20 -20 -20 -20 -20 -20 -20 -20 -20 -20 -20 -20 -20 -20 -20 -20 -20 -20 -20 -20 -20 -20
-20 -20 -20 -20 -20 -20 -20 -20 -20 -20 -20 -20 -20 -20 -20 -20 -20 -20 -20 -20 -20 -20 -20 -20 -20 -20 -20 -20 -20 -20 -20 -20 -20 -20 -20 -20 -20 -20 -20 -20 -20 -20 -20 -20
-20 -20 -20 -20 -20 -20 -20 -20 -20 -20 -20 -20 -20 -20 -20 -20 -20 -20 -20 -20 -20 -20 -20 -20 -20 -20 -20 -20 -20 -20 -20 -20 -20 -20 -20 -20 -20 -20 -20 -20 -20 -20 -20 -20
-20 -20 -20 -20 -20 -20 -20 -20 -17 -20 -20 -20 -20 -20 -20 -20 -20 -20 -20 -20 -20 -20 -20 -20 -20 -20 -20 -4 -20 -20 -20 -20 -20 -20 -20 -20 -20 -20 -20 -20 -20 -20 -20 -20
-20 -20 -20 -20 -20 -20 -20 -20 -20 -20 -20 -20 -20 -18 -20 -20 -20 -20 -20 -20 -20 -20 -20 -20 -20 -20 -20 -11 10 19 -20 -20 -20 -20 -20 -20 -20 -4 -20 -20 -20 4 31 15
-20 -20 -20 -20 -20 -20 -20 -20 -20 -20 -20 -20 -20 -20 -20 -20 -20 -20 -20 -20 -20 -20 -20 -20 -20 -20 -20 -20 -16 -20 26 25 4 10 8 1 -20 22 26 26 19 4 31 39
-20 -20 -20 -20 -20 -20 -20 -20 -20 -20 -20 -20 -20 -20 -20 -20 -20 -20 -20 -20 -20 -20 -20 -20 -20 -20 -20 -20 -20 -20 -20 -17 -13 19 20 10 -9 26 28 34 41 19 22 -2
-13 -12 -20 -20 -20 -20 -20 -20 -20 -20 -20 -20 -20 -20 -20 -17 -20 -20 -20 -20 -20 -20 -20 -20 -20 -20 -20 -20 -20 -20 -20 -20 -20 -18 5 -20 -6 -20 29 27 22 1 3 -20
-16 -20 -20 -20 -20 -19 -20 -20 -20 -20 -20 -20 -20 -20 -20 -13 -20 -20 -14 -20 -11 -20 -20 -20 -20 -20 -20 -20 -20 -20 -20 -20 -20 -20 -12 -20 -20 29 -9 0 -2 -12 -19 -14
-6 -20 -20 -20 -20 10 -17 -20 -20 -20 -20 -20 -20 -20 -20 -20 -20 -20 -20 -20 -20 -20 -20 -20 -20 -20 -20 -20 -20 -20 -20 -20 -20 -20 -13 -20 -20 -20 -20 -8 -20 -20 28 24
4 -20 -20 -20 -20 -10 2 -20 -20 -20 -20 -20 -20 -20 -19 -20 -20 -20 -20 -20 -20 -20 -20 -20 -20 -20 -20 -20 -20 -20 -20 -20 -20 -20 -20 -1 -20 -19 -10 -15 -20 -20 -1 -10
4 -18 -20 -20 -20 -19 12 -18 -20 -20 -20 -20 -20 -20 -20 -20 -20 -20 -20 -20 -20 -20 -20 -20 -20 -20 -20 -20 -20 -20 -20 -20 -20 -20 -20 -20 -20 -20 -5 -11 31 -17 7 23
22 8 18 -20 -20 13 10 -6 -20 -20 -20 -20 -20 -20 -20 -20 -20 -20 -20 1 -20 -20 -20 -20 -20 -20 -20 -20 -20 -20 -20 -20 -20 -20 -20 -20 -20 4 -20 -20 -20 -18 25 8
-20 18 28 -1 -20 -20 -20 -20 -20 -20 -20 -20 6 -20 -20 -10 -19 -20 -20 -20 -20 -20 -20 -20 -20 -20 -20 -20 -20 -20 -20 -20 -20 -20 -19 12 26 -15 24 27 19 -20 -20 -20
12 -11 4 35 17 -20 -20 -20 -20 -20 -20 -20 -20 1 -9 10 -10 -20 -20 -20 -20 -20 -20 -20 -20 -20 -20 -20 -20 -20 -20 -20 -20 22 24 19 23 26 7 -20 -20 -20 -20 -20
-14 -10 20 29 28 16 -20 -20 -19 13 -16 -20 -20 -5 -1 7 -18 -20 -20 -20 -20 -20 -20 -20 -20 -20 -20 -20 -20 -20 -20 -20 -20 -20 -20 -20 -20 -20 -20 -20 -20 -20 -20 -20
-11 22 -1 24 28 14 -20 -19 -19 -20 -20 -20 10 12 1 -20 -20 -20 -20 -20 -20 -20 -20 -20 -20 -20 -20 -20 -20 -20 -20 -20 -20 -20 -20 -20 -20 -20 -20 -20 -20 -20 -20 -20
-20 -20 -14 20 36 12 -6 16 17 -20 -20 -20 -20 -20 -20 -20 -20 -20 -20 -20 -20 -20 -20 -20 -20 -20 -20 -20 -20 -20 -20 -20 -20 -20 -20 -20 -20 -20 -20 -20 -20 -20 -20 -20
-20 -19 11 19 16 14 16 7 -4 -20 -20 -20 -19 -20 -20 -20 -20 10 -20 -20 -20 -20 -20 -20 -20 -20 -20 -20 -20 -20 -20 -20 -20 -20 -20 -20 -20 -20 -20 -20 -20 -20 -20 -20
-20 -6 -6 11 3 -9 -16 -12 -7 -10 -7 -13 6 4 -20 -20 -20 -20 -20 -20 -20 -20 -20 -20 -20 -20 -20 -20 -20 -20 -20 -20 -20 -20 -20 -20 -20 -20 -20 -20 -20 -20 -20 -20
16 18 -12 -18 -20 -20 -20 -20 -20 -20 -17 -7 -0 24 -6 -20 -20 -20 -20 -20 -20 -20 -20 -20 -20 -20 -20 -20 -20 -20 -20 -20 -20 -20 -20 -20 -20 -20 -20 -20 -20 -20 -20 -20

GFSCGP_prec_radar_057.txt.gz
Reflectivity
-20 -20 -20 -9 -20 -20 -20 -20 -20 -20 -20 -20 -20 -20 -20 -20 -20 -20 -20 -20 -20 -20 -20 -20 -20 -20 -7 9 -20 -20 26 26 27 9 16 24 23 -14 -2 1 22 20 5 -7
-20 -20 -11 -20 -20 -20 -20 -20 -20 -20 -20 -20 -20 -20 -20 -20 -20 -20 -20 -20 -20 -20 -20 -20 -20 -20 -17 5 13 -20 -17 2 25 23 25 -6 6 -3 -7 -12 18 -7 14 -20
-20 -20 -18 -20 -20 -20 -20 -20 -20 -20 -20 -20 -20 -20 -20 -20 -20 -20 -20 -20 -20 -20 -20 -20 -20 -20 -13 -8 2 -15 -20 -20 -18 -8 -3 -11 -14 -3 2 -4 0 -20 -20 -20
-20 -20 -20 -20 -20 -20 -20 -20 -20 -20 -20 -20 -20 -20 -20 -20 -20 -20 -20 -20 -20 -20 -20 -20 -20 -20 -20 -20 -19 -20 -20 -20 -20 -20 -20 -20 -20 -19 -7 -20 -20 -20 -20 -20
-20 -20 -20 -20 -20 -20 -20 -20 -20 -20 -20 -20 -20 -20 -20 -20 -20 -20 -20 -20 -20 -20 -20 -20 -20 -20 -20 -20 -20 -20 -20 -20 -20 -20 -20 -20 -20 -20 -20 -20 -20 -20 -20 -20
-20 -20 -20 -20 -20 -20 -20 -20 -20 -20 -20 -20 -20 -20 -20 -20 -20 -20 -20 -20 -20 -20 -20 -20 -20 -20 -20 -20 -20 -20 -20 -20 -20 -20 -20 -20 -20 -20 -20 -20 -20 -20 -20 -20
-20 -20 -20 -20 -20 -20 -20 -20 -20 -20 -20 -20 -20 -20 -20 -20 -20 -20 -20 -20 -20 -20 -20 -20 -20 -20 -20 -20 -20 -20 -20 -20 -20 -20 -20 -20 -20 -20 -20 -20 -20 -20 -20 -20
-20 -20 -20 -20 -20 -9 -19 -20 -20 -20 -20 -20 -20 -20 -20 -20 -20 -20 -20 -20 -20 -20 -20 -20 -20 -20 -20 -20 -20 -20 -20 -20 -20 -20 -20 -20 -20 -20 -20 -20 -20 -20 -20 -20
-20 -20 -20 -20 -20 -9 -20 -20 -20 -20 -20 -20 -20 -20 -20 -20 -20 -20 -20 -20 -20 -20 -20 -20 -20 -20 -20 -20 -20 -20 -20 -20 -20 -20 -20 -20 -20 -20 -20 -20 -20 -20 -20 -20
-20 -20 -20 -20 -20 -20 -20 -20 -20 -20 -20 -20 -20 -20 -20 -20 -20 -20 -20 -20 -20 -20 -20 -20 -20 -20 -20 -20 -20 -20 -20 -20 -20 -20 -20 -20 -20 -20 -20 -16 -20 -20 -20 23
-20 -20 -20 -18 -20 -20 -20 -20 -20 -20 -20 -20 -20 -20 -20 -20 -20 -20 -20 -20 -20 -20 -20 -20 -20 -20 -20 -20 -17 -20 -20 -20 -20 -20 -7 -7 -8 -20 -20 -20 -20 -13 -11 7
-10 -20 -20 -20 -20 -20 -20 -20 -20 -20 -20 -20 -20 -20 -20 -20 -20 -20 -20 -20 -20 -20 -20 -20 -20 -20 -20 -20 -20 -20 23 -20 -18 -20 -16 10 23 -17 4 6 9 29 35 20
-20 -20 -20 -20 -20 -20 -20 -20 -20 -20 -20 -20 -20 -20 -20 -20 -20 -20 -20 -20 -20 -20 -20 -20 -20 -20 -20 -20 -20 -20 -20 -20 -20 13 7 -10 11 -3 -20 -20 -14 26 14 10
-20 -20 -17 -20 -20 -20 -20 -20 -20 -20 -20 -20 -20 -20 -18 -20 -20 -20 -20 -20 -20 -20 -20 -20 -20 -20 -20 -20 -20 -20 -20 -20 -20 -20 -10 -10 -4 20 -3 -20 -20 26 -8 6
-20 -20 -20 -20 -20 -20 -20 -20 -20 -20 -20 -20 -20 -20 -20 -20 -20 -20 -12 -13 -20 -20 -20 -20 -20 -20 -20 -20 -20 -20 -20 -20 -20 -20 -20 -20 -20 -10 -20 -9 -20 -20 -16 -20
-0 -17 -20 -20 -19 -20 -20 -20 -20 -20 -20 -20 -20 -20 -20 -20 -20 -20 -20 -20 -20 -20 -20 -20 -20 -20 -20 -20 -20 -20 -20 -20 -20 -20 -20 -20 -20 -20 -20 -3 -17 -20 -20 -20
-20 -20 -20 -20 -20 -20 -20 -20 -20 -20 -20 -20 -20 -20 -20 -20 -20 -20 -20 -20 -20 -20 -20 -20 -20 -20 -20 -20 -20 -20 -20 -20 -20 -20 -20 -20 -20 -20 -20 -20 -20 -20 6 3
-20 -20 -5 19 -6 12 -20 -20 -20 -20 -20 -20 -20 -20 -20 -20 -20 -20 -20 -20 -20 -20 -20 -20 -20 -20 -20 -20 -20 -20 -20 -20 -20 -20 -20 -20 -20 -20 26 25 -19 -20 6 -15
-20 -20 -7 -19 11 -1 -20 -20 -20 -20 -20 -20 -20 -20 -20 -20 -20 -20 -20 -20 -20 -20 -20 -20 -20 -20 -20 -20 -20 -20 -20 -20 -20 -20 -20 -20 -16 -20 13 9 -13 -20 -7 27
-5 -20 -20 -1 -20 2 -20 -20 -20 4 -19 -20 -20 -20 -19 -20 -20 -20 -20 -20 -20 -20 -20 -20 -20 -20 -20 -20 -20 -20 -20 -20 -20 -20 -8 16 -13 8 11 -2 24 11 4 -19
-20 -4 -8 4 -11 -16 -15 -14 3 -6 20 -20 -20 -20 -20 -20 -20 -5 -0 -20 -20 -20 -20 -20 -20 -20 -20 -20 -20 -20 -20 -20 -20 -20 -3 -20 -20 -20 -20 -19 -17 -4 15 -20
-20 -20 -20 -20 15 -6 -20 -18 -2 4 1 -20 -18 -2 -20 -20 -20 -20 -20 -8 -14 -20 -20 -20 -20 -20 -20 -20 -20 -20 -20 -20 -20 -20 -20 -20 -20 -5 -7 6 3 -16 -20 -20
-20 -20 -20 -20 -18 -20 -20 0 22 34 31 13 -20 -20 -13 -20 -20 -20 -20 -20 -19 -3 -20 -20 -20 -20 -20 -20 -20 -20 -20 -20 -20 -20 -20 -20 -20 13 19 -8 -20 -20 -20 -20
-20 -20 -20 -20 -20 -20 -20 -12 10 30 17 14 14 7 7 -20 -20 -20 -20 -20 -20 -5 -20 -20 -20 -20 1 -16 -20 -20 -20 -20 -20 -20 -20 -20 -20 -20 -20 -20 -20 -20 -20 -20
-20 -20 -20 -20 -20 -20 -8 -14 17 11 10 15 3 14 -0 10 0 -4 -0 -20 -20 -1 4 -6 -20 -20 -20 -20 -20 -3 -13 -20 -20 -20 -20 -20 -20 -20 -20 -20 -20 -20 -20 -12
-20 -20 -20 -20 -20 -17 -18 7 -15 5 -3 -7 -20 -20 19 7 -5 -19 10 -5 -20 -20 -19 -19 -20 -20 -20 -20 -20 -20 -20 -20 -20 -20 -20 -20 -20 -20 -20 -20 -16 7 6 -20

GFSCGP_prec_radar_060.txt.gz
Reflectivity
-20 -20 -20 -20 -20 -20 -20 -20 -20 -20 -20 -20 -20 -20 -20 -20 -20 -20 -20 -20 -20 -20 -20 -20 -20 -18 -20 -17 1 15 18 16 5 18 15 -20 -1 -8 -20 -13 -19 -16 -12 11
-20 -20 -20 -20 -20 -20 -20 -20 -20 -20 -20 -20 -20 -20 -20 -20 -20 -20 -20 -20 -20 -20 -20 -20 13 15 -20 -20 -20 -16 3 7 -2 12 14 24 16 21 4 -12 -20 4 -13 -0
-20 -20 -20 -20 -20 -20 -20 -20 -20 -20 -20 -20 -20 -20 -20 -20 -20 -20 -20 -20 -20 -20 -20 -11 -2 10 -20 -20 -20 -16 9 -15 20 12 29 -0 9 -8 0 -5 -20 -1 10 31
-20 -20 -20 -20 -20 -20 -20 -20 -20 -20 -20 -20 -20 -20 -20 -20 -20 -20 -20 -20 -20 -20 -20 -20 -18 -9 -20 -20 -20 -20 -20 -3 -0 5 19 7 -8 -2 -5 16 11 20 21 -4
-20 -20 -20 -20 -20 -20 -20 0 -20 -20 -20 -20 -20 -20 -20 -20 -20 -20 -20 -20 -20 -20 -20 -20 -20 -20 -20 -20 -20 -20 -20 -20 -20 -20 -20 -20 -12 -6 20 -18 -6 -1 -11 -20
-20 -20 -20 -20 -20 -20 -20 -8 -20 -20 -20 -20 -20 -20 -20 -20 -20 -20 -20 -20 -20 -20 -20 -20 -20 -20 -20 -20 -20 -20 -20 -20 -20 -20 -20 -20 -20 -20 -20 -20 -20 -20 -20 -20
-20 -20 -20 -20 -20 -20 -20 -20 -20 -20 -20 -20 -20 -20 -20 -20 -20 -20 -20 -20 -20 -20 -20 -20 -20 -20 -20 -20 -20 -20 -20 -20 -20 -20 -20 -20 -20 -20 -20 -20 -20 -20 -20 -20
-19 -20 -20 -20 -20 -20 -20 -20 -20 -20 -20 -20 -20 -20 -20 -20 -20 -20 -20 -20 -20 -20 -20 -20 -20 -20 -20 -20 -20 -20 -20 -20 -20 -20 -20 -20 -20 -20 -20 -20 -20 -20 -20 -20
-12 -20 -20 -20 -20 -20 -20 -20 -6 -20 -20 -20 -20 -20 -20 -20 -20 -20 -20 -20 -20 -20 -20 -20 -20 -20 -20 -20 -20 -20 -20 -20 -20 -20 -20 -20 -20 -20 -20 -20 -20 -20 -20 -20
-20 -20 -2 -8 -17 -20 -20 -20 -20 -20 -20 -20 -20 -20 -20 -20 -20 -20 -20 -20 -20 -20 -20 -20 -20 -20 -20 -20 -20 -20 -20 -20 -20 -20 -20 -20 -20 -20 -20 -20 -20 -20 -20 -20
-20 -20 -20 -20 -20 -20 -20 -20 -20 -20 -20 -20 -20 -20 -20 -20 -20 -20 -20 -20 -20 -20 -20 -20 -20 -20 -20 -20 -20 -20 -20 -20 -20 -20 -20 -20 -20 -20 -20 -20 -20 -4 -1 -20
-12 -15 -2 -17 -20 -20 -20 -20 -20 -20 -20 -20 -20 -20 -20 -20 -20 -20 -20 -20 -20 -20 -20 -20 -20 -20 -20 -20 -20 -20 -20 -20 -20 -18 -20 -20 -19 -17 21 -12 -20 -20 -20 -19
-19 -20 -7 -10 -20 -20 -20 -20 -20 -20 -20 -20 -20 -20 -18 -20 -20 -20 -20 -20 -20 -20 -20 -20 -20 -20 -20 -20 -20 -20 -20 -20 -20 -20 -20 -20 -20 -20 -20 -20 -20 -20 -20 -20
-20 -11 -20 -20 -20 -20 -20 -20 -20 -20 -20 -20 -20 -20 -16 -20 -20 -20 -20 -20 -20 -20 -20 -20 -20 -20 -20 -20 -20 -20 -20 -20 -20 -20 -20 -20 -20 -20 -20 -20 1 2 -20 -20
-20 -19 -16 -20 -20 -20 -20 -20 -20 -20 -20 -20 -20 -20 -15 -20 -20 -20 -20 -20 -20 -20 -20 -20 -20 -20 -20 -20 -20 -20 -20 -20 -20 -20 -20 -20 -20 -20 -20 -20 -1 9 17 -20
-20 -20 -20 -1 -11 -15 -20 -20 -20 -20 -20 -20 -20 -20 -20 -20 -20 -20 -20 -20 -20 -20 -20 -20 -20 -20 -20 -20 -20 -20 -20 -20 -20 -20 -20 -20 -20 -20 -20 -20 16 12 21 24
-20 -20 -20 -20 -20 -20 -20 -20 -20 -20 -20 -20 -20 -20 -20 -20 -20 -20 -20 -20 -20 -20 -20 -20 -20 -20 -20 -20 -20 -20 -20 -20 -20 -20 -20 -20 -20 -20 -20 -20 -20 16 25 24
-20 -20 -20 -20 -20 -20 -20 -20 -20 -20 -20 -20 -20 -20 -20 -20 -20 -20 -20 -20 -20 -20 -20 -20 -20 -20 -20 -20 -20 -20 -20 -20 -20 -20 -20 -20 -20 -20 -20 -20 -20 -16 23 25
-20 -20 -20 -20 -20 -20 -20 -20 -20 -20 -20 -20 -20 -20 -20 -20 -20 -20 -20 -20 -20 -20 -20 -20 -20 -20 -20 -20 -20 -20 -20 -20 -20 -20 -20 -20 -20 -20 -20 -20 -20 -20 5 25
-20 -20 -20 -20 -20 -20 -20 2 -2 -20 -20 -20 -20 -20 -20 -20 -20 -20 -19 16 -15 -20 2 -20 -20 -20 -20 -20 -20 -20 -20 -20 -20 -20 -20 -20 -20 -20 -18 -18 -20 21 14 -1
-2 3 13 6 -5 -20 -20 -20 -19 6 -20 -20 -20 -20 -20 -20 -20 -20 -20 -20 -16 -18 -20 -8 -20 -2 -4 -20 -20 -20 -20 -20 -20 -20 -20 -20 -20 -5 -19 2 9 15 2 8
-5 -3 -9 -0 -8 -20 -20 -20 -20 -17 -20 -20 -20 -20 -20 -20 -20 7 -20 -20 -20 -20 -20 -20 -20 -20 -17 -12 -16 -17 -20 -20 -20 -20 -19 -6 18 -20 -11 -20 -16 -3 -9 -1
-20 -20 -20 -20 -20 -20 -20 -20 -20 -20 -20 -20 5 -20 -20 -20 -20 -20 -20 -20 -20 -20 -20 -20 -20 -19 2 6 8 -7 -2 -20 -20 -20 -19 -20 -5 7 13 23 9 5 21 20
-20 -20 -20 -20 -20 -20 -20 -20 -20 -20 -20 -20 -20 12 -2 2 -18 -20 -20 -20 -20 -20 -20 -20 -2 -16 -17 -20 -20 -20 -20 -20 -16 -20 -20 -18 5 5 14 16 20 20 21 22
-20 -20 -20 -20 -20 -20 -20 -20 -20 -20 -20 -20 -20 3 20 -16 -20 22 -4 -3 -12 -20 -20 -20 4 8 -20 -20 1 24 26 -20 -20 -20 -20 -20 -7 -10 -7 17 21 19 1 -13
-20 -20 -20 -20 -20 -20 -20 -20 -20 -20 -20 -20 -20 -20 8 -1 -20 -20 -20 -7 -20 -8 4 8 -20 -20 -20 6 -7 8 -5 -13 -20 -20 -20 -20 -20 -20 -20 -20 -20 -5 -19 -0

GFSCGP_prec_radar_063.txt.gz
Reflectivity
-20 -20 -20 -20 -20 -20 -20 -20 -20 -20 -20 -20 -20 -20 -20 -20 -20 -20 -20 -20 -20 -20 -20 -20 -14 5 -16 17 -6 25 11 27 2 15 11 -6 26 23 9 17 16 -15 17 21
-20 -20 -20 -20 -20 -20 -20 -20 -20 -20 -20 -20 -20 -20 -20 -20 -20 -20 -20 -20 -20 -20 -20 -12 -5 -3 -20 -16 -10 -20 6 -11 22 13 17 4 24 12 11 8 21 -1 2 4
-20 -20 -20 -20 -20 -20 -20 -20 -20 -20 -20 -20 -20 -20 -20 -20 -20 -20 -20 -20 -20 -20 -20 -20 -20 -20 -20 -15 -20 -20 -20 -20 -14 5 14 13 17 -6 8 14 20 19 22 9
-20 -20 -20 -20 -20 -20 -20 -20 -20 -20 -20 -20 -20 -20 -20 -20 -20 -20 -20 -20 -20 -20 -20 -20 -20 -20 -20 -20 -19 -20 -20 -20 3 -9 10 27 -4 -13 -5 2 13 15 -4 -20
-19 -20 -20 -20 -20 -20 -20 -20 -20 -20 -20 -20 -20 -20 -20 -20 -20 -20 -20 -20 -20 -20 -20 -20 -20 -20 -20 -10 -20 -20 -20 -20 -10 3 4 -6 1 -19 -14 6 17 11 15 5
-16 -20 -20 -20 -20 -20 -20 -20 -20 -20 -20 -20 -20 -20 -20 -20 -20 -20 -20 -20 -20 -20 -20 -20 -20 -20 -20 -20 -20 -20 -20 -20 -20 -19 -18 -10 -20 -6 10 5 1 8 10 15
-17 -20 -20 -20 -20 -20 -20 -20 -20 -20 -20 -20 -20 -20 -20 -20 -20 -20 -20 -20 -20 -20 -20 -20 -20 -20 -20 -17 -20 -20 -20 -20 -20 -18 -15 -20 -20 -20 -12 -9 -10 -15 -20 -20
14 5 -20 -20 -20 -20 -20 -20 -20 -20 -20 -20 -20 -20 -20 -20 -20 -20 -20 -20 -20 -20 -20 -20 -20 -20 -20 -20 -20 -20 -20 -20 -20 -20 -20 -20 -20 -20 -20 -20 -20 -20 -20 -20
-4 -1 -18 -14 12 -12 -20 -20 -20 -20 -20 -20 -20 -20 -20 -20 -20 -20 -20 -20 -20 -20 -20 -20 -20 -20 -20 -20 -20 -20 -20 -20 -20 -20 -20 -20 -20 -20 -20 -20 -20 -20 -20 -20
12 2 8 -1 12 5 -20 -20 -20 -20 -20 -20 -20 -20 -19 -20 -20 -20 -20 -20 -20 -20 -20 -20 -20 -20 -20 -20 -20 -20 -20 -20 -20 -20 -20 -20 -20 -20 -20 -20 -20 -20 -20 -20
-20 -20 -20 -15 -14 -20 -20 -20 -20 -20 -20 -20 -20 -20 -15 -20 -20 -20 -20 -20 -20 -20 -20 -20 -20 -20 -20 -20 -20 -20 -20 -20 -20 -20 -20 -20 -20 -20 -20 -20 -20 -20 -20 -20
-20 2 5 -20 -20 -13 -19 -20 -20 -20 -20 -20 -20 -20 -19 -20 -20 -20 -20 -20 -20 -20 -20 -20 -20 -20 -20 -20 -20 -20 -20 -20 -20 -20 -20 -20 -20 -20 -20 -20 -8 -18 -20 -20
-20 -20 -20 7 3 -13 -20 -20 -20 -20 -20 -20 -20 -20 -17 2 -20 -20 -20 -20 -20 -20 -20 -20 -20 -20 -20 -20 -20 -20 -20 -20 -20 -20 -20 -20 -20 -20 -20 -20 -20 -20 -20 -20
-20 -13 -12 -20 -16 -20 -20 -20 -20 -20 -20 -20 -20 -20 -20 -10 -6 -20 -20 -20 -20 -20 -20 -20 -20 -20 -20 -20 -20 -20 -20 -20 -20 -20 -20 -20 -20 -20 -20 -20 -20 -20 -20 -20
-14 -12 -19 -20 1 -17 -20 -20 -20 -20 -20 -20 -20 -20 -20 -20 -5 -20 -20 -20 -20 -20 -20 -20 -20 -20 -20 -20 -20 -20 -20 -20 -20 -20 -20 -20 -20 -20 -20 -20 -20 -20 -20 -20
-20 4 -12 -16 -20 -8 -20 -20 -20 -20 -20 -20 -20 -20 -20 -9 11 11 -20 -20 -20 -20 -20 -20 -20 -20 -20 -20 -20 -20 -20 -20 -20 -20 -20 -20 -20 -20 -20 -20 -20 -20 -20 -20
-10 -12 -20 -20 -18 -20 -20 -20 -20 -20 -20 -20 -20 -20 -20 -20 -20 -13 6 -2 -20 -20 -20 -20 -20 -15 -20 -20 -20 -20 -20 -20 -20 -20 -20 -20 -20 -20 -20 -20 -20 -20 -20 -18
-19 -8 -20 -20 -20 -8 -6 -18 -20 -20 -20 -20 -20 -20 -20 -20 -20 -20 -20 -20 -18 2 -2 -20 -20 -20 -20 -20 -20 -20 -20 -20 -20 -20 -20 -20 -20 -20 -20 -20 -20 -18 1 -17
-20 -20 -20 -20 -20 -20 -20 -20 -20 -16 -12 -14 -20 -20 -20 -20 -20 -20 -20 9 15 1 11 -20 -20 -20 -20 -20 -20 -20 -20 -20 -20 -20 -20 -20 -20 -20 -20 -20 -20 -17 -20 -20
-20 -20 -9 -19 -20 -20 -20 -20 -20 -20 -20 -20 -19 -20 -20 -20 -20 -20 -20 -20 -20 -20 -20 -20 -19 -20 -20 -20 -20 -20 -20 -20 -20 -20 -20 -20 -20 -20 -20 -20 -20 -20 5 19
-2 -1 5 12 -14 -20 -20 -20 -20 -20 -20 -20 -20 -20 -20 -20 -20 -20 -20 -20 -20 -20 -20 -20 -9 -2 -16 1 -15 -20 -20 -20 -20 -20 -16 -20 -20 -20 -20 -20 -20 -20 -12 -6
-20 -20 -3 -20 8 -20 -20 -20 -20 -20 -20 -20 -20 -20 -20 -20 -20 -20 -20 -20 -20 -20 -20 -20 -20 -19 -15 -0 -18 -20 -18 -20 -20 -17 -20 -20 -20 -19 -8 11 24 -20 -15 -18
-20 -19 4 5 -20 -20 -20 -20 -20 -20 -20 -20 -20 -20 -20 -20 -20 -20 -20 -20 -20 -20 -20 -20 -15 -13 -20 -20 -20 -20 -20 -19 -20 -20 -20 -20 -8 14 22 -20 -20 -20 -12 -6
-20 -20 -20 -20 -20 -20 -20 -20 -20 -20 -20 -20 -20 -20 -20 -20 -20 -20 -19 -20 -20 -19 -19 -20 -20 -19 -19 -20 -20 -20 -20 -20 -20 -16 6 14 -9 4 -16 -20 -13 -0 16 14
-20 -20 -20 -20 -20 -20 -20 -20 -20 -20 -20 -20 -20 -20 -20 -20 -20 -20 -20 -20 -19 -5 -20 -20 -20 -20 0 -12 -20 -18 -20 -20 -20 3 -19 -14 -1 -18 -20 -16 -15 -8 4 11
-20 -20 -20 -20 -20 -6 -20 -20 -20 -20 -20 -20 -20 -20 -20 -20 -20 -20 -20 -20 -20 -20 -13 12 -20 -20 1 -20 -20 13 -7 -2 -20 24 29 -10 -20 -20 -20 -19 -0 18 15 17

GFSCGP_prec_radar_066.txt.gz
Reflectivity
-20 -20 -20 -17 -20 -20 -20 -20 -20 -20 -20 -20 -20 -20 -20 -20 -20 -20 -20 -20 -20 -20 -20 -20 -20 -20 5 -2 5 2 -20 -12 8 13 3 5 20 15 15 18 11 -20 3 -20
-20 -20 -9 -20 -20 -20 -20 -20 -20 -20 -20 -20 -20 -20 -20 -20 -20 -20 -20 -20 -20 -20 -20 -20 -20 -10 -2 2 0 7 -0 -1 1 -2 -11 -20 -13 -1 -1 14 4 -8 -6 9
-20 -20 15 -19 -20 -20 -20 -20 -20 -20 -20 -20 -20 -20 -20 -20 -20 -20 -20 -20 -20 -20 -20 -20 -20 -20 -1 6 -0 -9 -20 -20 -18 -6 -1 -7 -2 16 15 14 3 5 -20 7
-20 -17 5 -19 -20 -20 -20 -20 -20 -20 -20 -20 -20 -20 -20 -20 -20 -20 -20 -20 -20 -20 -20 -20 -20 -20 -20 -14 -16 1 -17 -15 -19 3 -15 -13 -20 -18 -18 -20 -18 -19 -20 7
-20 -14 -20 -20 -20 -19 -20 -20 -20 -20 -20 -20 -20 -20 -20 -20 -20 -20 -20 -20 -20 -20 -20 -20 -20 -20 -20 -12 -19 6 4 -19 -6 -20 -20 -20 12 14 13 8 -10 -0 -17 -4
-20 -5 -9 -20 1 -20 -20 -20 -20 -20 -20 -20 -20 -20 -20 -20 -20 -20 -20 -20 -20 -20 -20 -20 -20 -20 -20 -20 -20 -4 3 -1 -20 -15 10 8 -2 12 4 -18 -17 -9 14 23
13 -6 -20 -20 -20 -20 -20 -20 -20 -20 -20 -20 -20 -20 -20 -20 -20 -20 -20 -20 -20 -20 -20 -20 -20 -20 -20 -20 -20 -17 -4 1 4 -20 -18 -17 -4 -20 1 -13 -14 -1 14 21
20 7 -20 -13 -16 -20 -19 -20 -20 -20 -20 -20 -20 -20 -20 -20 -20 -20 -20 -20 -20 -20 -20 -20 -20 -20 -20 -20 -20 -20 -20 -20 -18 1 -20 -20 -20 -20 -16 -20 0 0 -19 -20
1 -5 4 -1 15 -9 -20 -20 -20 -20 -20 -20 -20 -20 -20 -20 -20 -20 -20 -20 -20 -20 -20 -20 -20 -20 -20 -20 -20 -20 -20 -20 -20 -20 -11 -20 -20 -20 -20 -20 -20 -20 -20 -20
-19 -9 3 13 13 -5 -20 -20 -19 -20 -10 -12 -20 -20 1 -18 -20 -20 -20 -20 -20 -20 -20 -20 -20 -20 -20 -20 -20 -20 -20 -20 -20 -20 -20 -20 -20 -20 -20 -20 -20 -20 -20 -20
-8 -20 -16 -2 4 -20 -20 -20 -20 -20 -20 -20 -12 -17 -6 -17 -20 -20 -20 -20 -20 -20 -20 -20 -20 -20 -20 -20 -20 -20 -20 -20 -20 -20 -20 -20 -20 -20 -20 -20 -20 -20 -20 -20
7 6 -11 -20 -20 -20 -4 -20 3 -7 -20 -20 -20 -20 -16 4 -20 -20 -20 -20 -20 -20 -20 -20 -20 -20 -20 -20 -20 -20 -20 -20 -20 -20 -20 -20 -20 -20 -20 -20 -20 -20 -20 -20
0 -12 -20 -20 -20 -20 -20 -20 -20 -20 -20 -20 -20 -20 -20 10 3 -20 -20 -20 -20 -20 -20 -20 -20 -20 -20 -20 -20 -20 -20 -20 -20 -20 -20 -20 -20 -20 -20 -20 -20 -20 -20 -20
-2 3 -0 -15 -19 -4 -20 -20 -20 -20 -20 -20 -20 -20 -20 -4 -3 -1 -20 -20 -20 -20 -20 -20 -20 -20 -20 -20 -20 -20 -20 -20 -20 -20 -20 -20 -20 -20 -20 -20 -20 -20 -20 -20
3 24 2 -3 -20 -20 -20 3 -0 -5 -20 -20 -20 -20 -20 -8 -13 -20 -15 -20 -20 -20 -20 -20 -20 -20 -20 -20 -20 -20 -20 -20 -20 -20 -20 -20 -20 -20 -20 -20 -20 -20 -20 -20
17 6 -17 2 -17 -19 -20 -20 -6 -15 -20 -20 -20 -20 -20 -20 -20 -20 -11 14 -20 -20 -20 -20 -20 -20 -20 -20 -20 -20 -20 -20 -20 -20 -20 -20 -20 -20 -20 -20 -20 -20 -20 -20
-20 15 7 -3 -20 -17 0 8 11 5 -12 -20 -20 -20 -20 -20 -20 -20 -13 -12 -4 -20 -20 -20 -20 -20 -20 -20 -20 -20 -20 -20 -20 -20 -20 -20 -20 -20 -20 -20 -20 -20 -20 -20
-3 9 19 5 -14 -17 -14 -18 -19 -11 -19 -20 -20 -20 -20 -20 -20 -20 -20 -20 -13 -10 -20 -20 -20 -20 -20 -20 -20 -20 -20 -20 -20 -20 -20 -20 -20 -20 -20 -20 -20 -20 -20 -20
-19 -11 12 -11 3 5 3 -9 -20 -19 -11 -20 -20 -20 -20 -20 -20 -20 -20 -20 -20 -20 -20 -20 -3 -19 -20 -20 -20 -20 -20 -20 -20 -20 -20 -20 -20 -20 -20 -20 -20 -20 -20 -12
-20 -20 -5 11 -17 -9 -19 -7 -20 -15 -20 -20 -20 -20 -20 -20 -20 -20 -20 -20 -20 -20 -20 -20 -13 -10 -20 -20 -20 -20 -20 -20 -20 -20 -20 -20 -20 -20 -20 -20 -20 -20 -4 -20
0 -4 -20 -7 2 -16 -20 -4 -9 -20 -9 -20 -20 -20 -20 -20 -20 -20 -20 -20 -20 -20 -20 -20 -20 -20 -20 -20 3 -20 -20 -20 -20 -20 -8 -17 1 -11 -20 -20 -20 -20 -20 -20
-13 -0 -0 -2 9 14 -20 -20 -20 -17 -20 -20 -20 -20 -20 -20 -20 -20 -20 -20 -20 -20 -20 -20 -20 -20 -20 -20 -20 -20 -20 -20 -20 -20 -20 -20 -20 -20 -20 -20 -20 14 25 -9
18 -6 22 7 5 -3 -20 -20 -20 -20 -20 -20 -20 -20 -20 -20 -20 -20 -20 -20 -20 -20 -20 -20 -20 -20 -20 -20 -20 -20 -20 -20 -20 -20 -19 -20 -20 -20 -13 26 -20 10 -9 -12
-20 -20 -3 -19 -20 -20 -20 -20 -20 -20 -20 -20 -20 -20 -20 -20 -20 -20 -20 -20 -20 -20 -20 -20 -20 -20 -20 -20 -20 -20 -12 1 12 -20 -20 16 24 20 14 5 5 -7 -16 8
-20 -20 -20 -20 -20 -20 -20 -20 -20 -20 -20 -20 -20 -20 -20 -20 -20 -20 -20 -20 -20 -20 -20 -20 -20 -20 -20 -16 -9 9 -9 -3 16 18 -1 -11 -10 -2 -20 -20 -11 -20 -14 3
-20 -20 -11 -1 -20 -20 -11 -20 -20 -20 -20 -20 -20 -20 -20 -20 -20 -20 -20 -20 -20 -20 -20 -20 -20 -20 -20 7 21 -1 18 16 17 24 -15 -2 -20 -20 -20 -20 -5 13 19 14

GFSCGP_prec_radar_069.txt.gz
Reflectivity
4 -20 -20 -20 -10 0 -18 -20 -20 -20 -20 -20 -20 -20 -20 -20 -20 -20 -20 -20 -20 -20 -20 -20 -20 -20 4 -4 1 -12 -20 0 8 11 13 10 18 19 25 20 18 20 16 8
23 -20 -20 3 0 4 -20 -20 -20 -20 -20 -20 -20 -20 -20 -20 -20 -20 -20 -20 -20 -20 -20 -20 -20 -20 -16 0 -10 1 -16 -10 9 4 4 3 -18 -2 9 19 14 11 -20 -20
21 -20 -9 8 -7 -20 -20 -20 -20 -20 -11 -20 -20 -20 -20 -20 -20 -20 -20 -20 -20 -20 -20 -20 -20 -20 -19 3 1 0 2 -16 -20 -19 -12 7 5 15 -3 6 3 -10 -20 -14
27 22 3 6 -10 -0 -20 -20 -20 -20 -20 -20 -20 -20 -20 -20 -20 -20 -20 -20 -20 -20 -20 -20 -20 -20 -20 -12 2 7 -2 -1 -20 -17 -6 -20 -16 8 -20 -12 -6 10 -20 -20
29 -7 3 9 -20 15 -20 11 -20 -20 -20 -20 -20 -20 -20 -20 -20 -20 -20 -20 -20 -20 -20 -20 -20 -20 -20 -20 -20 2 2 -17 -2 1 -11 -20 -20 5 -20 11 13 17 -13 -20
7 24 13 5 5 17 -9 1 -20 -20 -20 -20 -20 -20 -20 -20 -20 -20 -20 -20 -20 -20 -20 -20 -20 -20 -20 -20 -10 5 -2 -11 -8 3 3 -20 -20 -19 -20 7 -9 -15 -10 -16
7 28 3 -9 -9 6 -20 -20 -20 -20 -20 -20 -20 -20 -20 -16 -20 -20 -20 -20 -20 -20 -20 -20 -20 -20 -20 -20 -20 -20 -11 -6 -8 -20 -14 -11 -20 -20 -20 -20 10 -17 -13 -6
22 20 15 4 -20 6 -20 -20 -20 -18 -20 -20 -20 -20 -20 -20 -20 -20 -20 -20 -20 -20 -20 -20 -20 -20 -20 -20 -20 -20 -20 -15 4 -6 -20 -4 -20 -20 -20 -20 -3 -20 -20 -19
-4 -20 17 20 14 11 9 -20 -20 -4 -13 -19 7 -20 -20 -20 -20 -20 -20 -20 -20 -20 -20 -20 -20 -20 -20 -20 -20 -20 -20 -20 -20 6 -5 -20 -0 -20 -5 -14 -20 -20 -20 -20
15 10 20 24 22 4 -4 -1 -20 -18 0 7 1 -18 4 -20 -16 -20 -20 -20 -20 -20 -20 -20 -20 -20 -20 -20 -20 -20 -20 -20 -20 -10 4 -5 -20 -20 -20 -20 -20 -20 -20 -20
16 4 17 11 14 -5 10 -5 -20 -1 -15 -17 -11 -1 1 -20 -17 -20 -20 -20 -20 -20 -20 -20 -20 -20 -20 -20 -20 -20 -20 -20 -20 -20 -20 -7 -11 -9 -20 -20 -20 -20 -20 -20
13 6 11 7 -14 2 15 17 -20 -20 -12 -20 -17 11 -20 -20 -20 -20 -20 -20 -20 -20 -20 -20 -20 -20 -20 -20 -20 -20 -20 -20 -20 -20 -20 -20 -20 -20 -20 -20 -20 -20 -20 -20
30 4 11 17 10 12 8 3 11 3 6 21 13 -20 -0 -19 -20 -16 -20 -20 -20 -20 -20 -20 -20 -20 -20 -20 -20 -20 -20 -20 -20 -20 -20 -20 -20 -20 -20 -20 -20 -20 -20 -20
3 7 9 -5 9 -1 -7 -14 -2 5 -12 -20 -3 -19 -20 -20 -20 -10 -13 -20 -20 -10 -20 -20 -20 -20 -20 -20 -20 -20 -20 -20 -20 -20 -20 -20 -20 -20 -20 -20 -20 -20 -20 -20
-11 7 24 9 15 8 18 16 9 2 -20 -1 -12 -7 -20 -7 -20 -20 -17 -20 -20 -20 -20 -20 -20 -20 -20 -20 -20 -20 -20 -20 -20 -20 -20 -20 -20 -20 -20 -20 -20 -20 -20 -20
20 3 40 15 7 -2 -20 -20 -6 -1 1 -1 -15 -17 8 12 1 -20 -20 -17 -20 -20 -5 -20 -20 -20 -20 -20 -20 -20 -20 -20 -20 -20 -20 -20 -20 -20 -20 -20 -20 -20 -20 -20
12 26 24 23 12 -1 5 -11 10 2 -4 -17 3 16 -7 11 -17 -7 -20 -20 -7 -6 -20 -20 -20 -20 -20 -20 -20 -20 -20 -20 -20 -20 -20 -20 -20 -20 -20 -20 -20 -20 -20 -20
-4 18 25 23 -1 3 17 4 3 9 16 15 12 12 -14 -20 -20 -20 -20 -20 -13 -18 -20 -20 -20 -20 -20 -20 -20 -20 -20 -20 -20 -20 -20 -20 -20 -20 -20 -20 -20 -20 -20 -20
-7 10 18 -4 6 26 4 -20 13 19 13 -18 -12 8 -0 -17 -20 -20 -20 -20 -20 -17 -20 4 -15 -20 -20 -20 -20 -20 -20 -20 -20 -20 -17 5 -19 -20 -20 -20 -20 -20 -20 -20
-20 -19 -1 15 16 6 9 13 28 17 22 -20 -19 -20 -20 -19 -20 8 -20 -19 -20 -20 -20 -20 -20 -4 0 -16 -15 -20 -20 -20 -20 -20 -20 -20 6 -17 0 -20 -20 -20 -20 -20
-4 -8 -20 3 5 -1 -14 -3 11 10 24 -20 -20 -20 -20 -20 -20 -20 -20 -20 -20 -20 -20 -20 -18 -14 -20 -11 -5 10 -1 -9 -12 -18 -16 -20 -20 -20 -20 -20 -20 -20 -20 -13
-9 6 1 0 4 2 -20 -20 -4 -4 -20 -20 -20 -20 -20 -20 -20 -20 -20 -20 -20 -20 -20 -20 -20 -20 -12 -20 -20 -20 -20 -20 -10 1 7 -20 -20 -20 -16 -18 5 2 7 -6
15 -19 11 -20 -20 -20 -20 -2 -20 -20 -20 -20 -20 -20 -20 -20 -20 -20 -20 -20 -20 -20 -20 -20 -20 -20 -20 -20 -20 -20 -20 -20 -18 -13 -20 -10 -15 -19 -20 -3 -20 -3 -12 19
3 4 6 -6 -20 27 -9 -20 -20 -20 -20 -20 -20 -20 -20 -20 -20 -20 -20 -20 -20 -20 -20 -20 -20 -20 -20 -20 -20 -20 -2 12 -4 1 21 11 1 1 -6 -6 11 18 22 21
5 -20 -20 -19 24 16 -12 -20 -20 -20 -20 -20 -20 -20 -20 -20 -20 -20 -20 -20 -20 -20 -20 -20 -20 -20 -20 -20 -20 -20 -20 10 15 22 21 25 24 16 19 17 24 22 25 26
-20 13 -16 26 -20 -20 -11 -20 -20 -20 -20 -20 -20 -20 -20 -20 -20 -20 -20 -20 -20 -20 -20 -20 -20 -20 -20 -20 -20 -20 -20 -13 9 -3 21 31 24 20 21 23 22 23 20 14

GFSCGP_prec_radar_072.txt.gz
Reflectivity
-20 -20 -20 16 -20 -15 -16 -7 -16 -9 -20 -16 -20 -20 -20 -20 -20 -20 -20 -20 -20 -20 -20 -20 -20 -20 -20 5 -14 -20 -20 -20 -20 2 -12 -20 -13 -16 2 11 1 13 14 13
-20 -20 -20 -11 4 -10 -20 2 -20 -5 4 -1 -13 -20 -20 -20 -20 -20 -20 -20 -20 -20 -20 -20 -20 -20 -20 -9 -12 -20 -20 -18 -20 -2 -15 -20 -20 -14 3 15 17 5 11 5
-4 -20 -17 24 16 -19 -20 -18 -1 -20 -20 -0 -20 -20 -20 -20 -20 -20 -20 -20 -20 -20 -20 -20 -20 -20 -20 -20 3 -13 -2 -15 -19 -20 -15 12 5 2 3 -6 -2 8 7 3
8 -20 5 11 16 -18 -20 -17 9 -20 -20 -20 -15 -20 -20 -20 -20 -20 -20 -20 -20 -20 -20 -20 -20 -20 -20 -20 -15 9 3 -20 -20 10 -3 -20 -11 10 -8 -17 -14 3 -8 -20
-10 3 20 6 18 -18 -19 18 25 19 -16 -20 -20 -20 -20 -20 -20 -20 -20 -20 -20 -20 -20 -20 -20 -20 -20 -20 -20 -19 -19 -20 -20 -2 -17 -20 -8 -20 -20 -20 -20 -20 -18 -20
-17 14 1 -17 -17 16 0 32 13 6 -11 -20 -20 -20 -20 -19 -20 -10 -20 -20 -20 -20 -20 -20 -20 -20 -20 -20 -14 -2 6 -14 -20 -5 -5 -20 -20 -20 -20 -20 -20 -20 -20 2
-20 -10 24 -20 2 11 5 27 23 0 -20 -20 -20 -20 -20 -20 -14 -20 -20 -20 -20 -20 -20 -20 -20 -20 -20 -20 -20 -9 -20 -14 -19 -10 12 -5 -20 -20 -20 -20 -20 -20 -20 -20
-6 -4 -8 12 9 29 16 13 2 6 -20 -20 -20 -20 -20 -20 -20 -20 -20 -20 -20 -20 -20 -20 -20 -20 -20 -20 -20 -20 -11 -19 1 6 -17 1 -20 -20 -20 -20 -20 -20 -20 -20
2 -0 8 18 -10 26 18 28 -17 23 4 2 -20 -20 -19 -19 -20 -20 -20 -20 -20 -20 -20 -20 -20 -20 -20 -20 -20 -20 -20 -20 -20 -20 -20 -15 -20 6 -20 -20 -20 -20 -20 -20
-7 18 1 12 25 22 19 14 12 27 14 1 -12 -19 -0 -15 -20 -20 -20 -20 -20 -20 -20 -20 -20 -20 -20 -20 -20 -20 -20 -20 -20 -20 -20 -20 -19 5 -20 -20 -20 9 -20 -20
-17 19 6 26 24 -2 12 20 23 6 -11 14 15 5 35 22 10 -20 -20 -20 -20 -20 -20 -20 -20 -20 -20 -20 -20 -20 -20 -20 -20 -20 -20 -20 -20 -8 -20 -20 -20 -20 -1 -20
17 7 -18 -1 0 16 24 25 9 20 3 7 -18 -10 -14 -15 3 -9 -20 -20 -20 -20 -20 -20 -20 -20 -20 -20 -20 -20 -20 -20 -20 -20 -20 -20 -20 -20 -19 -20 -20 -20 -20 -20
-13 -3 -18 12 6 15 29 13 14 10 21 14 13 -19 -20 9 10 -19 -20 -6 5 -19 -20 -20 -20 -20 -20 -20 -20 -20 -20 -20 -20 -20 -20 -20 -20 -20 -20 -20 -20 -20 -20 -20
2 -15 -18 -3 28 32 20 -12 17 28 24 10 -20 2 7 10 6 -10 -20 -20 -2 -8 -5 -20 -20 -20 -20 -20 -20 -20 -20 -20 -20 -20 -20 -20 -20 -20 -20 -20 -20 -20 -20 -20
5 8 20 -2 10 11 35 26 18 23 25 19 -4 14 30 20 -8 -14 -18 -20 -20 -20 8 9 0 -20 -20 -20 -20 -20 -20 -20 -20 -20 -20 -20 -20 -20 -20 -20 -20 -20 -20 -20
-2 1 -1 4 15 18 28 10 7 23 27 4 3 19 23 10 8 -15 -20 -20 -20 -20 -20 -20 -20 -20 -19 -6 -20 -20 -20 -20 -20 -20 -20 -20 -20 -20 -20 -20 -20 -20 -20 -20
-20 -20 20 20 26 19 -4 15 21 14 -12 3 -11 20 -1 -3 -20 -20 -20 -18 -20 10 5 -20 -20 -20 -20 -20 -20 -20 -20 -20 -20 -20 -20 -20 -20 -20 -20 -20 -20 -20 -20 -20
-20 1 21 20 9 -9 -17 4 -9 12 10 8 7 27 21 5 12 -20 -20 -20 -20 -20 -20 -20 -20 -20 -20 -20 -14 -20 -20 -2 -20 -20 -20 -20 -20 -20 -20 -20 -20 -20 -20 -20
-20 7 12 18 12 8 12 34 -1 9 24 31 31 24 26 -7 17 -20 -20 -20 -20 -18 -20 -20 -19 -20 -17 -9 -20 -17 -5 -20 -17 -20 -20 -20 -20 -20 -20 -20 -12 0 -20 -20
-20 -6 16 11 11 11 9 5 20 8 34 31 38 21 -8 13 23 11 -17 -20 -20 -20 -20 -20 -20 -20 -20 -0 -8 -14 -20 -20 -20 -20 -20 -20 -20 -20 -20 -20 -20 -20 -6 -20
-20 7 -12 9 18 -9 -2 6 21 30 26 31 21 -20 -6 -18 -20 -20 -20 -20 -20 -20 -20 -20 -20 -20 -20 -10 -17 -20 -15 -9 -10 -4 3 -20 -20 -20 -20 -1 -20 -20 -20 -20
-10 11 2 -4 12 11 -12 31 16 18 28 3 -2 8 -5 -8 11 -20 -20 -20 -20 -20 -20 -20 -20 -20 -20 -20 -20 -20 -20 -14 -12 -13 -9 11 -4 1 -4 17 6 -20 -9 -8
12 -18 -18 -20 -20 24 -6 -10 -20 16 -18 -20 -20 -20 -20 -17 -20 -20 -20 -20 -20 -20 -20 -20 -20 -20 -20 -20 -20 -20 -20 -20 -20 -20 -17 -16 -20 -18 -19 15 21 -6 1 9
13 -20 23 -9 30 9 -15 -20 -20 -20 -20 -20 -20 -20 -20 -20 -20 -20 -20 -20 -20 -20 -20 -20 -20 -20 -20 -20 -20 -20 -20 -20 -20 -20 -15 -18 -19 4 -15 -11 15 12 16 8
8 13 -11 20 36 28 27 -11 -20 -20 -20 -20 -20 -20 -20 -20 -20 -20 -20 -20 -20 -20 -20 -20 -20 -20 -20 -20 -20 -20 -20 -20 -20 -20 -17 9 1 -13 -4 17 11 18 23 25
24 8 18 32 24 38 24 -15 -20 -20 -20 -20 -20 -20 -20 -20 -20 -20 -20 -20 -20 -20 -20 -20 -20 -20 -20 -20 -20 -20 -20 -20 -20 -20 -20 -12 11 14 8 -2 9 26 28 28

GFSCGP_prec_radar_078.txt.gz
Reflectivity
-20 -20 -20 -20 -20 -20 -20 -20 -20 -20 -20 8 8 -20 -20 -20 -20 -20 -20 -20 -20 -20 -20 -20 -20 -20 -20 -20 -20 -20 -20 -20 -20 13 -2 13 16 25 22 12 -12 19 19 19
-20 -20 -20 -20 -20 -20 -20 -20 -20 -20 -20 -4 -16 -20 -20 -20 -20 -20 -20 -20 -20 -20 -20 -20 -20 -20 -20 -20 -20 -20 -20 -20 -1 -12 -0 15 13 19 30 12 -7 -17 16 14
-20 -20 -20 -20 -20 -20 -20 -20 -20 -20 -20 6 -17 -20 -20 -20 -20 -20 -20 -20 -20 -20 -20 -20 -20 -20 -20 -20 -20 -20 -20 -20 -15 -20 -12 3 12 15 28 16 24 17 27 15
-20 -20 -20 -20 -20 -20 -20 -20 -20 -20 -11 -9 -20 -20 -20 -20 -20 -20 -20 -20 -20 -20 -20 -20 -20 -20 -20 -20 -20 -20 -20 -20 -20 -20 -19 -19 5 12 25 27 30 31 22 16
-20 -20 -20 -20 -20 -20 -20 -20 -20 -20 -20 -20 -20 -20 -20 -20 -20 -20 -20 -20 -20 -20 -20 -20 -20 -20 -20 -20 -20 -20 -20 -20 -20 -20 -20 -20 -20 -20 13 6 24 30 23 26
-20 -20 -20 -20 -20 -20 -20 -20 -20 -20 -11 -20 -20 -20 -20 -20 -15 -19 -20 -20 -20 -20 -20 -20 -20 -20 -20 -20 -20 -20 -20 -20 -20 -20 -20 -20 -20 -20 -20 -13 -15 -16 6 -0
-20 -20 -20 -20 -20 -20 -20 -17 3 -0 2 -20 -20 -20 -20 -20 -6 -20 -20 -20 -20 -20 -20 -20 -20 -20 -20 -20 -20 -20 -8 -20 -20 -20 -20 -20 -20 -20 -20 -19 -8 -20 -20 2
-20 -20 -20 -20 -20 -13 -17 -1 14 -10 2 -20 -20 -20 3 17 -16 -20 -20 -20 -20 -20 -20 -20 -20 -20 -20 -20 -20 -20 -20 2 6 3 -20 -18 -20 -20 -20 -20 -20 -20 -20 -20
-20 -20 -20 -20 -20 -20 26 27 -9 9 4 -20 -18 -19 14 18 11 -20 -20 -20 -20 -20 -20 -20 -20 -20 -20 -20 -20 -20 -20 -19 9 -6 5 5 -17 -20 -20 -20 -20 -20 -20 -20
-20 -20 -20 -20 -20 -2 12 32 22 29 7 -3 -20 -20 5 -6 -20 -20 -20 -20 -20 -20 -20 -20 -20 -20 -20 -20 -20 -20 -20 -20 -4 -20 -1 10 3 4 -20 -20 -20 -20 -20 -20
-20 -20 -20 1 -13 -18 23 24 25 9 -8 8 -5 13 13 13 12 -20 -17 -20 -20 -20 -20 -20 -20 -20 -20 -20 -20 -20 -20 -20 -20 -20 -20 -10 -16 7 -1 -20 -20 -20 -20 -20
-20 -19 -20 -20 -20 -20 -11 31 15 -10 2 -20 -19 -18 -7 26 -10 -7 3 -8 -20 -20 -20 -20 -20 -20 -20 -20 -20 -20 -20 -20 -20 -20 -20 -20 -20 -19 1 -20 1 -20 -20 -20
-20 -3 -20 -20 -20 9 -4 1 8 27 -10 -9 -13 6 36 22 -20 -14 -15 -20 -20 -20 -20 -20 -20 -20 -20 -20 -20 -20 -20 -20 -20 -20 -20 -20 -20 -20 -20 -20 -16 4 -4 -20
-20 -20 -20 -20 -20 20 20 35 25 33 34 -15 -20 14 39 12 -1 -8 14 -13 -20 -20 -20 -20 -20 -20 19 -10 -20 5 21 -20 -0 -20 -20 -20 -20 -20 -20 -20 -20 -13 8 9
-20 -20 -20 -20 -20 -20 -20 -5 6 20 34 12 -20 8 31 39 25 11 31 9 -20 -20 11 -0 22 0 -4 -4 -20 -20 -20 -20 -20 -20 -20 -20 -20 -20 -20 -20 -20 -20 -19 -16
-20 -20 -20 -20 -20 10 6 0 -20 -20 11 -10 -2 24 36 33 40 20 21 15 -20 -20 -20 -20 -20 15 -20 -1 19 23 -5 1 -20 -20 14 -4 -20 -20 -20 -7 -20 -20 -20 -20
-10 23 -14 -20 -20 -20 -20 -13 -20 -20 -5 -19 1 -5 36 37 34 31 7 -15 -2 9 -20 -20 -20 -20 -20 -20 -20 -20 -20 -14 -20 -15 -20 -20 9 -20 -20 -20 -8 18 -14 -12
-20 -20 -20 -20 -20 -13 -8 21 8 30 24 -10 11 15 35 38 21 34 19 -2 7 -15 -1 -20 -20 -20 -20 -20 -20 -20 -20 -20 -20 -20 -20 -20 -20 -20 -15 -19 4 -20 -20 18
-20 -20 -20 -20 -20 -20 -8 33 35 35 29 16 -4 16 38 32 17 23 12 26 18 19 13 12 -3 -16 -20 -20 -20 -20 -20 -20 -20 -20 -20 -20 -20 -20 -20 -18 -20 -1 -16 -4
-20 -20 -20 -16 -20 -20 7 28 32 30 40 39 32 37 36 24 3 -2 -20 6 14 16 22 7 -16 -20 -20 -20 -20 -16 -20 -20 -20 -20 -20 -20 -20 -20 -20 -20 -20 -20 -20 2
-20 -17 -2 -2 -6 -20 -5 7 35 33 36 20 20 19 15 28 21 9 1 1 20 17 12 -4 -20 -20 -20 -20 -20 -20 -20 -20 -20 -20 -20 -20 -20 -20 -20 -20 -20 -20 -19 14
-20 -2 9 16 16 -16 10 18 32 34 31 31 31 31 31 30 19 9 -5 13 11 10 12 -2 -20 -20 -20 -20 -20 -20 -20 -20 -20 -20 -20 -20 -20 -20 -20 -20 -20 -20 -20 -16
15 -9 -12 -20 -20 -5 3 19 31 20 34 23 25 22 26 22 18 21 5 -20 -20 -19 -16 -20 -20 -20 -20 -20 -20 -20 -20 -20 -20 -20 -20 -20 -20 -20 -20 -20 -20 -20 -20 -20
39 -4 19 21 36 13 6 19 0 8 17 -7 4 2 7 5 -3 10 -12 -20 -20 -20 -20 -20 -20 -20 -20 -20 -20 -20 -20 -20 -20 -20 -20 -20 -20 -20 -20 -20 -20 -20 -20 -20
19 28 19 20 30 27 31 34 29 -8 9 -19 -2 5 11 9 -4 -20 -20 -20 -20 -20 -20 -20 -20 -20 -20 -20 -20 -20 -20 -20 -20 -20 -20 -20 -20 -20 -20 -19 -18 -20 -20 -19
30 24 28 25 33 33 34 31 17 14 7 -4 3 -17 -20 -18 -14 -19 -20 -20 -20 -20 -20 -20 -20 -20 -20 -20 -20 -20 -20 -20 -20 -20 -20 -20 -20 -20 -20 -20 -18 -17 -17 -15

GFSCGP_prec_radar_081.txt.gz
Reflectivity
-20 -20 -20 -20 -20 -20 -20 -20 -20 -20 -20 -20 -20 -20 -20 -20 -20 -20 -20 -20 -20 -20 -20 -20 -20 -20 -20 -20 -20 -20 -20 -10 -2 -4 -14 -1 16 20 33 38 29 35 35 19
-20 -20 -20 -20 -20 -20 -20 -20 -20 -20 -20 -20 -20 -20 -20 -20 -20 -20 -20 -20 -20 -20 -20 -20 -20 -20 -20 -20 -20 -20 -20 -19 -19 -20 -15 -12 8 17 27 32 27 28 22 2
-20 -20 -20 -20 -20 -20 -20 -20 -20 -20 -20 -20 -20 -20 -20 -20 -20 -20 -20 -20 -20 -20 -20 -20 -20 -20 -20 -20 -20 -20 -20 -20 -20 -20 -20 -13 -5 4 35 35 25 32 32 27
-20 -20 -20 -20 -20 -20 -20 -20 -20 -20 -20 -20 -20 -20 -20 -20 -20 -20 -20 -20 -20 -20 -20 -20 -20 -20 -20 -20 -20 -20 -20 -20 -20 -20 -20 -17 2 9 19 33 30 20 21 18
-20 -20 -20 -20 -20 -20 -20 -20 -20 -20 -20 -20 -20 -4 -20 -20 -20 -20 -20 -20 -20 -20 -20 -20 -20 -20 -20 -20 -20 -20 -20 -9 -20 -20 -20 -20 -20 -17 7 37 37 24 3 10
-20 -20 -20 -20 -20 -20 -20 -20 -20 -20 -11 -18 -20 -16 -20 -20 -20 -20 -12 4 0 -6 -20 -20 -20 -20 -20 -20 -20 -20 -20 -20 -8 -20 -20 -20 -20 -20 -8 28 30 34 32 35
-20 -20 -20 -20 -20 -20 -20 3 -20 -20 -19 -20 -20 -20 -20 -20 -20 -20 8 15 -9 -14 -20 -20 -20 -20 -20 -20 -20 -20 -20 -20 -20 -20 -20 -14 -20 -20 -20 -19 9 29 32 31
-20 -20 -20 -20 -20 -20 -20 -0 -18 -20 -20 -20 -20 -20 -20 -20 -20 -9 2 -19 -20 -20 -6 -20 -20 -20 -20 -20 -20 -20 -20 -20 -20 -20 -11 -20 -20 -20 -20 -20 -20 -17 -10 -10
-20 -20 -20 -20 -20 -20 -12 10 -19 13 -15 15 -20 -20 -20 -20 -20 12 7 -14 -20 -1 -20 -20 -20 -20 -20 -20 -20 -20 -20 -20 -20 -20 -3 -10 -20 -20 -20 -20 -20 -20 -20 -20
-20 -20 -20 -20 -20 -20 -20 16 19 5 -8 12 -20 -20 -20 -20 -20 -14 -20 -20 -20 -20 -18 -20 -20 -20 -20 -20 -20 -20 -20 -20 -20 -20 -20 -20 -20 -20 -20 -20 -20 -20 -20 -20
-20 -20 -20 -15 -15 -20 -7 10 18 20 -20 10 13 4 -20 -20 -20 -20 -20 -20 -20 -20 -3 -20 -20 -20 -20 -20 -20 -20 -20 -20 -20 -20 -20 -20 -20 -20 -20 -20 -20 -20 -20 -20
-20 -10 -20 -20 -20 -20 2 8 14 21 22 -20 -19 -20 -20 -20 -20 -20 -20 -20 -20 -20 -13 -20 -20 -20 -20 -20 -20 -20 -20 -20 -20 -20 -20 -1 -20 -20 -20 -20 -20 -20 -20 -20
-20 -8 -20 -20 -20 -13 13 8 8 19 28 -5 -11 -20 16 16 -20 -20 -20 -20 -20 -20 -20 -20 -20 -20 -20 -20 -20 -20 -20 -20 -20 -20 -20 -20 -2 -20 -20 -20 -20 -20 -20 -20
-20 -20 -20 -20 -20 -20 -20 -20 -2 8 23 12 10 -20 -19 16 3 -5 -5 -20 -20 -20 -20 -20 -20 -20 -16 27 -20 -20 -20 -20 -20 -20 -20 -20 -20 -20 -20 -20 -20 -20 -20 -9
-20 -20 -20 -20 -20 -20 -20 -20 -20 -5 -20 0 -20 3 9 14 34 29 16 -13 9 -20 -20 -20 -20 15 -11 -3 11 -20 -20 -20 -20 -20 -20 -20 -20 -20 -20 -20 -20 -20 -20 -20
-20 -20 -20 -20 -20 -20 -20 -20 -20 -20 -20 7 -16 -14 17 27 26 36 15 -20 -17 18 21 -2 -20 25 20 19 17 23 -20 -20 -20 -20 11 -20 -20 -20 -20 -20 -20 -20 -20 -20
-20 -20 -20 -20 -20 -20 -20 -20 -14 2 5 -20 -4 -20 -9 32 30 32 34 9 -6 11 2 -9 -8 -19 13 11 18 8 10 -20 1 4 -15 -20 -15 15 -20 -20 -20 -9 -20 -20
-20 -20 -20 -20 -20 -20 -20 -20 -20 5 14 -13 -12 -18 11 -3 28 35 31 35 23 34 5 -20 -20 -20 -20 -20 -20 -20 -20 -20 -20 -20 -8 10 12 3 -2 3 -15 -6 -12 -9
-20 -20 -20 -20 -20 -20 -20 -20 16 36 19 25 24 11 -20 9 8 37 35 30 26 29 -20 -20 -20 -20 -20 -20 -20 -20 -20 -20 -20 -20 -17 -20 4 -18 -19 -18 -20 -2 12 5
-20 -20 -13 -16 -4 -20 -20 -20 17 12 22 40 12 22 -16 -6 28 38 34 32 23 13 3 -17 -20 -20 -20 -20 -20 -20 -20 -20 -20 -20 -19 -15 -20 -20 -20 -20 -20 10 1 2
-20 -20 -6 -3 9 -20 -20 9 17 24 26 35 43 29 32 20 22 36 38 36 28 30 25 21 6 7 8 -1 -20 -20 -20 -20 -20 -20 -20 -20 -20 -9 -17 -20 -20 -20 -20 -20
-20 -13 -18 -19 9 -14 -18 10 31 31 34 37 41 30 29 40 35 34 31 28 14 14 8 7 6 -8 -16 -20 -20 -20 -20 -20 -20 -20 -20 -20 -20 -20 -20 -20 -20 -20 -20 -20
-19 -17 -1 -20 -13 8 10 5 21 34 25 32 35 37 35 27 24 26 23 14 7 7 15 2 -19 -20 -20 -20 -20 -20 -20 -20 -20 -20 -20 -20 -20 -20 -20 -20 -20 -20 -20 -20
24 37 18 -7 16 8 6 11 30 25 29 21 22 22 27 19 21 9 6 9 -4 3 3 11 15 12 -19 -20 -20 -20 -20 -20 -20 -20 -20 -20 -20 -20 -20 -20 -20 -20 -20 -20
26 22 28 22 21 27 35 36 32 21 29 12 7 11 12 5 8 14 12 5 -0 -18 -14 -20 -19 -20 -13 -20 -20 -20 -20 -20 -20 -20 -20 -20 -20 -20 -20 -19 -19 -20 -18 -20
9 24 16 12 28 25 22 32 32 19 15 -2 -13 -6 -9 -20 -20 -18 -5 4 0 -13 -19 -20 -16 -20 -20 -20 -20 -20 -20 -20 -20 -20 -20 -20 -20 -20 -20 -20 -16 -10 -16 -19

GFSCGP_prec_radar_084.txt.gz
Reflectivity
-20 -20 -20 -20 -20 -20 -20 -20 -20 -20 -20 -20 -20 -20 -20 -20 -20 -20 -20 -20 -20 -20 -20 -20 -20 -20 -20 -20 -20 -20 -20 -20 -20 -20 -6 11 -5 12 20 13 26 20 31 31
-20 -20 -20 -20 -20 -20 -20 -20 -20 -20 -20 -20 -20 -20 -20 -20 -20 -20 -20 -20 -20 -20 -20 -20 -20 -20 -20 -20 -20 -20 -20 -20 -20 -20 -10 -20 0 -5 -0 21 26 33 25 29
-20 -20 -20 -20 -20 -20 -20 -20 -20 -20 -20 -20 -20 -20 -20 -20 -20 -20 -20 -20 -20 -20 -20 -20 -20 -20 -20 -20 -20 -20 -20 -20 -17 -3 -20 3 -1 6 5 25 37 31 30 32
-14 -20 -20 -20 -20 -20 -20 -20 -20 -20 -20 -20 -20 -20 -20 -20 -20 -20 -20 -20 -20 -20 -20 -20 -20 -20 -20 -20 -20 -20 -5 -20 -13 -11 -1 -20 8 -12 23 33 34 29 30 27
-20 -20 -20 -20 -20 -20 -20 -20 -20 -20 -20 -20 -20 -20 -20 -20 -20 -20 -20 -20 -20 -20 -20 -20 -13 -20 -20 -20 -20 -20 -12 -20 -20 -20 -7 -19 -14 -3 4 33 34 34 30 31
-20 -20 -20 -20 -20 -20 -20 -20 -20 -20 -20 -20 -20 -20 -20 -20 -20 -20 -20 -20 -20 -20 -20 -20 -9 -20 -20 -5 -15 -20 -20 -20 -17 -20 -20 -1 -5 -20 14 30 31 32 28 28
-20 -20 -20 -20 -20 -20 -20 -20 -20 -20 -6 -20 -20 -20 -20 -20 -20 -20 -20 -20 -20 -0 -16 -20 -20 -20 -20 4 11 11 -20 -20 7 -20 -14 -5 -6 -19 -17 20 29 28 31 30
-20 -20 -20 -20 -20 -20 -20 -20 -20 -20 -20 -20 -20 -20 -20 -20 -20 -20 -20 -20 -20 -20 -20 5 -20 -20 -20 12 14 5 -12 -20 -19 -20 -18 7 -2 -20 -7 -20 12 32 33 36
-20 -20 -20 -20 -20 -20 -4 -12 -20 -12 -18 0 -20 -20 -20 -20 -20 -20 -20 -20 -20 -20 -4 -20 -20 -20 -20 -6 -14 -20 -5 -20 9 -20 6 7 -10 6 -6 -20 -18 -3 33 30
-20 -20 -20 -20 -20 -20 -20 3 17 6 -20 0 -20 -20 -20 -20 -20 -20 -20 -20 -20 -20 -20 -20 -11 -20 -20 -20 -20 -20 -20 -20 -20 -20 -20 9 -18 -15 -16 -20 -20 -9 -13 5
-20 -20 -20 -20 -20 -20 -8 2 16 12 29 -13 -13 -20 -20 -20 -20 -20 -20 -20 -20 -20 7 -20 -20 -20 -20 -20 -20 -20 -20 -20 -20 -13 -20 -19 -16 -20 -20 -20 -20 -20 -20 -20
-20 -20 -20 -20 -20 -20 5 -16 -20 12 16 -15 -20 -20 -19 -15 -20 -20 -20 -15 11 -16 -6 -20 -19 -20 -20 -20 -20 -20 -20 -20 -20 -20 -20 -20 -5 -20 -20 -20 -20 -20 -20 -20
-17 -20 -20 -20 -20 0 13 15 27 31 20 -0 17 -19 -20 -20 -20 -20 -20 -15 -3 -19 -18 -19 -20 -20 -20 -20 2 -10 -20 -20 -20 -20 -6 -13 -10 -20 -20 -20 -20 -20 -20 -20
1 -20 -20 -20 -20 -20 -20 -20 -20 6 -19 -20 -18 -20 -20 -19 -16 -18 -20 -4 11 14 -18 -16 -20 -20 -20 -20 -13 -20 -20 -20 -20 -20 -20 -20 -20 -20 -20 -20 -20 -20 -20 -20
-20 -20 -20 -20 -20 -20 -20 -20 -20 -20 -20 3 -20 -20 -20 -8 -1 -14 -20 -7 23 5 16 19 18 6 -20 -20 -20 -20 -20 -20 -20 -20 -20 -20 -20 -20 -20 -20 -20 -20 -20 -20
-20 -20 -20 -20 -20 -20 -20 -20 -20 -20 -20 -20 -20 -20 -9 -17 8 -16 -15 1 22 18 8 15 20 21 17 22 19 -19 14 6 -20 -20 -20 -20 -20 -20 -20 -20 -20 -20 -20 -20
-20 -20 -20 -20 -20 -20 -20 -20 -20 -20 -20 -6 -12 -16 -19 13 23 24 17 16 22 21 12 -13 10 21 22 19 14 17 16 14 -10 -17 -16 -0 -3 10 -19 -20 -20 -20 -20 -20
-20 -20 -20 -20 -20 -20 -20 -20 -20 -20 -20 -14 -3 -6 -20 -5 16 25 30 37 32 23 22 19 18 14 18 13 22 27 24 8 -8 -0 10 -11 -5 12 -16 -20 -1 -14 -10 21
-20 -20 -20 -20 -20 -20 -20 -20 -20 -20 -3 -7 -6 -3 11 10 4 12 23 24 35 23 22 15 20 6 26 26 -1 21 1 -14 5 3 -6 -5 2 8 9 6 9 -7 -2 7
-20 -20 -20 -20 -7 -20 -20 -17 -18 -20 -18 17 9 -19 11 3 19 11 21 10 35 40 18 19 -3 19 29 18 -7 -17 5 -20 -20 -20 -20 -20 -20 -7 7 -19 -20 -20 -13 3
-20 -20 -20 -20 1 -17 -14 -20 7 -4 19 31 32 31 36 13 17 30 28 25 29 38 36 21 8 10 13 0 -20 -20 -20 -20 -20 -20 -20 -20 -20 -20 -20 -18 2 10 8 9
-20 -13 -20 -19 -5 -15 -10 -7 4 22 34 38 39 40 32 27 28 28 26 21 12 18 32 34 33 13 8 20 17 7 -14 -18 -19 -20 -20 -20 -20 -20 -20 -20 -20 -20 -20 -20
4 13 -10 -20 -16 22 -8 9 8 18 38 33 37 37 41 28 26 24 15 -14 -2 15 7 2 19 25 23 22 12 4 -2 -20 -20 -20 -20 -20 -20 -20 -20 -20 -20 -20 -20 -20
-20 14 12 23 21 -2 -0 21 15 15 25 31 33 34 30 20 22 22 17 11 3 8 11 12 12 13 10 13 13 2 -10 -20 -20 -20 -20 -20 -20 -20 -20 -20 -20 -20 -20 -20
-1 4 19 16 14 -11 -5 21 24 22 21 20 18 16 10 11 13 14 14 14 11 11 14 15 8 -19 -20 -20 -20 -20 -20 -20 -20 -20 -20 -20 -20 -20 -20 -19 -19 -19 -12 -18
-15 19 8 7 20 20 15 19 20 15 16 13 7 3 1 0 7 11 10 8 7 6 4 -5 4 9 7 7 7 -5 -20 -20 -20 -20 -20 -20 -20 -20 -20 -20 -15 -10 -2 0

GFSCGP_prec_radar_087.txt.gz
Reflectivity
-1 3 -2 -20 -5 -20 -20 -20 -20 -20 -20 -20 -20 -20 -20 -20 -20 -20 -20 -20 -20 -20 -20 -20 -20 -20 -20 -20 -20 -20 -20 -20 -20 4 7 0 1 6 5 -10 -20 -15 19 21
-2 -20 -12 5 -0 -20 -20 -20 -20 -20 -20 -20 -20 -20 -20 -20 -20 -20 -20 -20 -20 -20 -20 -20 -20 -20 -20 -20 -20 -20 -20 -20 -20 1 1 2 -10 -4 -14 6 7 8 29 25
2 -12 -5 -4 -19 -20 -20 -20 -20 -20 -20 -20 -20 -20 -20 -20 -20 -20 -20 -20 -20 -20 -20 -20 -20 -20 -20 -20 -20 -20 -20 -20 -20 -15 -20 -3 -2 -11 6 18 30 13 29 26
-13 -20 -19 -18 -20 -20 -20 -20 -20 -20 -20 -20 -20 -20 -20 -20 -20 -20 -20 -20 -20 -20 -20 -20 -20 -20 -20 -20 -20 -20 -20 -20 -20 -20 -4 -6 -1 4 -15 11 29 34 30 33
-20 -7 10 -19 -20 -20 -20 -20 -20 -20 -20 -20 -20 -20 -20 -20 -20 -20 -20 -20 -20 -20 -20 -20 -20 -20 -20 -20 -20 -20 -20 -20 -20 -20 -20 -20 -17 -18 -3 10 34 21 30 20
-20 -20 -20 -20 -20 -20 -20 -20 -20 -20 -20 -20 -20 -20 -20 -20 -20 -20 -20 -20 -20 -20 -20 -20 -20 -20 -20 -20 -20 -20 -20 -20 -20 -17 -8 -9 -7 -5 -6 18 29 36 32 24
-20 -20 -20 -20 -20 -20 -20 -20 -20 -20 -20 -20 -20 -20 -20 -20 -20 -20 -20 -20 -20 -20 -20 -20 -20 -20 -20 -20 4 -20 -4 -20 -20 -2 -6 -8 -20 -20 -5 -1 11 30 28 31
-20 -11 -13 -20 -20 -20 -20 -20 -20 -20 -20 -20 -20 -20 -20 -20 -20 -20 -20 -20 -20 -20 -20 -20 -20 -20 -20 -20 7 -20 -5 -20 -20 -19 -14 -3 -19 -20 -4 11 24 29 27 33
-20 -20 -20 -20 -20 -20 -20 -20 -20 -20 -20 -18 -20 -20 -20 -20 -20 -20 -20 -20 -20 -20 -20 -20 -20 -20 -20 -20 7 7 -20 -20 -20 -8 -4 1 -19 -20 -20 -18 -4 25 29 32
-20 -20 -20 -20 -20 -20 -20 -19 8 -10 -20 -20 -20 -20 -20 -20 -20 -20 -20 -20 -20 -20 -20 -1 -20 -20 -20 -20 3 2 -2 -20 -16 13 2 -13 -20 -20 -20 -15 2 10 25 34
-20 -20 -9 28 -10 -13 -12 -19 -9 7 4 11 -6 -20 22 -16 -20 -20 -20 -20 -20 -20 -20 3 -3 -20 -20 -20 10 12 8 -2 -20 4 -20 3 10 -20 -20 -20 -20 -10 4 7
-20 -20 -20 -20 -20 -20 -20 3 -20 -20 13 14 7 -15 -20 -20 -20 -20 -20 -20 -20 10 14 7 -20 -20 -17 -13 8 11 18 -20 -20 -4 -20 13 10 -20 -20 -20 -20 -20 -19 -16
-18 -20 -20 9 -20 -20 -18 9 12 -20 -19 -10 15 -13 -20 -20 -20 -20 -20 -20 -20 14 16 -9 -8 19 8 10 3 9 3 -20 -20 -20 -12 -2 -20 -20 -5 -18 -17 -19 -20 -20
1 -20 -20 -20 -20 -20 -20 -20 -20 -20 -20 -20 -20 -20 -20 -20 -20 -20 -20 -20 -20 14 1 15 21 4 10 6 9 25 -13 -20 -20 -19 10 -14 -6 -7 -20 -20 -18 -7 9 -20
4 -20 -20 -20 -20 -20 -20 -20 -20 -20 -20 -20 -20 -20 -20 -20 -20 3 -20 -20 -20 10 18 17 19 17 20 13 10 1 -20 -20 -20 -20 -8 -20 -20 4 -13 5 -20 -20 -20 -20
10 9 -11 -10 -20 -20 -20 -20 -20 -20 -20 -20 -20 -20 -20 -20 -20 -20 -16 -10 -20 5 12 19 20 22 22 19 25 21 -10 -7 -20 3 5 -20 -20 -20 -20 -20 -20 -20 -20 -20
-14 -20 -19 -20 -20 -20 -20 -20 -20 -20 -20 -20 -20 -20 -20 -20 -20 0 3 1 -7 16 18 9 24 23 21 21 16 18 -19 -20 -13 -9 4 8 3 -19 -19 -12 -11 -15 -18 -20
-20 -20 -20 -20 -20 -20 -20 -20 -20 -20 -20 -20 -3 -4 -20 -2 -7 -20 7 17 20 30 22 13 21 26 15 17 11 4 16 18 14 5 4 21 19 -6 4 15 11 21 12 17
-20 -20 -20 -20 -20 -20 -20 -0 -20 4 -7 -16 -6 -13 -20 11 6 17 18 24 37 42 30 29 26 14 0 -8 -12 9 13 17 17 21 16 11 9 -4 14 10 14 16 -2 10
-20 -20 -19 -20 -20 -20 -20 -20 -20 -20 -20 -2 5 -18 -20 4 8 7 20 23 13 37 36 26 32 30 10 -15 2 37 31 31 -4 11 9 4 -18 -18 -15 -7 -17 -18 -17 -7
-20 -20 -20 -7 -5 -20 -14 -20 -15 -3 7 19 7 19 23 20 15 16 25 16 20 25 32 31 28 22 11 -7 1 32 36 15 6 10 -13 -20 -20 -20 -20 -20 -20 -20 -19 -13
-3 -12 -20 -20 -17 -20 -20 -20 -3 22 26 28 19 25 29 28 28 25 26 23 19 22 24 35 32 25 25 19 27 35 23 0 7 14 7 -19 -13 -20 -20 -20 -20 -20 -20 -11
5 2 -20 12 3 4 4 -1 4 29 31 26 25 22 26 26 25 24 20 19 20 21 17 16 25 31 23 17 16 21 21 -6 -4 2 -4 5 27 8 -20 -20 -20 -20 -20 -20
-20 -20 -0 7 18 11 -1 -3 4 15 23 20 23 23 23 20 20 21 17 10 3 8 10 -1 8 19 28 32 33 27 20 8 14 14 14 -20 -20 -20 -20 -20 -20 -20 -20 -20
-18 -20 -18 13 14 9 -19 2 6 14 17 18 21 19 19 19 19 18 19 19 17 13 6 4 1 -18 -11 -2 16 19 19 22 23 18 16 -14 -13 -20 -20 -20 -11 -11 4 -11
-13 -4 -4 -17 3 -6 6 12 11 15 15 13 9 11 10 12 11 12 12 13 13 10 11 13 14 12 9 8 4 1 0 -20 -20 -20 -18 -16 -20 -20 -20 -20 -20 -13 -18 -16

GFSCGP_prec_radar_090.txt.gz
Reflectivity
-20 -4 -19 -20 -13 17 8 4 -10 -20 -20 -20 -20 -20 -20 -20 -20 -20 -20 -20 -20 -20 -20 -20 -20 -20 -20 -20 -20 -20 -20 -20 -8 -1 4 2 6 1 4 1 -20 -6 23 10
-20 -11 -18 6 -7 11 4 -7 -20 -20 -20 -20 -20 -20 -20 -20 -20 -20 -20 -20 -20 -20 -20 -20 -20 -20 -20 -20 -20 -20 -20 -20 -6 -20 -20 -20 -2 -0 1 -2 -12 -0 7 7
-20 -20 -6 10 12 10 -1 -19 -20 -20 -20 -20 -20 -20 -20 -20 -20 -20 -20 -20 -20 -20 -20 -20 -20 -20 -20 -20 -20 -20 -20 -3 -20 -20 -20 -2 10 10 12 4 -1 -4 7 15
-20 -20 -20 -5 -18 -19 -20 -15 -10 -18 -20 -20 -20 -20 -20 -20 -20 -20 -20 -20 -20 -20 -20 -20 -20 -20 -20 -20 -20 -20 -20 -18 -20 -20 -20 -20 -16 5 1 -16 1 0 11 30
-20 -20 -17 3 -6 -19 -20 1 -20 -20 -20 -20 -20 -20 -20 -20 -20 -20 -20 -20 -20 -20 -20 -20 -20 -20 -20 -20 -20 -20 -20 -20 -20 -20 -20 -20 -20 -2 6 18 10 7 30 32
-20 -20 -14 -10 -6 -20 -20 -20 -20 -20 -20 -20 -20 -20 -20 -20 -20 -20 -20 -20 -20 -20 -20 -20 -20 -20 -20 -20 -20 -20 -20 -20 -20 -20 -20 -20 -20 -3 9 -3 15 -2 25 28
-20 -20 -20 -20 -18 -15 -19 -18 -18 -3 -4 -20 -20 -20 -20 -20 -20 -20 -20 -20 -20 -20 -20 -20 -20 -20 -20 -20 -20 -20 -20 -20 -20 -20 -20 -20 -7 5 12 -11 -0 10 12 25
10 10 2 -20 -11 -12 -20 -20 -20 -20 -20 -20 -20 -20 -20 -20 -20 -20 -20 -20 -20 -20 -20 -20 -20 -20 -20 -20 14 -20 -20 -20 -20 -20 -20 -13 2 9 11 -12 -9 14 17 27
-20 -20 -20 -9 -4 -20 4 3 -20 -9 -20 -20 -20 -20 -20 -20 -20 -20 -20 -20 -20 -20 -20 -20 -20 -20 -20 -17 4 -0 -12 -20 -20 -20 -20 -4 5 8 0 -19 1 19 28 26
13 3 -4 3 -20 -20 7 -18 -8 9 3 -19 -20 -20 -20 9 -20 -20 -20 -20 -20 -20 -20 -20 -20 -20 -20 -15 -8 -1 -20 -20 -20 -16 -17 -6 2 6 8 13 2 14 27 28
19 19 22 16 -5 11 7 8 -11 10 8 -1 3 -16 -20 -20 -20 -20 -20 -20 -20 -20 -1 -20 -20 -20 -20 -20 -5 6 -20 -20 -7 -20 -12 -5 -20 -12 -18 1 5 11 17 27
22 20 21 22 10 -18 19 5 20 11 16 6 -13 -20 -20 -20 -20 -20 -20 -20 -20 -20 -20 -0 -20 5 1 -3 12 11 0 -20 -3 -20 -20 -20 -20 -20 -20 -20 5 6 10 13
22 12 19 22 16 -7 1 6 -20 -20 -20 -16 12 1 -20 -20 -20 -20 -20 -13 -20 -20 -18 -16 11 6 -1 3 6 14 16 -13 -3 -16 -18 -18 -20 -20 -0 3 6 15 10 -0
5 18 9 9 14 -20 -6 -20 -20 -20 -20 -10 -6 -20 -20 -20 -20 -20 -20 -15 -20 -20 -11 -20 1 11 5 5 12 6 17 9 -14 8 -17 4 -6 -20 -20 -9 -19 -20 -2 2
-2 12 -20 -20 -20 -20 -20 -20 -20 -20 -20 -20 -20 -20 -20 -20 -20 -20 -15 -20 -20 -20 -20 2 -11 3 15 13 19 15 16 -15 8 8 12 -12 -5 -0 -12 -20 -20 -20 -20 -20
10 -20 -20 -20 -20 -20 -20 -20 -20 -20 -20 -20 -20 -20 -20 -20 -20 -20 -20 9 -17 -20 -19 -2 2 21 21 23 26 26 3 7 2 -16 11 10 11 12 12 11 6 -20 -17 -20
19 3 -16 -12 -20 -20 -20 -20 -20 -20 -20 -19 -20 -20 -20 -18 6 8 -18 -1 11 -20 -18 25 3 24 22 28 20 15 -2 13 3 -13 -5 -16 9 -6 -19 3 3 13 5 5
14 -12 -19 -20 -20 -20 -12 -20 -15 -20 -6 -20 -20 -20 -20 -2 -3 -5 19 4 -2 -20 17 28 5 17 19 23 16 16 1 13 13 -2 12 11 7 7 16 12 15 11 -2 9
-6 9 6 -6 -20 -20 -3 -4 1 1 3 -2 -20 -20 -20 7 4 5 17 16 15 21 27 31 23 26 17 25 26 20 15 15 10 -12 -8 -6 10 -2 -1 2 8 6 4 11
-6 -18 -1 -6 -20 -20 -20 -20 -20 9 13 -20 -20 -8 -7 8 11 7 9 12 15 19 24 20 23 22 29 28 31 29 21 13 27 19 22 2 22 16 22 19 17 17 16 12
-10 4 6 -8 -20 -12 -20 -20 -20 19 -3 4 1 -0 8 9 6 12 14 20 22 20 21 30 29 23 24 32 34 30 31 18 16 35 29 25 17 21 19 16 15 15 17 16
18 17 13 1 6 11 -20 -20 -12 1 27 25 10 3 3 14 22 22 22 22 24 23 21 29 28 27 26 29 31 28 30 25 36 39 37 27 13 -5 -18 -20 -18 -13 -10 3
13 -4 4 -17 -1 6 4 5 6 4 12 19 10 3 13 18 20 22 21 18 16 21 21 21 29 22 27 28 34 32 29 30 32 39 36 28 30 23 12 -3 -19 -18 -20 -20
-16 -20 9 12 2 -3 -1 0 -2 1 9 12 9 11 9 15 20 20 18 16 15 13 13 16 18 24 27 28 23 24 28 33 25 21 27 24 26 13 13 9 1 11 5 -5
1 -16 -11 3 7 -4 -20 -1 1 6 8 9 6 13 7 14 16 16 15 16 17 19 20 18 15 6 9 14 22 25 25 21 13 11 26 25 12 15 9 12 2 1 4 0
-6 4 4 3 -1 -18 0 1 1 6 8 9 9 3 -0 5 7 8 10 11 10 11 13 13 10 11 16 17 17 16 20 23 22 20 21 21 20 23 20 22 20 5 -3 -19

GFSCGP_prec_radar_093.txt.gz
Reflectivity
-20 -20 -20 -20 -20 -20 1 6 -7 -18 -5 -3 -20 -17 -8 -20 -20 -16 -20 -20 -20 -20 -20 -20 -20 -20 -20 -20 -20 -20 -20 -20 2 -2 5 4 -17 -20 3 -9 -0 -1 -7 -0
-20 -20 -20 -20 -20 -20 -19 -18 -20 -20 -9 -20 -20 -20 -20 -20 -19 -0 -2 -20 -20 -20 -20 -20 -20 -20 -20 -20 -20 -20 -20 -20 -20 -15 -0 1 3 -6 -20 -3 4 4 -3 2
-20 -20 -20 -20 -20 -20 -20 -7 -20 -18 7 -3 -20 -20 -20 -19 -20 -20 -20 -20 -20 -20 -20 -20 -20 -20 -20 -20 -20 -20 -20 -20 -20 2 4 -5 -20 -16 -0 8 9 11 11 7
-20 -20 -20 -20 -20 -20 -20 -2 -4 -3 -19 -16 -4 -20 -2 -1 -20 -20 -20 -20 -20 -20 -20 -20 -20 -20 -20 -20 -20 -20 -20 -20 -20 -20 -20 -20 -20 -20 4 5 8 4 -18 -17
-20 -20 -20 -1 -20 -20 -20 9 -4 -20 -6 -10 -3 -2 -12 -20 -20 -13 -20 -20 -20 -20 -20 -20 -20 -20 -20 -20 -20 -20 -20 -20 -20 -20 -20 -20 -17 -20 -20 7 14 10 -1 -2
-18 -20 2 -16 -12 -3 -19 4 -19 -20 -20 -20 -9 -7 5 2 -20 -20 -16 -20 -20 -20 -20 -20 -20 -20 -20 -20 -20 -20 -20 -20 -20 -20 -20 -20 -20 -20 -20 6 13 9 -11 -6
-20 -20 -0 5 -5 1 -3 12 14 12 -13 -20 -9 10 3 11 -20 -11 -20 -20 -15 -20 -20 -20 -20 -20 -20 -20 -20 -20 -20 -20 -20 -20 -20 -20 -20 -20 -20 -2 12 1 0 3
20 -20 -19 18 -18 -17 -7 4 -15 9 0 -9 3 -11 -20 -1 -20 -20 -20 -20 -20 -20 -20 -20 -20 -20 -20 -20 -20 -20 -20 -20 -20 -20 -20 -20 -20 -20 -14 10 -2 -8 -20 -4
12 4 16 -7 -20 1 -16 12 -16 13 16 -1 19 4 -2 -20 -20 -20 -20 -20 -20 -20 -20 -20 -20 -20 -20 -20 -20 -20 -20 -20 -20 -20 -20 -20 -20 -18 5 -2 -4 -20 -17 -3
6 17 6 14 -20 -20 14 -14 -3 -10 -14 -20 -20 -15 23 -3 -20 -19 -20 -20 -20 -20 -20 -20 -20 -20 -20 -20 -20 -20 -20 -20 -20 -20 -20 -20 -20 -6 -6 3 -3 -20 -15 13
9 20 21 18 -20 -20 -20 3 6 -17 -20 0 10 10 10 8 -20 -20 -20 -20 -20 -20 -20 -8 -18 -20 -20 -20 -17 -3 -20 -4 -20 -20 -9 -14 -20 0 -8 12 5 -20 -12 17
-14 28 26 -20 -20 -20 -20 -7 -6 14 15 -18 -19 15 30 5 -20 -20 -20 -20 -20 -20 -20 -2 10 -4 9 -20 -19 -19 -16 -18 -11 -20 -17 18 -14 -20 -7 2 -3 -6 -17 17
35 18 25 20 24 27 -10 -8 1 18 -18 17 -10 -15 -2 -20 -20 -20 -20 -20 -20 -20 -20 -4 10 15 7 -8 -11 -4 -14 -7 -20 -14 6 -4 -20 -20 -20 -20 -4 -8 -4 18
36 29 28 18 2 -19 21 22 23 -10 -17 -2 -20 -20 -1 -20 -20 -20 -20 -20 -20 -20 -20 -8 18 15 4 18 11 16 15 7 -0 11 -4 -9 4 6 -3 12 16 -20 3 3
18 23 -1 12 25 -20 -9 -3 -19 7 -10 -20 -20 -20 -20 -20 -20 -20 -14 -20 -20 -20 -20 -17 10 3 -1 10 19 12 11 25 7 -4 9 12 4 3 13 9 11 12 17 -19
38 -9 -16 -20 -20 -20 -20 -20 -20 -20 -20 -20 -20 -20 -20 -20 -20 -16 -20 -20 -20 -20 -20 -20 5 20 15 12 7 15 22 22 5 5 12 5 8 -20 -2 14 12 -6 -2 8
30 -2 -20 -20 -20 -20 -20 -20 -20 -20 -13 -20 -12 -15 -20 -20 -19 -15 -7 -20 -5 -20 -16 -20 -11 26 22 19 7 26 22 18 -18 -8 9 -2 -13 -20 -9 9 -9 -0 -16 -6
25 -20 -20 -11 -12 6 2 -20 -20 -1 -20 -20 -20 -20 -20 -20 -3 -1 1 -1 0 2 -0 -2 -2 10 27 7 14 13 22 13 11 10 10 7 -0 0 3 22 22 18 12 6
2 -20 -20 9 -1 -19 -0 -20 -13 5 4 -20 -20 -20 -20 -7 -20 -18 -1 -0 3 -1 1 7 22 27 41 26 33 30 24 -7 11 10 7 -6 -20 -20 -20 -18 -20 -20 -6 1
6 8 0 -20 -20 -20 4 -20 -20 -2 18 2 -12 -19 -19 2 5 -5 -1 1 0 2 -1 2 19 21 31 33 23 34 28 19 15 15 7 -1 3 -3 -3 -5 1 -5 -1 -8
-3 -20 6 -6 5 -1 -19 -20 -20 15 8 -18 -4 -8 -4 -7 10 12 13 8 13 6 12 17 26 27 24 37 23 16 41 21 27 27 27 24 23 27 22 25 17 25 27 30
12 10 19 9 7 14 -20 -20 -13 3 10 7 -7 6 -11 4 3 3 6 9 11 13 17 21 27 30 23 22 27 29 26 29 32 37 33 35 36 28 33 12 23 30 29 35
13 -1 8 -6 0 8 -1 4 1 4 3 6 2 4 2 -1 -0 9 7 1 2 13 17 20 22 28 25 19 24 27 30 35 29 30 28 24 26 31 35 33 26 42 30 17
-17 -20 10 -13 6 -19 -4 3 2 1 0 4 3 3 3 8 4 8 10 9 13 12 16 17 17 22 25 23 24 28 29 38 34 29 29 31 30 30 29 35 27 29 24 15
-2 -10 -4 -4 12 -11 -4 4 5 3 3 -4 7 10 11 11 13 13 14 12 13 14 15 17 18 19 23 25 23 24 27 29 25 22 26 29 29 27 22 23 18 17 14 10
3 4 6 5 2 -12 1 3 3 -11 -2 4 3 9 9 9 9 7 3 4 7 3 4 7 8 12 13 16 21 18 23 25 26 30 28 22 20 17 20 22 20 12 8 7

GFSCGP_prec_radar_096.txt.gz
Reflectivity
-20 -20 -20 -20 -20 -20 -20 -20 -20 -20 -20 -8 -1 -18 -20 -20 -20 -20 -20 -7 -3 -16 -20 -20 -20 -20 -20 -20 -20 -20 -20 -20 -20 -20 -20 2 6 9 1 1 6 -4 -20 -20
-20 -20 -20 -20 -20 -20 -20 -20 -20 -20 -20 1 -9 -20 -20 -10 4 -20 -20 1 -14 -20 -20 -20 -20 -20 -20 -20 -20 -20 -20 -20 -20 -20 -16 -20 14 11 4 -17 -20 -20 -10 -20
-20 -20 -20 -20 -20 -20 -20 -20 -20 -20 -20 -18 -11 -20 -20 -8 14 7 -15 -1 -13 -20 -20 -20 -20 -20 -20 -20 -20 -20 -20 -20 -20 -20 -16 -1 -13 -1 9 7 -20 -19 5 10
-20 -20 -20 -20 -20 -20 -20 -20 -20 -20 -20 -20 -20 -20 -20 4 -3 -20 -12 4 4 -19 -20 -20 -20 -20 -20 -20 -20 -20 -20 -20 -20 -20 -17 1 -13 -15 -20 -20 -1 -17 1 3
-20 -20 -20 -20 -20 -12 -16 -19 -20 -20 -20 -20 -20 -19 -20 1 -20 -11 -17 -20 -19 -20 -20 -20 -20 -20 -20 -20 -20 -20 -20 -20 -20 -20 -20 -20 -17 -20 -20 -20 -20 -20 -3 3
-20 -20 -20 5 -20 -6 -17 16 -20 -17 -20 -7 -20 -10 -20 3 -6 -8 -20 -20 -5 -17 -20 -20 -20 -20 -20 -20 -20 -20 -20 -20 -20 -20 -20 4 -20 -20 -20 -20 -20 -20 -4 -9
7 -7 -1 -17 -20 -6 15 -11 17 14 5 -15 -20 8 -16 18 5 3 -20 -3 1 -20 -20 -20 -0 1 -18 -20 -20 -20 -20 -20 -20 -20 -20 5 3 -20 -11 -20 -20 -20 -10 -17
9 -20 -12 3 -20 13 3 7 -5 -4 0 -20 3 10 1 18 1 13 -9 -12 -20 -20 -20 -6 -13 -20 -20 -20 -20 -20 -20 -20 -20 -20 -19 -20 -9 -12 -20 -20 -10 -17 -19 9
12 -15 10 8 -19 12 10 18 7 15 -2 3 25 5 24 -3 32 -5 -20 -20 -9 -20 -20 -20 -20 -20 -20 -20 -20 -20 -20 -20 -20 -20 -17 10 -8 -20 -20 -18 -20 -20 -20 -20
-15 16 -16 -12 13 26 7 -7 12 13 11 6 23 11 35 23 2 -20 -20 -20 -14 -19 -20 -20 -20 -20 -11 -20 -20 -20 -20 -20 -20 -20 -20 5 -9 -20 -10 -14 -20 -20 -20 -20
-20 5 -8 20 26 5 -20 -8 -3 8 -3 11 12 14 24 34 23 5 -20 -20 -20 -20 -20 -19 -20 -20 -9 -19 -2 -20 -20 -20 13 -20 9 2 -19 -1 -1 -11 -16 -20 -20 -20
-14 33 6 31 -13 4 -20 -17 13 12 8 -11 12 22 40 16 16 30 -8 -20 -20 -20 -20 -16 4 -20 16 26 -14 -20 -20 10 -17 30 1 -0 -20 9 13 -20 -13 -20 -20 -20
18 12 19 29 16 -15 -10 -20 -18 12 18 -17 18 27 34 21 29 -3 -20 -20 -20 -20 -20 -15 10 8 4 12 -0 -14 -9 20 14 -11 -0 3 10 9 6 -17 -7 -20 -20 -20
34 3 -12 26 22 -16 -20 -20 7 18 18 16 14 33 31 -1 -17 -20 -20 -20 -20 -20 -20 -20 8 17 11 13 20 18 17 21 20 15 18 13 9 10 -14 -0 -20 -14 1 -20
33 17 33 36 27 24 3 -18 35 35 8 16 -8 12 -1 -18 -20 -20 -20 -20 -20 -20 -20 -20 -10 10 18 14 14 -0 11 17 -8 22 11 12 12 19 1 6 -20 -3 -17 10
29 21 38 27 35 10 24 36 29 16 16 -4 -20 8 -20 -20 -20 -20 -20 -20 -20 -20 -20 -20 -20 8 8 18 17 5 7 21 13 16 9 10 11 18 14 10 2 -16 15 -20
16 39 22 19 8 -20 -5 -1 -20 -20 -20 -20 -20 -20 -20 -20 -2 -19 -20 -17 -5 -18 -1 -10 -16 -20 -6 12 17 21 23 23 12 19 12 7 19 9 -9 6 -13 -19 20 24
21 31 3 -17 -20 -0 9 -11 -20 -20 -20 -20 -20 -20 -20 -19 -12 -15 -5 -12 -15 -14 -4 -12 -16 -9 -19 1 17 24 18 22 23 16 17 6 11 13 14 10 2 16 6 -6
16 -9 -20 -20 -20 14 -16 -20 -20 6 -5 -4 -20 -20 -20 5 -16 -17 -2 3 2 1 -1 -2 1 2 -2 -11 24 29 27 32 28 14 8 12 11 7 2 -10 6 10 14 13
-20 -20 -20 -20 -19 5 -15 -20 -20 -20 -19 -2 -3 -1 -18 -7 -7 -2 2 6 7 7 -3 -10 -19 -20 -13 2 26 15 21 31 36 24 17 25 30 25 18 20 19 19 18 26
11 -20 -20 -20 16 -1 -20 -20 -20 -7 7 5 -2 -14 -20 -14 6 8 6 5 8 4 0 -9 -20 -3 5 21 20 23 26 25 29 27 7 22 23 24 20 16 6 -3 -5 -10
-7 21 -18 -7 12 -17 -20 -20 -13 10 8 7 -2 3 -0 2 2 4 3 2 0 3 -7 -16 -1 6 17 19 26 27 31 38 31 37 25 26 20 24 28 29 28 25 18 14
2 -11 8 -19 6 -10 -2 7 3 -11 -1 4 2 -14 -3 -4 -0 1 2 1 5 9 6 3 5 13 17 17 19 26 26 27 27 39 32 25 29 29 25 28 24 25 25 25
-5 -20 0 -7 4 -20 1 6 -2 1 1 4 6 2 -3 -6 -2 3 3 1 4 11 12 10 9 10 13 22 21 23 29 29 20 22 27 28 27 28 24 27 36 37 25 31
-12 -15 -17 2 -8 -20 -13 2 6 7 6 -1 1 3 1 -14 -3 -2 1 1 2 2 1 -0 2 7 4 7 14 18 20 19 22 25 25 24 27 26 25 24 24 24 25 26
-3 -1 1 2 1 -20 -0 4 -11 -5 -0 2 -3 -4 3 2 -1 -16 -16 -20 -19 -18 -13 -19 -20 -20 -20 -6 -1 10 8 4 12 17 21 23 25 24 23 25 24 23 24 23

GFSCGP_prec_radar_099.txt.gz
Reflectivity
-20 -20 -20 -20 -20 -20 -20 -20 -20 -20 -20 -20 -20 -20 -20 -20 -20 -20 -20 -20 -20 -20 -20 -19 -6 -20 -20 -20 -20 -20 -20 -20 -20 -20 -20 -20 -20 -20 5 -16 -20 -20 -20 -20
-20 -20 -20 -20 -20 -20 -20 -20 -20 -20 -20 -20 -20 -20 -20 -20 -20 -20 -20 -20 -20 -20 -20 -20 -20 -16 -20 -20 -20 -20 -20 -20 -18 -17 -20 -20 -20 -20 -13 13 2 -7 14 11
-20 -20 -20 -20 -20 -20 -20 -20 -20 -20 -20 -20 -20 -20 -20 -20 -20 -20 -20 -8 -20 -20 -20 -20 -20 -20 -20 -20 -20 -20 -20 -20 -17 -3 -20 -20 -20 -20 -11 9 10 14 -5 -6
-20 -20 -20 -20 -20 -20 -20 -20 -20 -20 -20 -20 -20 -20 -20 -20 -20 -20 -20 -20 -20 -20 -20 -20 -20 -20 -20 -20 -16 -20 -20 -13 -19 -20 -20 -20 -20 -20 -20 -20 -17 14 14 13
-20 -20 -20 -20 -20 -20 -20 -20 8 0 -20 14 -20 -20 -20 -20 -20 -20 -16 -20 -20 -1 -20 -20 -20 -20 -7 -8 -19 -20 -20 -20 -20 -20 -20 -20 -20 -20 -20 5 15 9 11 13
-20 -20 -20 -20 -20 -19 -20 -2 8 30 -1 -14 -20 -20 -20 -20 -10 0 -15 -20 -20 -20 -20 -20 -20 -20 -20 -20 -20 -20 -20 -20 -20 -20 -20 -20 -20 -20 -20 -6 -17 -15 -5 -9
-20 -20 -20 -20 -16 -17 -9 -17 10 23 -3 -8 -20 -20 -20 -13 -3 7 30 -20 -20 -17 -0 -9 -6 4 -19 -19 -20 -20 -20 -17 -20 -20 -20 -20 -20 -20 -20 -20 -20 -20 -20 -20
-4 -20 -20 -14 -15 21 -18 -20 5 -19 -20 -20 -19 -18 -20 -20 -16 31 26 19 -20 23 -20 6 8 1 5 -20 -20 -13 -6 -19 -20 -20 -8 -20 -20 -20 -4 -20 -20 -20 -20 -20
-20 -20 -20 -20 -20 -10 -14 -20 17 7 24 16 -18 -18 -19 -9 10 29 34 21 21 -9 -20 12 -3 -16 -20 -20 -4 -15 -20 -0 15 -13 -20 1 -20 -20 3 -16 -20 -20 -20 -20
-10 -14 -20 -20 19 -5 -20 -4 21 19 21 -2 -2 5 14 35 25 38 30 20 -20 -20 -20 -20 -19 1 -6 -20 -16 20 -15 -20 -20 -1 22 -2 -18 4 -5 -8 -10 -20 -20 -20
-20 -0 -20 -20 9 15 -20 -3 3 24 -4 24 16 25 39 39 38 37 11 -20 -7 -20 -20 -20 -19 13 23 19 13 -20 -20 12 27 -17 -20 -6 -0 16 -15 -11 -20 -20 -20 -20
-16 17 -19 -20 -20 -20 16 13 15 -19 14 9 20 30 35 38 40 33 14 12 4 -20 -19 -1 -8 -10 20 -19 -11 -18 -13 -15 20 -18 1 -12 24 26 11 -20 -20 -20 -20 -17
-3 5 -18 -20 -4 -1 -12 -4 -14 -16 -0 12 16 30 37 31 27 13 -16 -4 -20 -20 -20 -13 -20 -1 -4 14 8 -17 16 13 6 6 10 9 28 14 -12 -18 -20 -7 -20 -20
27 5 -20 -20 -14 8 -20 -8 26 -20 14 17 26 26 10 -12 9 4 -3 -20 -20 -20 -20 -20 -20 10 13 14 13 -5 16 20 21 10 22 27 9 31 7 -4 -20 -19 -20 -20
29 -4 -17 -20 -12 -17 -8 16 13 7 34 28 26 7 3 -20 -17 -20 -20 -20 -20 -20 -20 -20 -20 -20 2 18 15 17 18 20 18 22 10 23 9 18 10 -11 -20 2 -19 -20
26 12 33 35 16 19 33 27 9 37 34 34 8 -20 -16 -20 -20 -20 -20 -20 -20 -20 -20 -20 -20 -20 -11 13 17 17 5 20 19 21 11 22 2 10 -15 3 14 15 -20 -20
28 28 16 29 32 32 28 30 14 10 12 -2 1 2 -14 -19 -17 -1 -19 -20 -19 -20 -20 -20 -20 -20 -20 -13 -7 8 15 -2 23 10 18 15 -17 12 18 3 9 13 21 -10
37 29 1 7 18 11 24 23 13 -18 -20 -20 -15 -20 -13 -17 -12 -20 2 -20 -20 -20 -18 -18 -18 -20 -20 -19 -19 2 6 7 5 27 23 18 -6 16 26 16 17 17 22 22
3 8 -14 -7 10 -14 -17 -20 -20 1 -3 -20 -2 -17 4 -17 -17 -16 4 0 2 0 -2 -6 -12 -16 -17 -17 -17 -11 6 14 28 33 25 15 25 23 10 21 21 21 18 13
21 19 -9 -0 -20 -19 -20 -20 -20 -20 -20 -7 -6 -4 -20 -20 -20 0 2 5 -3 -6 -6 -18 -14 -20 -20 -14 -18 -12 17 16 15 23 27 18 22 19 15 16 22 23 27 15
-12 -20 -20 -20 -20 -20 -20 -20 -20 -20 6 -9 -11 -5 -15 -20 4 2 -3 -20 -9 -1 -6 -15 -20 -16 -10 -6 -17 -15 14 28 21 24 22 30 34 31 17 19 12 12 5 7
-20 -0 -9 -20 -20 -20 -20 -20 -18 12 3 0 -11 -4 -20 -20 -20 -20 -6 -17 -17 -1 3 1 -18 -18 -9 -7 -6 -8 9 25 29 22 25 29 28 28 30 31 33 24 23 14
-14 5 -19 -5 -6 3 -18 1 -2 -18 -20 -2 -2 -9 -20 -20 -20 -19 -4 -3 -5 -7 3 -0 -10 -20 -20 -19 -10 -2 15 18 23 26 26 29 32 27 26 24 26 17 13 16
-20 -20 -20 -20 -8 -20 1 -2 -2 -20 -20 0 -3 -15 -20 -20 -20 -20 -20 -20 -3 -2 -18 -20 -20 -20 -20 -20 -20 -3 9 13 14 20 22 24 28 30 28 26 22 19 21 23
-14 -20 -20 -3 -12 -20 -13 2 -6 5 -14 -18 -11 -2 -4 -20 -20 -20 -20 -20 -20 -14 -20 -20 -20 -20 -20 -19 -20 -15 -9 2 10 14 20 22 22 24 27 27 27 26 22 22
-6 -20 -20 -20 -13 -20 1 -2 -8 -20 -4 3 -6 -14 1 -17 -18 -20 -20 -20 -20 -20 -20 -20 -20 -20 -20 -20 -20 -20 -20 -20 -17 3 12 17 20 21 23 24 24 23 21 21

GFSCGP_prec_radar_102.txt.gz
Reflectivity
-20 -20 -20 -20 -20 -20 -20 -20 -20 -20 -20 -20 -20 -20 -20 -20 -20 -20 -20 -20 -20 -20 -20 -20 -20 -20 -20 -20 -20 -1 -20 -20 -20 -20 -20 -18 -20 -6 -13 -19 -20 -20 -20 -20
-20 -20 -20 -20 -20 -20 -20 -20 -20 -20 -20 -20 -20 -20 -20 -20 -20 -20 -20 -20 -20 -20 -20 -20 -20 -20 -20 -20 -20 -20 -20 -20 -20 -10 -18 -19 -20 -13 15 -19 -20 -0 -3 1
-20 -20 -20 -20 -20 -20 -20 -20 -20 -20 -20 -20 -20 -20 -20 -20 -20 -20 -20 -20 -20 -20 -20 -20 -20 -20 -20 -20 -20 -20 -20 -20 -20 -15 -10 -11 -20 7 -2 -19 -20 -12 15 14
-20 -20 -20 -20 -20 -20 -20 -20 -20 -20 -20 -20 -20 -14 -20 -20 -20 -20 -20 -20 -20 -20 -20 -20 -20 -20 -20 -20 -20 -20 -20 -20 -20 -9 -20 -20 -20 -20 -20 -6 -20 -15 -6 3
-20 -20 -20 -20 -20 -20 -20 -20 -20 -20 -20 -20 -20 -9 -20 -20 -20 -20 -20 -20 -20 -20 -20 -20 -20 -20 -20 -20 -20 -20 -20 -20 -20 -20 -20 -20 -20 -20 -20 -20 -20 -20 3 3
-20 -20 -20 -20 -20 -20 -20 -20 -20 -20 3 -4 -20 -20 -20 -20 -20 -20 -20 -11 -7 -20 -20 -20 -20 -20 -20 -20 -20 -20 -7 -20 -19 -8 -18 1 -15 -20 -20 -20 -20 -20 5 5
-20 -20 -20 -20 -20 -20 -20 -18 10 -11 -18 -20 -20 -20 -20 -20 -20 -20 -20 14 15 21 22 23 -20 -15 -20 -20 -20 -20 -20 -1 -1 -1 -12 -1 -20 -20 -20 -20 -20 -20 -20 -18
-20 -20 -20 -20 -20 -20 -20 -0 13 10 9 -20 -20 -20 -20 -20 -20 -20 -2 31 31 14 19 26 23 2 -13 2 -20 -20 -20 -20 -15 5 -12 -1 -20 -20 -20 -20 -20 -20 -20 -20
11 -20 -20 -20 -20 -20 -20 -20 -20 -6 -1 -3 11 -5 -16 -20 -17 -10 5 38 36 13 21 6 4 -20 -13 -20 -20 -20 -20 -19 21 16 -18 20 -9 -20 -20 -20 -20 -20 -20 -20
-2 -12 -20 -20 -20 -20 -20 -20 -2 -1 -8 -6 -5 17 32 32 19 36 29 30 34 5 4 12 18 3 -19 -1 -20 -2 -20 -13 10 20 27 2 -16 13 -14 -20 -20 0 5 -20
-18 -15 -20 -20 -20 -20 19 4 15 -8 4 -2 18 24 40 41 35 35 35 24 34 7 7 -20 2 -6 -19 13 12 10 0 21 23 22 25 19 23 -20 -20 -5 -20 3 -20 -19
-20 -20 -3 -20 -20 -9 8 13 17 -11 -20 -0 14 21 37 38 41 37 22 10 18 3 -20 -20 -20 -4 15 -11 -18 27 25 25 20 22 25 27 27 -12 11 -20 26 -11 -16 -13
-20 -20 -13 -20 -15 5 31 2 3 18 38 18 22 28 38 37 27 12 7 -12 -7 -7 -20 -20 -20 -7 11 -0 -10 -13 9 -19 15 12 -16 25 15 -5 3 23 -9 -1 -13 -20
-16 -13 -20 -20 -20 2 16 30 31 15 17 12 20 15 24 16 10 3 -3 -12 -4 -20 -20 -20 -20 -20 -16 -20 -20 -8 -5 1 24 30 29 26 24 21 4 26 4 -12 -20 -20
29 6 6 -20 -20 -20 -20 19 6 21 6 15 20 18 5 9 4 -8 4 -14 -20 -20 -20 -20 -20 -20 -16 -13 -7 -5 6 11 26 14 18 21 21 18 9 3 -20 -20 -20 -16
9 18 20 17 -20 -2 19 26 18 14 6 22 20 8 -10 -16 -20 -20 -6 -20 -20 -20 -20 -20 -20 -20 -20 -20 -3 -10 1 5 24 28 20 8 24 12 -19 -19 -20 -20 -20 -20
12 19 29 16 16 16 5 24 27 -0 9 8 -3 5 -5 -20 -19 -14 -16 -17 -19 -18 -20 -19 -17 -19 -20 -20 -20 -9 -0 -3 10 25 14 11 16 20 -3 17 -17 -20 -20 -7
16 5 22 21 -0 11 22 36 19 10 -4 -18 -20 -1 -14 -20 -2 7 -4 -17 -20 -17 -18 -18 -17 -18 -14 -20 -20 -20 -19 1 10 15 17 18 24 24 20 13 -12 -20 -20 -2
23 27 -1 21 13 15 0 -16 -2 -5 -19 -3 -7 1 9 -3 -9 -14 -6 -1 -6 -17 -14 -12 -13 -16 -16 -15 -19 -20 -20 -19 -10 3 18 25 32 31 14 29 24 -6 -16 -20
26 2 17 17 -9 -20 -20 -20 -20 -20 -20 -1 -20 -20 -20 -20 -20 -6 -4 -18 -20 -18 -15 -17 -17 -20 -20 -15 -20 -20 -20 -20 8 7 14 16 33 38 32 23 17 1 -19 -17
7 8 -5 -20 -3 -20 -19 -20 -19 -20 -20 -4 -20 -20 -20 -20 -17 -6 -9 -20 -20 -15 -5 -17 -20 -18 -20 -20 -20 -20 -20 -12 1 20 16 20 21 31 35 31 20 26 25 -12
-20 -11 -20 -20 -20 -20 -20 -20 -20 -6 -3 -20 -20 -20 -20 -20 -20 -20 -20 -20 -20 -20 -20 -20 -20 -20 -20 -20 -20 -20 -16 -16 -6 9 25 25 21 30 26 25 28 27 22 4
-16 3 -18 -7 -16 -2 -18 -1 -16 -20 -20 -3 -20 -20 -20 -20 -20 -20 -17 -3 -20 -20 -20 -20 -20 -20 -20 -20 -20 -20 -12 -16 -19 -6 16 23 26 27 25 26 30 26 24 18
-20 -20 -20 -20 -15 -10 2 -7 -20 -20 -11 -20 -20 -20 -20 -20 -20 -20 -20 -20 -20 -20 -20 -20 -20 -20 -20 -20 -20 -19 -20 -20 -10 -13 3 11 20 24 27 23 24 25 25 26
-20 -20 -20 -1 -4 -20 -5 -7 -3 -7 -20 -14 -15 -20 -20 -20 -20 -20 -20 -20 -20 -20 -20 -20 -20 -20 -20 -20 -20 -20 -20 -20 -20 -20 -20 -13 -10 9 18 21 23 22 21 21
-10 -20 -20 -20 -20 -20 -8 -14 -20 -14 1 -4 -20 -19 -1 -8 -6 -20 -20 -20 -20 -20 -20 -20 -20 -20 -20 -20 -20 -20 -20 -20 -20 -20 -20 -20 -7 -18 -14 3 12 19 20 20

GFSCGP_prec_radar_105.txt.gz
Reflectivity
-20 -20 -20 -20 -20 -20 -20 -20 -20 -20 -20 -20 -20 -20 -20 -20 -20 -20 -20 -20 -20 -20 -20 -20 -20 -20 -20 -20 -20 -20 -20 -20 -20 -10 13 -20 -20 -20 -20 -20 -16 -20 -20 -20
-20 -20 -20 -20 -20 -20 -20 -20 -20 -20 -20 -20 -20 -20 -20 -20 -20 -20 -20 -20 -20 -20 -20 -20 -20 -20 -20 -20 -20 -20 -20 -20 -20 -20 4 -10 -20 -20 -20 -20 -20 -20 -3 -16
-20 -20 -20 -20 -20 -20 -20 -20 -20 -20 -20 -20 -20 -20 -20 -20 -20 -20 -20 -20 -20 -20 -20 -20 -20 -20 -20 -20 -20 -20 -20 -20 -20 -20 -9 6 -16 1 -19 -20 -20 -20 -15 -15
-20 -20 -20 -20 -20 -20 -20 -20 -20 -20 -20 -20 -20 -20 -20 -20 -20 -20 -20 -20 -20 -20 -20 -20 -20 -20 -20 -20 -20 -20 -20 -20 -20 -20 -16 -17 -17 -20 -20 -20 -20 -20 -12 -10
-20 -20 -20 -20 -20 -20 -20 -20 -20 -20 -20 -20 -20 -20 -20 -20 -20 -20 -20 -20 -20 -20 -20 -20 -20 -20 -20 -20 -20 -20 -20 -20 -20 -20 -20 -9 -20 -20 -20 -20 -20 -20 -20 -13
-20 -20 -20 -20 -20 -20 -20 -20 -20 -20 -20 -6 -20 -20 -20 -20 -20 -20 -20 -20 -8 -20 -20 -19 5 -20 -20 -20 -20 -20 -20 -20 -20 -10 -1 3 -15 -20 -20 -20 -20 -20 -5 -20
-20 -20 -20 -20 -20 -20 -20 -20 -20 -20 -20 -20 -20 -20 -20 11 16 17 -19 -20 -20 -20 -12 9 20 -20 -20 -20 -20 -20 -20 -14 -10 -6 -13 -4 -19 -20 -20 -20 -20 -20 -13 -19
-20 -20 -20 -20 -20 -20 -20 -20 -19 -20 -19 -20 -16 6 -4 13 30 -5 17 -20 -20 -20 -4 20 21 21 24 5 -20 6 13 -20 8 -7 -20 -20 -20 -20 -16 1 -20 -20 -19 -6
-19 -18 -20 -20 -20 -20 -20 -20 -20 -20 -20 -17 -20 -20 -14 35 31 14 -6 -2 -3 8 31 29 28 20 21 5 -18 -10 -8 -19 -11 7 -11 -7 -20 -13 -13 6 4 -19 -20 -20
-9 -16 -20 -20 -20 -20 -20 -20 14 16 13 -11 -18 10 16 22 18 32 34 31 18 24 31 31 24 33 22 8 11 -20 -20 -6 -13 11 -1 3 27 2 27 -10 -10 -19 -20 -20
-20 -15 -20 -20 -20 -20 20 -15 3 12 7 9 -15 14 28 26 21 21 28 32 32 4 25 32 20 -17 -9 20 4 30 -15 -14 22 21 16 -12 -8 4 4 7 4 -4 -9 9
-20 -20 -20 -20 -20 -20 -20 -20 35 9 3 -20 9 4 28 22 22 25 -3 -11 10 19 27 17 1 7 22 7 -7 10 26 -14 -20 24 27 -18 8 6 -9 -16 26 -8 9 10
-20 -13 -16 -19 17 -20 5 30 23 23 9 -17 12 24 31 27 16 8 9 -5 -6 22 21 -19 -20 -7 -5 -15 -15 14 -15 22 21 25 23 16 26 -13 -3 26 27 -6 7 -6
8 -15 -20 -20 -20 3 11 17 4 24 15 18 20 3 17 20 4 4 3 9 0 -9 6 -1 -19 -20 -20 -20 12 -10 -10 14 24 28 32 17 31 17 27 29 8 11 21 -4
-2 -1 -13 -20 -4 10 25 25 10 27 10 -1 12 11 18 12 5 0 9 -8 8 -2 -20 -20 -20 -20 -20 -20 -20 -20 -20 -0 -12 13 -8 6 19 24 26 7 -6 20 -0 -20
24 7 16 9 -17 23 9 5 -20 20 19 16 4 -3 10 4 4 -20 -20 -10 -16 -11 -17 -19 -20 -20 -20 -20 -20 -20 -13 -20 17 31 32 24 22 -3 4 22 16 -20 -20 -20
19 20 21 13 -11 -16 -7 12 16 10 13 2 -2 -15 -18 -20 -20 -14 -20 -19 -10 -7 -15 -17 -14 -15 -16 -17 -20 -8 -6 -8 -15 35 28 34 20 21 9 9 2 -8 15 -20
23 23 20 13 1 -20 4 7 6 13 4 -3 -12 -18 -20 -20 -4 -3 2 -5 -19 -18 -16 -15 -14 -10 -8 -19 -20 -20 -20 10 -18 11 15 18 18 23 16 21 19 2 10 13
24 19 26 21 -16 -0 9 -20 -20 4 -20 -5 -20 -17 -20 -20 -5 -7 -5 -3 0 -11 -8 -0 -6 -14 -20 -20 -20 -20 -20 -20 4 -12 6 10 25 20 25 21 25 33 28 13
7 32 20 -11 -18 -17 -20 -20 -20 -20 -20 -20 -20 -20 -20 -20 -20 -20 -7 -19 -18 -17 -17 -13 -13 -20 -20 -19 -20 -20 -20 -20 -18 -12 2 -6 4 20 9 22 19 25 26 21
-4 21 11 -19 1 -10 -19 -20 -19 -20 -20 -20 -20 -20 -20 -20 -20 -16 -12 -20 -20 -17 -12 -20 -20 -20 -20 -20 -20 -20 -20 -17 -20 -20 -15 -0 -9 5 5 17 31 36 23 31
-20 -1 -18 -20 -20 -20 -20 1 -20 -20 -11 -20 -20 -20 -20 -20 -20 -20 -20 -13 -9 -16 -20 -20 -20 -20 -20 -20 -20 -20 -12 -18 -20 -20 -20 -20 -5 2 10 20 16 22 36 36
-17 -19 -20 -4 -20 -20 -2 -3 -17 -20 -20 -20 -20 -20 -20 -20 -20 -20 -20 -20 -20 -20 -20 -20 -20 -20 -20 -20 -20 -20 -20 -20 -20 -20 -20 -20 -20 -18 -7 4 17 20 23 28
-20 -20 -20 -20 0 -0 -17 -20 -20 -20 -20 -20 -20 -20 -20 -20 -20 -20 -20 -20 -20 -20 -20 -20 -20 -20 -20 -20 -20 -20 -20 -20 -20 -20 -20 -20 -20 -20 -14 1 5 11 21 25
-20 -20 -18 -12 -4 -20 -20 -16 -20 -20 -20 -20 -20 -20 -20 -20 -20 -20 -20 -20 -20 -20 -20 -20 -20 -20 -20 -20 -20 -20 -20 -20 -20 -20 -20 -20 -20 -20 -20 -17 7 17 19 20
-16 -20 -20 -20 -20 -20 -20 -20 -20 -20 -20 -20 -20 -8 -20 -20 -20 -20 -20 -20 -20 -20 -20 -20 -20 -20 -20 -20 -20 -20 -20 -20 -20 -20 -20 -20 -20 -20 -20 -20 -20 -10 8 15

GFSCGP_prec_radar_108.txt.gz
Reflectivity
-20 -20 -20 -20 -20 -20 -20 -20 -20 -20 -20 -20 -20 -20 -20 -20 -20 -20 -20 -15 -15 -20 -20 -20 -20 -20 -20 -20 -20 -20 -20 -20 -20 -20 -20 -20 -20 -20 -20 -11 -20 -20 -20 -20
-20 -20 -20 -20 -20 -20 -20 -20 -20 -20 -20 -20 -20 -20 -20 -20 -20 -20 -14 -15 -20 -20 -20 -20 -20 -20 -20 -20 -20 -20 -20 -20 -20 -20 -20 -20 -20 -20 -17 -19 -8 -18 -18 -20
-20 -20 -20 -20 -20 -20 -20 -20 -20 -20 -20 -20 -20 -20 -20 -20 -20 -20 -20 -20 -20 -20 -20 -20 -20 -20 -20 -20 -20 -20 -20 -20 -20 -20 -20 -5 -13 -20 -3 -6 -17 -14 -9 -19
-20 -20 -20 -20 -20 -20 -20 -20 -20 -20 -20 -20 -20 -20 -20 -20 -20 -20 -20 -20 -20 -20 -20 -20 -20 -20 -20 -20 -20 -20 -20 -20 -20 -20 -19 -6 -20 -20 -20 -8 -20 -20 -1 -20
-17 -20 -20 -20 -20 -20 -20 -20 -20 -20 -20 -20 -20 -20 -20 -20 -20 -20 -20 -20 -20 -20 -20 -20 -20 -20 -19 -20 -20 -20 -20 -20 -20 -20 -20 -20 -20 -20 -20 -20 -20 -19 2 -4
-20 -16 -10 -20 -20 -20 -20 -20 -20 -20 -20 -20 -20 -20 -20 -20 -9 -13 5 -9 -20 -20 -20 -15 -7 -20 9 9 -20 -20 -20 -20 -20 -20 -20 -20 -20 -20 -20 -20 -20 10 -10 -15
-20 -20 -20 -20 -20 -20 -20 -20 -20 -20 -20 -20 -20 -19 -20 -7 16 24 13 23 15 -3 -14 3 -18 -8 10 10 -8 -20 -10 -20 -20 -20 3 -20 -20 -20 -20 -20 -20 -9 16 -10
-19 -19 -20 -20 -20 -20 -20 -20 -20 -20 -20 -20 -20 -20 -6 6 -3 6 21 29 19 -10 -11 -11 27 14 19 14 13 13 21 2 -6 13 8 9 3 -20 -20 -20 -20 -20 -13 -18
-20 -20 -20 -20 -20 -20 -20 -20 -20 -20 -20 -20 -20 -20 -17 -20 -20 -4 25 31 23 14 -19 -20 20 28 0 9 13 27 24 3 6 17 12 2 4 -11 -20 -20 -20 -20 -17 -14
-20 -20 -20 -20 -20 -20 -20 -20 10 -13 10 -3 -20 -20 -20 -20 -18 11 10 14 14 19 13 3 9 26 33 13 11 18 -5 2 -17 24 20 8 1 -15 -20 -0 -20 -11 -20 -17
-20 -5 -20 -20 -20 -20 -20 -20 -20 -10 -11 -12 -20 -20 7 -1 1 7 11 18 22 21 25 23 22 30 41 33 32 17 22 -14 14 -19 15 12 -9 29 -9 -20 -20 -20 -20 -20
-20 -20 -5 -20 -1 -20 -20 -20 -19 11 18 -20 -20 -4 4 -2 11 1 1 6 14 22 18 22 34 35 37 30 25 26 27 26 17 14 28 25 30 0 -15 -20 -20 -20 -20 5
-9 -13 -20 -18 12 -3 3 -12 25 21 12 16 -11 -20 2 13 13 -16 -12 -6 -6 7 10 15 24 25 12 7 13 13 17 20 25 28 28 24 29 6 -10 29 -19 20 9 -9
-19 -13 -20 -20 -20 -18 -17 -3 9 9 -2 -17 -20 14 13 16 1 5 3 -3 -1 6 16 16 6 -18 -16 -8 11 22 14 15 24 13 24 18 23 21 6 11 2 25 26 28
-20 -15 -20 -20 -20 0 17 17 7 13 -4 3 16 7 16 17 11 -14 9 3 4 3 -1 5 -14 -20 -6 3 -19 13 -20 -2 6 12 6 4 20 13 -5 24 24 26 35 25
17 -0 -7 -20 -16 13 9 14 13 23 10 2 17 5 -4 -4 -10 1 -18 1 -12 4 1 -20 -20 -20 -19 -19 -6 -18 -16 -2 -12 18 24 26 35 36 31 38 36 36 19 20
-5 18 12 18 -17 5 10 4 8 19 -14 -6 -17 -20 -19 -20 -13 -14 -18 -15 -12 -0 -15 -16 -12 -2 -6 -8 -9 15 -9 18 8 12 30 26 31 37 38 14 -3 19 5 3
19 18 15 19 8 4 -20 8 -17 -20 -20 -19 -20 -20 -20 -20 -10 4 -4 -4 -20 -19 -18 -16 -5 -11 -7 -12 -16 -20 -19 10 20 -19 21 25 40 45 32 17 17 2 7 13
31 22 15 19 12 -20 8 -20 -20 -7 -20 -20 -20 -20 -20 -20 -17 -6 -20 -15 -5 -11 -11 7 3 -13 -20 -20 -20 -20 -20 -20 -17 6 -15 22 29 27 37 35 12 24 14 -2
22 32 10 9 -17 -20 -20 -20 -20 -20 -20 -20 -20 -20 -20 -20 -20 -20 -20 -17 -13 -8 -16 -14 -20 -20 -20 -20 -20 -20 -20 -20 -18 -18 -0 -9 -5 23 7 20 32 20 25 14
18 20 3 -17 -20 -20 -20 -20 -20 -15 -20 -20 -20 -20 -20 -20 -20 -20 -8 -19 -17 -17 -16 -20 -20 -20 -20 -20 -20 -20 -20 -18 -20 -20 -20 -20 -13 -9 -4 -7 15 5 15 21
10 22 17 -12 -20 -20 -19 -20 -20 -20 -20 -20 -20 -20 -20 -20 -20 -20 -20 -11 -12 -20 -20 -20 -20 -20 -20 -20 -20 -20 -20 -19 -20 -20 -20 -20 -20 -20 -20 -20 -16 -5 5 -8
-20 -9 -20 -20 -20 -20 -19 -4 -19 -20 -20 -20 -20 -20 -20 -20 -20 -20 -20 -20 -20 -20 -20 -20 -20 -20 -20 -20 -20 -20 -20 -20 -20 -20 -20 -20 -20 -20 -20 -20 -20 -20 -19 -4
-20 -20 -20 -20 6 -18 -18 -20 -20 -20 -20 -20 -20 -20 -20 -20 -20 -20 -20 -20 -20 -20 -20 -20 -20 -20 -20 -20 -20 -20 -20 -20 -20 -20 -20 -20 -20 -20 -20 -20 -20 -20 -20 -20
-20 -20 -20 -20 -10 -16 -14 -20 -20 -17 -20 -20 -20 -20 -20 -20 -20 -20 -20 -20 -20 -20 -20 -20 -20 -20 -20 -20 -20 -20 -20 -20 -20 -20 -20 -20 -20 -20 -20 -20 -20 -19 -1 -18
-15 -20 -20 -20 -20 -20 -20 -20 -20 -20 -20 -20 -20 -20 -20 -20 -20 -20 -20 -20 -20 -20 -20 -20 -20 -20 -20 -20 -20 -20 -20 -20 -20 -20 -20 -20 -20 -20 -20 -20 -20 -20 -15 -14

GFSCGP_prec_radar_111.txt.gz
Reflectivity
-20 -20 -20 -20 -20 -20 -20 -20 -20 -20 -20 -20 -20 -20 -20 -20 -20 -20 -20 -20 -20 -20 -20 -20 -20 -20 -20 -20 -20 -20 -20 -20 -20 -20 -7 -0 -20 -20 -12 -20 -14 -18 -13 -20
-20 -20 -20 -20 -20 -20 -20 -20 -20 -20 -20 -20 -20 -20 -20 -20 -20 -20 -20 -20 -20 -20 -20 -20 -20 -20 -14 -4 -17 -20 -20 -20 -20 -20 -20 -20 -20 -20 -16 -20 -14 -20 -20 -20
-20 -20 -20 -20 -20 -20 -20 -20 -20 -20 -20 -20 -20 -20 -20 -20 -20 -20 -20 -20 -20 -20 -20 -20 -20 -20 -20 -20 -16 -20 -20 -20 -20 -20 -20 -17 -0 6 6 -14 -20 -20 -20 -20
-20 -20 -20 -20 -20 -20 -20 -20 -20 -20 -20 -20 -20 -20 -20 -20 -20 -20 -19 -20 -20 -20 -20 -20 -20 -20 -20 -20 -20 -20 -20 -20 -20 -20 -20 -20 -20 -5 -18 -20 -20 -18 -20 -20
-20 -20 -20 -20 -20 -20 -20 -20 -19 -17 -20 -20 -20 -20 -20 -20 -20 -20 -20 -20 -20 -20 -20 -20 -20 -20 -20 -20 -20 -20 -20 -20 -20 -20 -20 -20 -20 -20 -20 -1 3 -20 -20 -2
-20 -20 -20 -20 -20 -20 3 7 -10 -20 -17 -20 -20 -20 -20 -20 -2 -19 -20 -20 -20 -20 -20 -3 -20 -20 -12 -12 -20 -20 -19 -20 -20 -20 -20 -20 -20 -20 -7 2 3 -12 -20 -7
-20 -20 -20 -20 -20 -15 -9 -15 -13 -20 -20 -20 -20 -20 -20 -4 -1 -19 -5 -20 -20 -20 -20 -20 -20 -15 -18 -20 -13 8 7 -20 -20 -20 -20 -20 1 8 6 -8 -7 -17 -20 -15
-20 -20 -20 -20 -19 -20 -20 -20 -20 -20 -20 -20 -20 -20 -20 -18 -20 -20 -20 -20 -20 -20 -20 -20 -12 -20 19 14 18 12 17 9 -7 -20 -20 -3 3 4 11 7 4 1 4 -20
-20 -20 -20 -20 -4 -12 -20 -20 -20 -20 -20 -20 -20 -20 -20 -20 -20 -20 -20 -20 -20 -20 -18 -19 -17 -20 9 11 30 24 17 18 28 -17 -20 2 7 12 3 11 12 -20 -20 -20
-20 -20 -20 -20 -20 -20 -20 -19 7 -16 3 -4 -20 -20 -20 -20 -16 -20 -20 -2 -20 -20 4 15 6 4 -10 12 29 23 24 22 19 -18 19 -17 -4 26 14 -3 -11 -20 -16 -20
-20 -20 -20 -20 -20 -20 -20 -20 -20 -20 -20 10 7 -16 7 -20 -1 -7 -6 -3 -2 4 11 17 22 19 23 28 20 18 15 21 17 -11 19 16 -2 10 26 26 -11 -14 -20 -20
-20 -20 -20 -20 -17 -20 -20 -20 -8 -18 8 12 12 -3 -6 2 -1 -13 -20 -4 -19 9 13 18 25 31 25 31 33 28 27 14 -2 19 7 30 21 10 7 16 26 8 -13 -3
-20 -20 -20 -18 5 2 -9 -18 -19 19 5 -20 4 5 -5 -3 6 6 -20 -19 -20 -12 8 19 24 28 36 22 23 20 14 7 5 21 27 26 25 24 19 18 13 17 22 6
-20 -20 -20 -20 -20 -20 -20 -19 -1 14 6 -1 8 -17 -20 -9 0 11 -8 -20 -6 1 10 9 12 6 5 18 22 33 15 29 26 21 24 26 25 28 23 26 19 19 19 21
-16 -17 -20 -20 -20 -20 -1 -15 -17 -10 -20 -2 -8 7 1 3 8 5 -7 -19 -2 -8 3 6 3 2 -1 1 -16 18 13 9 35 11 31 25 22 24 28 18 12 21 14 4
-13 -20 -20 -20 -20 -10 -20 4 9 11 21 -9 12 7 -6 -8 -18 -20 -18 -2 -10 6 6 12 6 -19 -20 -5 8 10 -1 8 22 42 14 5 27 25 14 22 18 24 21 19
-15 -20 -16 -13 -18 -20 2 4 7 20 10 10 -9 -19 -20 -20 -20 -13 -19 -17 -11 -16 2 7 5 1 -3 -6 -6 -1 3 15 15 9 33 31 20 41 36 29 36 28 31 28
8 -6 -5 -5 12 5 -12 10 -11 -7 -20 -16 -20 -20 -20 -20 -20 3 -4 -8 -10 3 -1 -11 -16 -19 -16 -20 -20 -19 -18 6 20 8 16 38 36 32 38 40 33 35 37 38
28 11 6 17 -9 -9 1 -20 -14 -8 -20 -20 -18 -3 -20 -18 -15 -6 -18 -19 -6 -7 -7 6 0 -19 -20 -20 -19 -20 -20 -20 -20 -12 12 17 27 33 34 37 40 37 41 25
29 16 -11 -18 -20 -20 -20 -20 -20 -20 -20 -20 -20 -20 -20 -20 -20 -20 -20 -20 -20 -15 -20 -20 -20 -20 -20 -20 -20 -20 -20 -20 -20 -20 -11 -14 -17 5 22 26 32 34 18 22
-9 12 -4 7 -20 -20 -20 -20 -20 -6 -20 -20 -20 -20 -20 -20 -20 -13 -20 -20 -20 -20 -20 -20 -20 -20 -20 -20 -20 -20 -20 -20 -20 -20 -20 -6 -1 -20 -19 -12 15 2 19 23
7 11 -0 -16 -13 -20 -20 -20 -18 -20 -20 -20 -20 -20 -20 -20 -20 -20 -20 -20 -20 -20 -20 -20 -20 -20 -20 -20 -20 -20 -20 -20 -20 -20 -20 -20 -16 -19 -17 -20 -20 -20 -20 -20
0 18 19 8 -20 -20 -8 -20 -19 -20 -20 -20 -20 -20 -20 -20 -20 -20 -20 -20 -20 -20 -20 -20 -20 -20 -20 -20 -20 -20 -19 -20 -20 -20 -20 -20 -20 -20 -20 -18 -20 -20 -20 -20
-8 13 -9 -20 -6 -20 -20 -20 -20 -20 -20 -20 -20 -20 -20 -20 -20 -20 -20 -20 -20 -20 -20 -20 -20 -20 -20 -20 -20 -20 -20 -20 -20 -20 -20 -20 -20 -20 -20 -20 -20 -17 -18 -20
-20 -16 -20 -4 -1 -20 -20 -13 -20 -20 -20 -20 -20 -20 -20 -20 -20 -20 -20 -20 -20 -20 -20 -20 -20 -20 -20 -20 -20 -20 -20 -20 -20 -20 -20 -20 -20 -20 -20 -20 5 4 4 6
-4 -20 -20 -20 -20 -20 -20 -20 -20 -20 -20 -20 -20 -20 -20 -20 -20 -20 -20 -20 -20 -20 -20 -20 -20 -20 -20 -20 -20 -20 -20 -20 -20 -20 -20 -20 -20 -20 -20 -20 -20 -20 -18 -12

GFSCGP_prec_radar_114.txt.gz
Reflectivity
-20 -20 -20 -20 -20 -20 -20 -20 -20 -20 -20 -20 -20 -20 -20 -20 -20 -20 -20 -20 -20 -20 -20 -20 -20 -20 -20 -20 -20 -20 -20 -20 -20 -20 -20 -20 -20 -20 -20 -20 -20 -20 -20 -20
-20 -20 -20 -20 -20 -20 -20 -20 -20 -20 -20 -20 -20 -20 -20 -20 -20 -20 -20 -20 -20 -20 -20 -20 -20 -20 -20 -20 -20 -20 -20 -20 -20 -20 -20 -20 -20 -20 -20 -20 -20 -20 -20 -20
-20 -20 -20 -20 -20 -20 -20 -20 -20 -20 -20 -20 -20 -20 -20 -20 -20 -20 -20 -20 -20 -20 -20 -20 -20 -20 -20 -20 -20 -20 -20 -20 -20 -20 -20 -20 -20 -20 -20 -20 2 -11 -20 -20
-20 -20 -20 -20 -20 -20 -20 -20 -20 -20 -20 -20 -20 -20 -20 -20 -20 -20 -20 -20 -20 -20 -20 -20 -20 -20 -20 -20 -20 -20 -20 -20 -20 -20 -20 -20 -20 -20 -20 -19 -15 -20 -20 -13
-20 -20 -20 -20 -20 -20 -20 -20 -20 -20 -20 -20 -20 -20 -20 -20 -20 -20 -20 -20 -20 -20 -20 -20 -20 -20 -20 -20 -20 -20 -20 -20 -20 -20 -20 -20 -20 -20 -20 -20 -20 -20 -1 2
-20 -20 -20 -20 -20 -20 -20 -20 -20 -20 -20 -20 -20 -20 -20 -20 -20 -13 -20 -20 -20 -20 -20 -20 -20 -20 -20 -20 -20 -20 -20 -20 -20 -20 -20 -15 -20 -20 -20 -20 -20 -20 5 5
-20 -20 -20 -20 -20 -20 -20 -20 -20 -20 -20 -20 -20 -20 -20 -20 -20 -18 -18 -20 -20 -20 -20 -20 -20 -20 -20 -20 -20 -20 -20 -20 -20 -20 -20 -6 -7 -20 -20 -20 -20 -17 8 -7
-20 -20 -20 -20 -20 -20 -20 -20 -20 -20 -20 -20 -20 -20 -20 -20 -20 -20 -20 -20 -20 -20 -20 -20 -12 -20 -20 -20 -20 -20 -20 -20 -20 -20 -20 -20 -18 -20 -20 -20 -20 -17 4 -5
-20 -20 -20 -20 -20 -20 -20 -20 -20 -20 -20 -20 -20 -20 -20 -20 -20 -20 -20 -20 -20 -20 -20 -19 -19 -17 -17 -20 -20 -20 -20 -9 2 -4 -9 -15 -19 7 -19 -19 -2 3 11 2
-20 -20 -20 -20 -20 -20 -20 -20 -11 -13 3 -4 -20 -20 -3 -20 -14 -19 -4 -14 -3 -5 -5 -1 -2 3 2 -2 0 -12 14 20 23 18 11 -11 -20 -20 9 14 13 12 16 14
-20 -20 -20 -20 -20 -20 -20 -20 -20 3 10 11 9 22 5 2 2 -10 -15 -18 -2 -5 2 7 5 5 6 3 6 6 36 23 23 17 23 22 -17 1 17 8 -0 -2 16 30
-20 -20 -20 -20 -20 -20 -20 -20 8 11 20 7 17 7 -8 -13 -20 -5 -20 -20 -20 -19 -1 5 8 22 19 20 24 22 30 40 21 17 18 11 2 -4 -18 9 17 21 -3 15
-16 0 -20 -13 -12 12 20 -16 -20 7 4 2 17 12 -0 1 -15 -12 1 -20 -20 -20 -3 2 10 25 29 20 32 26 29 37 21 22 23 28 30 20 20 23 6 4 -6 7
-20 -20 -20 -19 -17 -20 -19 5 8 14 16 10 13 -4 -20 -6 -2 -2 -2 -20 -3 2 8 10 17 21 16 15 29 37 20 29 27 20 13 22 27 32 20 26 30 23 31 30
5 -20 -20 -20 -20 -20 -20 1 3 -13 -0 7 0 -17 -9 8 8 10 5 -9 6 9 -4 2 4 6 9 13 11 19 25 37 35 25 22 21 23 21 27 26 25 28 25 29
-2 -10 8 -4 -20 -10 5 -7 6 -3 -18 11 7 -14 9 -3 7 -19 -18 8 4 7 6 4 10 12 9 7 13 9 9 17 27 34 29 19 28 26 25 25 28 19 22 12
17 5 12 13 -5 5 -9 -1 10 6 -2 7 10 -7 12 -20 -20 -12 -7 -1 4 -4 7 -1 8 -0 5 7 2 6 14 14 16 16 33 30 36 39 33 39 41 28 28 27
13 8 14 10 8 14 2 5 -2 -20 -2 -1 6 -1 -20 -20 -8 -2 -3 -3 -15 -11 -6 -11 -1 -9 -8 -20 -20 -20 -19 -6 21 11 17 25 20 24 38 35 33 33 36 26
0 12 14 16 11 -4 6 -2 -0 8 -3 -20 -7 -20 -9 -20 -20 -20 -8 -1 -1 1 0 3 -1 -1 -4 -16 -17 -20 -20 -20 -20 -20 -3 11 17 26 25 31 34 35 39 34
17 12 18 12 8 11 -18 -20 -20 -20 2 -20 -20 -20 -6 -6 0 -20 -4 -2 -3 -1 -3 -2 -6 -20 -20 0 -16 -20 -20 -20 -20 -20 -20 -20 -20 -11 3 23 28 32 31 31
13 15 4 4 10 -20 -20 -20 -20 -3 -0 -20 -20 -20 -4 -20 -20 -4 -3 -4 -2 -9 -20 -20 -20 -20 -20 -16 -20 -20 -20 -20 -20 -20 -20 -20 -20 -17 -14 -15 -13 1 16 24
3 -1 11 5 10 -4 -20 -20 -7 -14 -20 -20 -10 -20 -20 -18 -3 -5 -7 -20 -20 -20 -20 -20 -20 -20 -20 -12 -20 -20 -20 -20 -20 -20 -20 -20 -20 -8 -2 -4 3 -20 -6 -5
1 -9 3 -20 -18 -2 -2 -7 -12 -20 -20 -20 -20 -20 -20 -20 -2 -1 -20 -20 -20 -20 -20 -20 -20 -20 -20 -20 -20 -20 -20 -20 -20 -20 -20 -11 -18 -2 2 1 1 -1 0 1
-3 5 -5 -16 -1 1 -5 -4 -19 -20 -20 -20 -20 -20 -20 -20 -20 -6 -20 -20 -20 -20 -20 -20 -20 -20 -20 -20 -20 -20 -20 -20 -20 -20 -20 -20 -20 -20 -15 -5 -4 0 2 2
-10 -0 2 -2 -2 -4 -1 -1 -5 -11 -20 -20 -20 -20 -20 -20 -20 -20 -20 -20 -20 -20 -20 -20 -20 -20 -20 -20 -20 -20 -20 -20 -20 -20 -20 -20 -20 -20 -20 -20 -20 -20 -5 3
-20 -17 -7 -1 -20 -16 -16 -7 -10 -20 -6 -20 -20 -20 -20 -20 -20 -20 -20 -20 -20 -20 -20 -20 -20 -20 -20 -20 -20 -20 -20 -20 -20 -20 -20 -20 -20 -20 -20 -20 -20 -20 -20 -20

GFSCGP_prec_radar_117.txt.gz
Reflectivity
-20 -20 -20 -20 -20 -20 -20 -20 -20 -20 -20 -20 -20 -20 -20 -20 -20 -20 -20 -20 -20 -20 -20 -20 -20 -20 -20 -20 -20 -20 -20 -20 -20 -20 -20 -20 -20 -20 -20 -20 -20 -20 -20 -20
-20 -20 -20 -20 -20 -20 -20 -20 -20 -20 -20 -20 -20 -20 -20 -20 -20 -20 -20 -20 -20 -20 -20 -20 -20 -20 -20 -20 -20 -20 -20 -20 -20 -20 -20 -20 -20 -20 -20 -20 -20 -20 -20 -20
-20 -20 -19 -20 -20 -20 -20 -20 -20 -20 -20 -20 -20 -20 -20 -20 -20 -20 -20 -20 -20 -20 -20 -20 -20 -20 -20 -20 -20 -20 -20 -20 -20 -20 -20 -20 -20 -20 -20 -20 -20 -20 -20 -1
-20 -20 -20 -20 -20 -20 -20 -20 -20 -20 -20 -20 -20 -20 -20 -20 -20 -18 -20 -20 -20 -20 -20 -20 -20 -20 -20 -20 -20 -20 -20 -20 -20 -20 -20 -20 -20 -20 -20 -14 -20 -20 -13 -16
-20 -20 -20 -20 -20 -20 -20 -20 -20 -20 -20 -20 -20 -16 -20 -20 -20 1 -20 -20 -20 -20 -20 -20 -20 -20 -20 -20 -20 -20 -20 -20 -20 -20 -20 -20 -20 -20 -20 -20 -20 -20 -13 -7
-20 -20 -20 -20 -20 -20 -20 -20 -20 -20 -20 -20 -20 -20 -20 -20 -20 -20 -20 -20 -20 -20 -20 -20 -20 -20 -20 -20 -20 -20 -20 -20 -20 -20 -20 -20 -20 -20 -20 -20 -20 -20 -16 3
-20 -20 -20 -20 -20 -20 -20 -20 -20 -20 -17 -20 -20 -20 -20 -20 -20 -20 -20 -20 -20 -20 -20 -20 -20 -20 -20 -20 -20 -20 -20 -20 -20 -20 -20 -20 -14 -10 -20 -20 -20 20 -14 -10
-20 -20 -3 -20 -20 -20 -20 -20 -20 -20 -20 -20 -19 -20 -20 -20 -20 -20 -20 -20 -20 -20 -20 -20 -20 -20 -20 -20 -20 -9 -20 -20 -20 -20 -20 -20 -18 -20 -20 -20 -20 -20 9 -20
-20 -19 -20 -20 -20 -20 -20 -20 -20 -20 -20 -20 -20 -20 -20 -20 -20 -20 -20 -20 -20 -20 -18 -19 -20 -3 -3 1 1 -3 -2 -7 -20 -20 -15 -20 -20 -20 -19 -20 -20 -20 -4 -20
7 -5 -17 -20 -20 -20 -20 -20 -20 -20 -12 -12 -20 -20 -3 -7 -17 -20 -20 -20 -20 -11 -20 -7 -5 -2 0 3 4 3 -9 -15 -20 -20 -16 -15 -19 -17 -11 8 -20 -20 -20 9
-20 -20 -20 -20 -20 -20 -20 -20 -20 -20 13 12 10 12 9 -13 -0 -3 -20 -20 -20 -4 -10 6 2 -2 1 9 1 -1 -2 -20 -19 -18 -2 10 11 11 -17 12 -14 -20 -20 1
-20 -20 -20 -20 -20 -20 -20 -20 -20 -1 6 -1 -17 -0 -20 -19 -19 -20 6 -0 -20 -20 -18 1 4 2 7 11 5 -6 5 -8 11 33 11 18 20 21 0 -18 30 -20 9 20
-20 -20 -20 -20 -14 -20 17 -20 -20 12 20 8 17 17 -10 -2 -20 -9 -4 -3 -16 -20 -20 -19 1 7 15 15 8 18 23 23 36 31 25 25 24 21 -0 7 26 11 -19 38
-20 -20 -20 -7 5 9 14 10 -5 -2 9 11 14 24 3 1 4 -16 1 2 1 -6 -4 -3 0 12 8 12 16 20 26 26 31 32 26 25 12 -12 -0 6 29 26 18 23
-20 -2 -2 -20 -20 -20 -20 -13 6 4 6 3 -14 -9 -2 3 2 2 3 9 5 11 2 5 6 9 11 6 21 30 22 28 24 36 34 24 12 13 17 7 28 21 20 25
-14 -9 5 -20 -20 -13 3 -3 1 -11 -18 -20 -16 2 5 3 2 3 6 6 11 2 6 8 9 6 2 5 11 15 13 24 27 20 29 34 34 22 8 19 28 27 28 30
1 11 10 9 1 -19 8 -10 -20 3 -18 6 5 5 1 9 -10 2 -0 6 9 -3 -2 -11 -1 1 -4 3 2 12 22 17 17 25 24 28 29 39 28 32 29 16 22 24
12 14 15 11 -12 14 -3 -20 -10 6 6 -12 -20 2 -5 -7 -2 0 -2 -3 -14 -4 -3 -4 -0 -1 -1 -18 -16 -20 -20 -20 -20 -10 4 13 21 26 31 31 27 23 24 28
-2 16 19 17 16 1 1 -2 -2 7 -1 7 -9 -20 -20 -20 -20 -15 -3 -19 -3 -3 -7 -5 -7 -18 -19 -20 -20 -20 -20 -20 -20 -20 -20 2 -16 8 29 33 30 38 35 34
4 6 15 20 12 16 -17 4 -20 -20 2 -20 -15 -20 -20 -20 9 -4 -5 -7 -20 -20 -20 -20 -20 -20 -20 -9 -20 -20 -20 -20 -20 -18 -19 -20 -20 -20 -17 18 12 27 33 30
4 6 9 2 16 3 -20 -20 -20 5 4 -20 -20 -13 -20 -8 -4 -5 -3 -20 -20 -20 -20 -20 -20 -20 -5 -10 -20 -20 -20 -11 1 -3 -4 -13 -0 -13 -16 -13 -14 -4 9 11
9 18 14 5 21 14 -20 -20 -10 -14 -20 -20 -20 -11 -20 -4 -4 -14 -20 -20 -20 -20 -20 -20 -20 -20 -20 -20 -20 -20 -20 -20 -20 -20 -18 -14 -16 -1 -10 -0 -15 -10 -15 -19
5 -10 8 -20 -4 -10 -18 -18 -20 -20 -20 -5 -12 -13 -20 -9 -7 -4 -20 -20 -20 -20 -20 -20 -20 -20 -20 -20 -20 -20 -13 -20 -20 -20 -20 -20 -7 -20 -20 -20 -11 -20 -8 -12
-20 -20 -7 -15 -18 -12 -2 -20 -20 -20 -20 -20 -20 -20 -20 -9 -5 -20 -20 -20 -20 -20 -20 -20 -20 -20 -20 -20 -20 -20 -20 -20 -20 -20 -20 -20 -20 -5 -20 -20 -20 -20 -20 -7
-8 -20 -1 -3 -8 -20 -14 -20 -13 -17 -20 -20 -20 -20 -20 -20 -20 -20 -20 -20 -20 -20 -20 -20 -20 -20 -20 -20 -20 -20 -20 -20 -20 -20 -20 -20 -20 -20 -20 -20 -20 -20 -13 -13
-19 -16 0 8 -20 -17 -16 -18 -19 -10 -6 -20 -20 -20 -20 -20 -20 -20 -20 -20 -20 -20 -20 -20 -20 -20 -20 -20 -20 -20 -20 -20 -20 -20 -20 -20 -20 -20 -20 -20 -20 -20 -20 -20

GFSCGP_prec_radar_120.txt.gz
Reflectivity
-20 -20 -20 -12 -20 -20 -20 -20 -20 -20 -20 -20 -20 -20 -20 -20 -20 -20 -20 -20 -20 -20 -20 -20 -20 -20 -20 -20 -20 -20 -20 -20 -20 -20 -20 -20 -20 -20 -20 -20 34 29 -20 -20
-20 -20 -20 -20 -20 -20 -20 -20 -20 -20 -20 -20 -20 -20 -20 -20 -20 -20 -20 -20 -20 -20 -20 -20 -20 -20 -20 -20 -20 -20 -20 -20 -20 -20 -20 -20 -20 -20 -20 -20 -6 -20 -20 -15
-20 -20 -20 -20 -20 -20 -20 -20 -20 -20 -20 -20 -20 -20 -20 -20 -20 -20 -20 -20 -20 -20 -20 -20 -20 -20 -20 -20 -20 -20 -20 -20 -20 -20 -20 -20 -20 -20 -20 -20 -20 -19 -20 -20
-20 -20 -20 -20 -20 -20 -20 -20 -20 -20 -20 -20 -20 -20 -20 -20 -20 -20 -1 13 -18 -20 -20 -20 -20 -20 -20 -20 -20 -20 -20 -20 -20 -20 -20 -20 -20 -20 -20 -20 -20 7 -20 -20
-20 -20 -20 -20 -20 -20 -20 -20 -20 -20 -20 -20 -20 -20 -20 -20 -20 5 -4 -4 -20 -20 -20 -20 -20 -20 -20 -20 -20 -20 -20 -20 -20 -20 -20 -20 -20 -20 -20 -20 -20 -20 -20 -20
-20 -20 -20 -20 -20 -20 -20 -20 -20 -20 -20 -20 -20 -20 -20 -19 -20 -20 -20 -14 -20 -20 -20 -20 -20 -20 -20 -20 -20 -20 -20 -20 -20 -20 -20 -20 -20 -20 -20 -20 -20 -20 -20 -18
-20 -20 -20 -20 -20 -20 -20 -20 -20 -20 -13 -20 -20 1 19 -1 -20 -20 -20 -17 -16 -20 -20 -20 -20 -20 -20 -20 -20 -20 -20 -20 -20 -20 -20 -20 -20 -20 -20 -20 -20 -20 -20 -20
-20 -20 -20 -20 -20 -20 -20 -1 -8 -14 -20 -20 -20 -20 6 4 -20 -20 -20 -20 -20 -20 -20 -20 -20 -20 -20 -20 -20 -20 -11 -10 -20 -8 -20 -20 -20 -20 -20 -20 -20 -20 -20 -20
-20 -20 -20 -20 -20 -20 -20 -15 -2 -20 -20 -20 -20 -20 -19 -20 -20 -20 -20 -20 -20 -20 -20 -20 -20 -20 -18 -8 -10 -9 3 -0 -5 -9 -4 -20 -20 -20 -20 -20 -20 -20 -20 -20
-20 -20 -20 -20 -20 -20 -20 -20 -20 -20 -20 -13 -20 6 13 -8 -19 -20 -20 -20 -20 -20 -20 -20 -17 -9 -1 1 2 5 2 2 -1 -16 -20 -20 -20 -20 -20 -20 -20 -20 -20 -20
-20 -20 -20 -20 -20 -20 -20 -20 -20 -20 -20 -17 -3 8 3 7 -2 1 -20 -20 -20 -20 -20 -5 -4 -2 6 3 4 -3 1 1 -13 -19 -17 -19 5 4 2 -0 12 -20 -20 -20
-20 -20 -20 -20 -20 -20 -20 -20 -20 -5 -20 -20 4 10 -20 -19 -20 -20 -20 -20 -20 -20 -18 5 6 5 14 12 20 5 5 9 8 8 1 2 4 13 7 17 20 6 0 -20
-20 -20 -20 -20 -20 -20 -20 -20 -17 -15 11 -20 18 20 -12 -16 -20 -20 -20 -20 -20 -11 -1 9 16 19 17 14 24 23 13 15 28 34 22 20 24 12 17 21 18 17 -20 -20
-20 -20 -20 -20 -19 -20 0 24 -3 -20 -11 -17 18 3 -20 -20 -20 -20 -20 -20 -9 3 14 15 8 15 17 14 25 16 8 15 27 33 35 24 25 29 28 26 12 -16 11 17
-20 -20 -20 -20 -20 -20 -20 -20 -20 9 -15 17 17 5 -20 -6 -4 -0 -6 -8 -2 2 15 14 11 10 2 -5 -5 7 10 3 18 22 27 33 32 29 26 12 20 -17 10 32
-20 -20 -5 -20 -20 -20 -20 -20 -20 -18 -10 -0 -20 0 -20 -0 3 -4 -7 2 1 12 10 13 10 -6 -16 -12 -3 2 8 16 16 19 24 26 35 33 21 15 20 31 29 39
-20 3 -20 -20 -10 -2 2 -20 -20 -4 -19 -18 -4 -15 0 3 -14 -5 -3 1 6 12 9 6 -18 -17 -20 -20 -20 -20 -20 -20 -15 -4 11 16 21 28 26 22 19 30 26 25
-20 -20 -20 3 6 6 -20 -20 -20 -10 -20 1 -20 -20 -5 -20 -11 -0 -2 -20 -8 3 -4 -0 -20 -20 -20 -20 -20 -20 -20 -20 -20 -20 -17 -2 14 20 26 30 31 32 19 15
-20 -11 16 15 14 -5 -20 -20 -19 -18 1 -2 -13 -5 -20 -20 -20 -9 -20 -20 -20 -20 -20 -20 -19 -20 -17 -12 -20 -20 -20 -20 -20 -20 -20 -20 -14 0 10 16 24 28 29 27
9 -17 10 1 20 15 19 -20 -20 -20 -1 -2 -20 -20 -20 -20 0 -16 -20 -20 -20 -20 -20 -20 -20 -20 -20 -20 -20 -20 -20 -20 -15 -3 -20 -17 -20 -12 -1 7 6 13 18 19
-6 12 9 1 10 1 -20 -20 -20 1 -12 -20 -20 -20 -20 -13 -20 -13 -20 -20 -20 -20 -20 -20 -20 -20 -20 -20 -20 -20 -20 -20 -20 -20 -20 -20 -20 -20 -20 -9 2 2 5 8
-9 3 5 -8 9 16 -20 -13 -13 -15 -20 -20 -20 -20 -20 -20 -16 -20 -20 -20 -20 -20 -20 -20 -20 -20 -20 -20 -20 -20 -20 -20 -20 -20 -20 -20 -20 -20 -20 -19 -11 -0 -17 -20
19 -2 9 16 -0 -20 -20 -18 -20 -20 -20 -20 -20 -20 -20 -20 -20 -20 -20 -20 -20 -20 -20 -20 -20 -20 -20 -20 -20 -20 -20 -20 -20 -20 -20 -20 -20 -20 -20 -20 -20 -20 -15 -20
-20 -20 -20 -20 -20 -20 -20 -20 -20 -20 -20 -20 -20 -20 -20 -20 -20 -20 -20 -20 -20 -20 -20 -20 -20 -20 -20 -20 -20 -20 -20 -20 -20 -20 -20 -20 -20 -18 -20 -20 -20 -20 -20 -20
-20 -20 -20 -20 -20 -16 -19 -14 -20 -20 -20 -20 -20 -20 -20 -20 -20 -20 -20 -20 -20 -20 -20 -20 -20 -20 -20 -20 -20 -20 -20 -20 -20 -20 -20 -20 -20 -20 -17 -20 -20 -20 -20 -20
-20 -19 -15 2 -20 -20 -20 -20 -20 -20 -20 -20 -20 -20 -20 -20 -20 -20 -20 -20 -20 -20 -20 -20 -20 -20 -20 -20 -20 -20 -20 -20 -20 -20 -20 -20 -20 -20 -20 -16 -7 -20 -20 -20